     2              OBSERVATION DATA    GPS                 RINEX VERSION / TYPE
ASHTORIN MIT 25 - NOV - 96 15:49                            PGM / RUN BY / DATE
                                                            COMMENT
China Lake 1996 EXTP #2 Ashtech P-Code                      COMMENT
Original Marker Name: GS24                                  COMMENT
Campaign Name: China Lake Nov 1996                          COMMENT
4-Character Station Name: GS24                              COMMENT
6-Character Antenna Code: ASHP12                            COMMENT
Vertical Measurement Point: TGP                             COMMENT
Vertical Offset to Rinex Ref. Point: 0.0640                 COMMENT
Radial Measurement Point: RRP                               COMMENT
Radial Offset to Rinex Ref. Point: 0.0000                   COMMENT
Antenna Height from Field Measurement: 0.2330 m             COMMENT
Additional Antenna Identification Info.:                    COMMENT
Ashtech L1/L2 Revision B (700228DE)                         COMMENT
Original XYZ: -2358942.5400 -4594200.7800 3731779.2200      COMMENT
New XYZ position is based on association with SCEC monument COMMENT
E1F4N3W8+0011. Position of that monument is believed to be  COMMENT
valid to within 1 m horizontally; vertical accuracy         COMMENT
should be no worse than 3-times this value.                 COMMENT
                                                            COMMENT
Revised Rinex header created by UCSD GPS archive for        COMMENT
GSAC on 01-Aug-2000 (2000:214) 15:51:38 GMT                 COMMENT
For assistance contact dagnew@ucsd.edu                      COMMENT
or anderson@python.ucsd.edu                                 COMMENT
                                                            COMMENT
GO24                                                        MARKER NAME
gs24                                                        MARKER NUMBER
RES BMA                                                     OBSERVER / AGENCY
453 ASHTECH Z-XII3 1G001C7                                  REC # / TYPE / VERS
292 ASHTECH GEODETIC P                                      ANT # / TYPE
 -2386885.0146 -4588641.4775  3722489.1245                  APPROX POSITION XYZ
        0.1690        0.0000        0.0000                  ANTENNA: DELTA H/E/N
     1     1     0                                          WAVELENGTH FACT L1/2
     7    L1    L2    C1    P1    P2    D1    D2            # / TYPES OF OBSERV
    30                                                      INTERVAL
  1996    11    14    16    22   30.000000                  TIME OF FIRST OBS
  1996    11    14    22    29   60.000000                  TIME OF LAST OBS
                                                            END OF HEADER
 96 11 14 16 22 30.0000000  0  7  3 23 21  1  9 31 17                0.000366077
     65735.799 9     48642.10748  21631056.801    21631057.9704   21631062.8764
      -805.140        -627.382
    113303.442 9     76677.67654  22028770.966           0.0004          0.0005
     -1423.757       -1109.421
    -28422.066 9    -20234.33648  20808441.669    20808443.6234   20808448.5124
       342.524         266.902
   -148495.421 9    -97130.12949  20791022.792    20791023.9604   20791029.2544
      1807.884        1408.741
      6624.828 9      5341.05955  23742127.400           0.0004          0.0005
      -103.052         -80.300
   -124303.139 9    -88490.69147  23000447.587    23000451.1474   23000455.4574
      1508.186        1175.210
    206543.612 9    149713.84047  22756838.651    22756846.4045   22756852.3204
     -2597.231       -2023.816
 96 11 14 16 23  0.0000000  0  7  3 23 21  1  9 31 17                0.000362152
     90171.542 9     67682.93358  21635706.510    21635707.9845   21635712.8045
      -823.528        -641.710
    156061.350 9      6995.60658  22036906.534           0.0005   22036911.5795
     -1426.346       -1111.438
    -38603.243 9    -28167.73058  20806504.820    20806506.2545   20806511.1005
       336.529         262.230
   -202488.867 9   -139202.93958  20780747.385    20780749.3235   20780754.6395
      1792.065        1396.414
      9995.838 9      1610.53652  23742775.834           0.0005          0.0005
      -121.387         -94.587
   -169283.150 9   -123540.05957  22991889.333    22991891.4935   22991896.3045
      1490.605        1161.510
    284593.491 9    210531.85457  22771700.322    22771698.7215   22771704.7075
     -2605.622       -2030.355
 96 11 14 16 23 30.0000000  0  7  3 23 21  1  9 31 17                0.000358226
    115114.865 9     87119.26748  21640452.739    21640454.4904   21640459.3244
      -840.022        -654.562
    198856.153 9     40342.19758  22045049.821    22045050.5165   22045054.9495
     -1427.386       -1112.249
    -48640.024 9    -35988.59548  20804595.044    20804596.3104   20804601.1414
       331.805         258.549
   -256049.955 9   -180938.83548  20770555.608    20770556.9294   20770562.2914
      1778.010        1385.462
     13877.212 9      4635.29857  23743515.252           0.0005   23743516.2155
      -137.878        -107.437
   -213765.585 9   -158201.72347  22983424.357    22983426.7234   22983431.4724
      1474.185        1148.716
    362846.797 9    271508.40847  22786589.790    22786589.7404   22786595.8944
     -2611.588       -2035.004
 96 11 14 16 24  0.0000000  0  7  3 23 21  1  9 31 17                0.000354249
    140567.259 9    106952.30248  21645296.157    21645297.7924   21645302.7744
      -856.818        -667.650
    241689.054 9     73718.47848  22053200.246    22053201.2964   22053205.8384
     -1428.065       -1112.778
    -58520.368 9    -43687.56248  20802714.760    20802716.1204   20802720.9484
       326.761         254.619
   -309170.983 9   -222331.83248  20760446.874    20760448.3424   20760453.7134
      1763.198        1373.921
     18256.903 9      8048.02657  23744344.554    23744344.2585   23744350.5345
      -154.101        -120.079
   -257741.166 9   -192468.42347  22975056.231    22975058.2304   22975063.1594
      1457.299        1135.558
    441293.884 9    332635.94247  22801518.174    22801517.8204   22801523.8944
     -2617.961       -2039.970
 96 11 14 16 24 30.0000000  0  7  3 23 21  1  9 31 17                0.000350227
    166530.579 9    127183.45048  21650236.749    21650238.4754   21650243.4824
      -873.684        -680.793
    284550.997 9    107117.38348  22061356.498    22061357.6974   22061362.3014
     -1428.941       -1113.461
    -68240.432 9    -51261.64148  20800865.124    20800866.4724   20800871.2804
       321.541         250.551
   -361837.090 9   -263370.34548  20750424.795    20750426.3534   20750431.7084
      1748.186        1362.223
     23124.660 9     11841.03047  23745269.448    23745272.0134   23745277.8664
      -170.125        -132.565
   -301199.764 9   -226332.28047  22966786.348    22966788.3654   22966793.2914
      1440.154        1122.198
    519925.252 9    393907.08547  22816480.557    22816480.9554   22816486.9634
     -2623.927       -2044.618
 96 11 14 16 25  0.0000000  0  7  3 23 21  1  9 31 17                0.000346143
    192988.248 9    147799.80148  21655271.702    21655273.2174   21655278.2284
      -890.267        -693.715
    327433.794 9    140532.53948  22069516.828    22069518.0344   22069522.6514
     -1430.077       -1114.346
    -77803.193 9    -58713.13948  20799045.363    20799046.7574   20799051.5654
       315.826         246.098
   -414051.975 9   -304057.25848  20740488.510    20740490.2204   20740495.5654
      1732.799        1350.233
     28464.550 9     16001.93947  23746286.148    23746288.6964   23746294.3344
      -186.066        -144.986
   -344141.660 9   -259793.48947  22958615.052    22958616.8554   22958621.7074
      1422.529        1108.464
    598738.934 9    455320.28947  22831477.699    22831478.7644   22831484.7364
     -2630.637       -2049.847
 96 11 14 16 25 30.0000000  0  7  3 23 21  1  9 31 17                0.000342000
    219925.682 9    168789.98948  21660397.449    21660399.1814   21660404.2774
      -905.665        -705.713
    370341.594 9    173967.18148  22077681.756    22077683.1144   22077687.8024
     -1430.485       -1114.664
    -87211.376 9    -66044.19248  20797255.178    20797256.4774   20797261.2854
       311.450         242.688
   -465823.949 9   -344399.04448  20730636.644    20730638.3524   20730643.6874
      1718.608        1339.175
     34270.974 9     20526.38047  23747390.893    23747393.1854   23747399.1594
      -200.905        -156.549
   -386573.573 9   -292857.29747  22950540.560    22950542.3344   22950547.2574
      1406.361        1095.866
    677755.498 9    516891.58647  22846513.719    22846515.1864   22846521.1914
     -2637.196       -2054.958
 96 11 14 16 26  0.0000000  0  7  3 23 21  1  9 31 17                0.000337800
    247337.016 9    190149.46748  21665613.628    21665615.4014   21665620.4234
      -921.859        -718.332
    413273.111 9    207420.29948  22085851.235    22085852.7244   22085857.4674
     -1431.903       -1115.769
    -96483.185 9    -73268.97048  20795490.736    20795492.1084   20795496.9784
       306.523         238.849
   -517153.013 9   -384395.70648  20720869.222    20720870.7654   20720876.0934
      1703.206        1327.174
     40534.599 9     25407.08747  23748580.975    23748584.9404   23748590.8754
      -216.941        -169.045
   -428521.425 9   -325543.93347  22942558.466    22942560.0284   22942564.9744
      1389.808        1082.967
    756988.400 9    578631.44747  22861591.266    22861592.8464   22861598.8334
     -2645.187       -2061.185
 96 11 14 16 26 30.0000000  0  7  3 23 21  1  9 31 17                0.000333566
    275229.893 9    211884.16348  21670921.426    21670923.3144   21670928.2884
      -937.615        -730.609
    456261.700 9    240917.88848  22094031.784    22094033.1694   22094037.9614
     -1433.963       -1117.374
   -105609.004 9    -80379.99448  20793754.190    20793755.5364   20793760.4084
       301.926         235.267
   -568030.951 9   -424040.84548  20711187.488    20711189.0504   20711194.3224
      1688.764        1315.920
     47281.666 9     30664.49747  23749864.740    23749869.0324   23749874.5954
      -232.971        -181.536
   -469967.340 9   -357839.44747  22934671.481    22934673.0024   22934678.2224
      1373.310        1070.112
    836468.446 9    640563.90247  22876715.565    22876717.4654   22876723.4764
     -2653.413       -2067.595
 96 11 14 16 27  0.0000000  0  7  3 23 21  1  9 31 17                0.000329305
    303593.933 9    233986.00248  21676318.946    21676320.8264   21676325.7864
      -954.001        -743.377
    499303.741 9    274457.12748  22102222.374    22102223.8024   22102228.6044
     -1435.932       -1118.908
   -114606.617 9    -87391.11748  20792042.007    20792043.3364   20792048.2524
       297.403         231.743
   -618483.463 9   -463354.47748  20701586.662    20701588.2494   20701593.4994
      1674.272        1304.628
     54510.868 9     36297.63247  23751241.781    23751244.8784   23751250.1904
      -249.578        -194.476
   -510926.713 9   -389755.86347  22926877.188    22926878.7124   22926883.9174
      1356.745        1057.204
    916193.462 9    702687.23447  22891886.570    22891888.6054   22891894.7324
     -2662.013       -2074.296
 96 11 14 16 27 30.0000000  0  7  3 23 21  1  9 31 17                0.000325034
    332457.516 9    256477.09848  21681811.539    21681813.3804   21681818.3584
      -970.206        -756.005
    542404.294 9    308041.95848  22110424.012    22110425.5474   22110430.4054
     -1437.345       -1120.009
   -123473.806 9    -94300.61048  20790354.668    20790355.9984   20790360.8834
       293.841         228.967
   -668503.068 9   -502330.78548  20692068.286    20692069.8604   20692075.0994
      1660.336        1293.768
     62245.111 9     42324.27547  23752713.936    23752716.6054   23752722.0874
      -265.901        -207.196
   -551393.299 9   -421288.26747  22919176.621    22919178.1534   22919183.3924
      1340.939        1044.888
    996175.578 9    765010.90047  22907107.071    22907108.7004   22907114.8844
     -2669.820       -2080.379
 96 11 14 16 28  0.0000000  0  7  3 23 21  1  9 31 17                0.000320750
    361824.281 9    279360.27648  21687399.684    21687401.7204   21687406.7374
      -987.191        -769.240
    585559.551 9    341669.41048  22118636.341    22118637.7574   22118642.5974
     -1439.275       -1121.513
   -132219.256 9   -101115.23948  20788690.419    20788691.7644   20788696.7044
       289.534         225.611
   -718086.477 9   -540967.19648  20682632.923    20682634.4954   20682639.7354
      1645.641        1282.318
     70482.957 9     48743.36547  23754282.067    23754284.1144   23754289.5354
      -282.936        -220.470
   -591371.416 9   -452440.05447  22911569.067    22911570.6044   22911575.7784
      1324.455        1032.043
   1076396.309 9    827520.49847  22922372.727    22922374.3014   22922380.5194
     -2677.868       -2086.650
 96 11 14 16 28 30.0000000  0  7  3 23 21  1  9 31 17                0.000316454
    391699.374 9    302639.56248  21693084.824    21693086.7924   21693091.7964
     -1004.621        -782.822
    628769.755 9    375339.68348  22126858.906    22126860.4274   22126865.2984
     -1441.462       -1123.217
   -140833.004 9   -107827.24648  20787051.379    20787052.6424   20787057.6124
       284.601         221.767
   -767229.269 9   -579260.26548  20673281.285    20673282.9964   20673288.1894
      1630.363        1270.413
     79228.035 9     55557.71747  23755946.681    23755948.4954   23755953.5474
      -300.213        -233.932
   -630848.461 9   -483201.40547  22904056.859    22904058.4384   22904063.5334
      1307.190        1018.590
   1156851.210 9    890212.57747  22937682.524    22937684.3574   22937690.6524
     -2685.720       -2092.769
 96 11 14 16 29  0.0000000  0  7  3 23 21  1  9 31 17                0.000312142
    422098.037 9    326326.81848  21698869.616    21698871.5034   21698876.4734
     -1021.887        -796.276
    672039.234 9    409056.14948  22135092.737    22135094.3134   22135099.2594
     -1443.277       -1124.631
   -149305.638 9   -114429.29548  20785439.009    20785440.3554   20785445.3354
       280.152         218.300
   -815904.623 9   -617189.09848  20664018.890    20664020.3994   20664025.5814
      1614.651        1258.170
     88486.803 9     62772.32847  23757708.573    23757710.3474   23757715.7204
      -316.946        -246.971
   -669816.964 9   -513566.45447  22896641.421    22896642.9214   22896648.2074
      1290.445        1005.542
   1237535.885 9    953083.70247  22953036.103    22953038.1254   22953044.4694
     -2693.345       -2098.710
 96 11 14 16 29 30.0000000  0  7  3 23 21  1  9 31 17                0.000307803
    453002.526 9    350408.23648  21704750.748    21704752.4954   21704757.3904
     -1038.479        -809.204
    715373.236 9    442822.88448  22143339.047    22143340.5164   22143345.4744
     -1445.934       -1126.702
   -157639.346 9   -120923.08748  20783853.118    20783854.5084   20783859.5014
       275.113         214.374
   -864109.721 9   -654751.49748  20654845.528    20654847.2324   20654852.4194
      1598.870        1245.873
     98240.829 9     70372.85847  23759564.776    23759566.5624   23759572.1934
      -333.483        -259.857
   -708279.562 9   -543537.30747  22889322.279    22889323.7344   22889329.0624
      1273.531         992.362
   1318451.608 9   1016134.85947  22968433.391    22968435.9434   22968442.2314
     -2701.192       -2104.825
 96 11 14 16 30  0.0000000  0  7  3 23 21  1  9 31 17                0.000303429
    484404.540 9    374877.32848  21710726.293    21710728.1404   21710732.9964
     -1055.267        -822.286
    758797.213 9    476659.73448  22151602.406    22151603.8594   22151608.7974
     -1449.350       -1129.364
   -165804.515 9   -127285.55248  20782299.346    20782300.7524   20782305.7234
       268.733         209.402
   -911841.228 9   -691944.86448  20645762.569    20645764.2114   20645769.3894
      1582.892        1233.422
    108498.101 9     78365.57747  23761516.338    23761518.3394   23761523.8274
      -350.548        -273.154
   -746230.015 9   -573109.09847  22882100.355    22882101.9544   22882107.2644
      1255.999         978.701
   1399604.630 9   1079370.91547  22983876.690    22983878.9834   22983885.2334
     -2709.425       -2111.240
 96 11 14 16 30 30.0000000  0  7  3 23 21  1  9 31 17                0.000299015
    516300.880 9    399731.60748  21716796.228    21716797.8834   21716802.7244
     -1071.542        -834.968
    802321.076 9    510574.41748  22159884.804    22159886.2344   22159891.1434
     -1452.459       -1131.786
   -173770.323 9   -133492.66848  20780783.494    20780784.9274   20780789.9004
       262.053         204.197
   -959093.669 9   -728764.93348  20636770.558    20636772.3544   20636777.5514
      1567.002        1221.041
    119258.384 9     86750.20547  23763563.749    23763565.9394   23763571.5314
      -367.055        -286.017
   -783647.926 9   -602265.93447  22874979.873    22874981.5454   22874986.8024
      1238.234         964.858
   1481003.391 9   1142798.46947  22999366.654    22999368.7094   22999375.0264
     -2717.506       -2117.537
 96 11 14 16 31  0.0000000  0  7  3 23 21  1  9 31 17                0.000294566
    548695.784 9    424974.37248  21722960.681    21722962.4484   21722967.3484
     -1088.435        -848.131
    845941.884 9    544564.64448  22168185.603    22168187.0394   22168191.9394
     -1455.837       -1134.418
   -181528.120 9   -139537.70248  20779307.294    20779308.7084   20779313.6534
       254.760         198.514
  -1005866.632 9   -765211.38048  20627870.074    20627871.7454   20627876.9694
      1551.017        1208.585
    130517.251 9     95523.36147  23765706.361    23765708.5664   23765713.9884
      -383.708        -298.993
   -820527.431 9   -631003.20647  22867962.143    22867963.8154   22867968.8954
      1220.101         950.728
   1562658.661 9   1206425.90347  23014905.364    23014907.2274   23014913.5934
     -2726.594       -2124.619
 96 11 14 16 31 30.0000000  0  7  3 23 21  1  9 31 17                0.000290089
    581606.670 9    450619.20448  21729223.438    21729225.1654   21729230.1914
     -1105.983        -861.805
    889670.118 9    578638.57948  22176506.855    22176508.2534   22176513.1544
     -1459.539       -1137.303
   -189049.586 9   -145398.58448  20777875.981    20777877.4314   20777882.3654
       246.464         192.050
  -1052157.112 9   -801281.86948  20619061.357    20619062.9664   20619068.1684
      1534.764        1195.920
    142282.920 9    104691.44047  23767945.067    23767947.5674   23767952.7804
      -400.946        -312.425
   -856851.433 9   -659307.63247  22861050.058    22861051.6944   22861056.7484
      1201.285         936.066
   1644589.207 9   1270267.83347  23030495.838    23030498.2064   23030504.5324
     -2735.485       -2131.547
 96 11 14 16 32  0.0000000  0  7  3 23 21  1  9 31 17                0.000285582
    615042.490 9    476673.07348  21735586.059    21735587.8484   21735592.8844
     -1123.037        -875.094
    933486.365 9    612781.10448  22184844.822    22184846.2464   22184851.1454
     -1461.324       -1138.694
   -196334.012 9   -151074.76048  20776489.883    20776491.2534   20776496.1884
       239.403         186.548
  -1097966.037 9   -836977.11748  20610344.305    20610345.8114   20610351.0214
      1519.192        1183.786
    154554.565 9    114253.77247  23770280.285    23770282.7144   23770287.9794
      -416.932        -324.882
   -892619.903 9   -687179.17947  22854243.431    22854244.9944   22854250.3454
      1183.349         922.090
   1726769.319 9   1334304.23547  23046134.100    23046136.5714   23046142.9294
     -2743.168       -2137.534
 96 11 14 16 32 30.0000000  0  7  3 23 21  1  9 31 17                0.000281050
    649004.677 9    503137.10648  21742048.688    21742050.6224   21742055.6814
     -1140.891        -889.006
    977359.369 9    646967.84148  22193193.697    22193195.0294   22193199.9414
     -1463.360       -1140.281
   -203405.101 9   -156584.70748  20775144.224    20775145.6534   20775150.5714
       232.455         181.134
  -1143292.504 9   -872296.42648  20601719.094    20601720.4694   20601725.7064
      1502.897        1171.089
    167318.399 9    124199.60747  23772710.286    23772711.7944   23772717.1714
      -433.910        -338.112
   -927840.530 9   -714623.83247  22847541.008    22847542.6664   22847548.0314
      1165.054         907.834
   1809197.660 9   1398534.06747  23061820.145    23061822.0784   23061828.5564
     -2751.816       -2144.272
 96 11 14 16 33  0.0000000  0  7  3 23 21  1  9 31 17                0.000276508
    683508.472 9    530023.16648  21748614.594    21748616.5034   21748621.5354
     -1159.015        -903.129
   1021301.486 9    681208.44048  22201555.540    22201556.9454   22201561.9004
     -1466.058       -1142.383
   -210275.602 9   -161938.34848  20773836.863    20773838.2784   20773843.1304
       225.713         175.880
  -1188127.617 9   -907232.85848  20593187.118    20593188.6114   20593193.8734
      1486.297        1158.154
    180607.949 9    134555.09147  23775238.670    23775240.5834   23775245.9824
      -451.943        -352.163
   -962520.796 9   -741647.42147  22840941.628    22840943.3074   22840948.6374
      1146.991         893.759
   1891885.539 9   1462966.13347  23077554.851    23077557.1904   23077563.6164
     -2760.484       -2151.026
 96 11 14 16 33 30.0000000  0  7  3 23 21  1  9 31 17                0.000271966
    718547.603 9    557326.36848  21755282.349    21755284.2404   21755289.2014
     -1176.653        -916.872
   1065328.592 9    715515.26848  22209933.594    22209935.0184   22209940.0234
     -1468.931       -1144.621
   -216943.461 9   -167134.08348  20772568.011    20772569.4254   20772574.2984
       219.072         170.705
  -1232460.294 9   -941777.78748  20584751.128    20584752.4174   20584757.6694
      1469.435        1145.014
    194452.082 9    145342.75947  23777873.173    23777875.1574   23777880.4494
      -470.864        -366.907
   -996650.556 9   -768242.04747  22834447.074    22834448.7384   22834453.9924
      1128.386         879.262
   1974835.625 9   1527602.51347  23093339.796    23093342.1304   23093348.5554
     -2769.330       -2157.919
 96 11 14 16 34  0.0000000  0  7  3 23 21  1  9 31 17                0.000267437
    754107.948 9    585035.72048  21762049.328    21762051.1714   21762056.1874
     -1194.289        -930.615
   1109445.150 9    749891.79648  22218328.871    22218330.1624   22218335.1354
     -1472.548       -1147.440
   -223419.383 9   -172180.26148  20771335.794    20771337.1354   20771341.9634
       212.382         165.492
  -1276288.056 9   -975929.27248  20576411.082    20576412.3324   20576417.5364
      1452.114        1131.517
    208870.774 9    156578.08347  23780617.245    23780618.9024   23780624.5014
      -490.618        -382.300
  -1030223.208 9   -794402.55747  22828058.597    22828060.0784   22828065.3274
      1109.395         864.464
   2058064.924 9   1592456.46347  23109177.348    23109180.1514   23109186.5604
     -2779.723       -2166.018
 96 11 14 16 34 30.0000000  0  7  3 23 21  1  9 31 17                0.000262936
    790174.807 9    613139.74848  21768912.393    21768914.4434   21768919.5004
     -1210.987        -943.626
   1153669.257 9    784352.13248  22226744.327    22226745.7744   22226750.7344
     -1476.692       -1150.669
   -229710.830 9   -177082.69148  20770138.484    20770139.9014   20770144.7394
       206.113         160.608
  -1319609.363 9  -1009686.12348  20568167.207    20568168.5744   20568173.7534
      1435.116        1118.272
    223875.668 9    168270.26647  23783471.903    23783474.1964   23783479.5824
      -510.509        -397.799
  -1063230.465 9   -820122.50247  22821777.515    22821779.0454   22821784.2494
      1090.149         849.467
   2141602.987 9   1657551.00547  23125074.903    23125076.9734   23125083.3604
     -2790.323       -2174.278
 96 11 14 16 35  0.0000000  0  7  3 23 21  1  9 31 17                0.000258462
    826723.585 9    641619.28748  21775867.501    21775869.5194   21775874.6014
     -1225.830        -955.192
   1198008.298 9    818902.02148  22235181.760    22235183.2254   22235188.1994
     -1479.454       -1152.821
   -235826.092 9   -181847.84048  20768974.761    20768976.2164   20768981.0374
       201.224         156.798
  -1362435.712 9  -1043057.28748  20560017.735    20560018.9844   20560024.1654
      1419.697        1106.257
    239456.976 9    180411.51447  23786436.286    23786439.0574   23786444.7504
      -528.260        -411.631
  -1095668.300 9   -845398.75547  22815604.934    22815606.4194   22815611.4614
      1071.889         835.238
   2225442.587 9   1722880.51547  23141029.681    23141031.2274   23141037.5644
     -2799.199       -2181.194
 96 11 14 16 35 30.0000000  0  7  3 23 21  1  9 31 17                0.000254000
    863728.129 9    670453.96748  21782909.258    21782911.2844   21782916.3774
     -1241.462        -967.373
   1242436.647 9    853521.50048  22243636.373    22243637.6994   22243642.6784
     -1482.681       -1155.336
   -241780.177 9   -186487.38848  20767841.726    20767843.2024   20767848.0054
       195.497         152.335
  -1404790.430 9  -1076060.94748  20551957.656    20551959.1624   20551964.3334
      1403.690        1093.784
    255571.302 9    192968.14547  23789503.213    23789505.7484   23789511.0324
      -546.048        -425.492
  -1127534.140 9   -870229.26547  22809540.946    22809542.4894   22809547.7314
      1052.283         819.961
   2309560.603 9   1788426.96047  23157037.677    23157038.4064   23157044.7904
     -2808.735       -2188.625
 96 11 14 16 36  0.0000000  0  7  3 23 21  1  9 31 17                0.000249555
    901216.544 9    699665.69948  21790043.048    21790045.0814   21790050.1464
     -1257.934        -980.208
   1286974.929 9    888226.64148  22252111.629    22252113.0744   22252118.0264
     -1486.598       -1158.388
   -247554.149 9   -190986.59048  20766743.068    20766744.4884   20766749.1974
       189.307         147.512
  -1446651.654 9  -1108680.06248  20543991.831    20543993.2204   20543998.3974
      1386.749        1080.584
    272217.727 9    205939.38847  23792670.018    23792673.3324   23792678.4884
      -563.783        -439.311
  -1158806.539 9   -894597.37347  22803589.932    22803591.5124   22803596.8804
      1032.496         804.542
   2393970.370 9   1854200.75147  23173099.945    23173101.1814   23173107.4394
     -2818.506       -2196.238
 96 11 14 16 36 30.0000000  0  7  3 23 21  1  9 31 17                0.000245113
    939189.672 9    729255.12648  21797269.160    21797271.1634   21797276.2224
     -1274.800        -993.351
   1331613.891 9    923010.23348  22260606.226    22260607.5814   22260612.5404
     -1490.341       -1161.305
   -253155.215 9   -195351.05748  20765677.175    20765678.6134   20765683.3634
       183.022         142.615
  -1488007.524 9  -1140905.39748  20536121.867    20536123.4724   20536128.6614
      1369.339        1067.017
    289377.644 9    219310.77047  23795935.855    23795939.0134   23795944.0664
      -581.270        -452.938
  -1189500.654 9   -918514.87247  22797749.131    22797750.5624   22797755.9394
      1012.753         789.158
   2478641.163 9   1920177.93347  23189212.594    23189213.6324   23189219.7404
     -2827.054       -2202.899
 96 11 14 16 37  0.0000000  0  7  3 23 21  1  9 31 17                0.000240668
    977684.087 9    759250.75248  21804594.414    21804596.4014   21804601.4544
     -1291.739       -1006.550
   1376370.565 9    957885.54548  22269123.182    22269124.5374   22269129.4504
     -1493.609       -1163.851
   -258557.229 9   -199560.41948  20764649.238    20764650.6194   20764655.3974
       176.862         137.815
  -1528832.156 9  -1172716.77848  20528353.478    20528354.8364   20528360.0074
      1352.074        1053.564
    307068.822 9    233096.09947  23799302.633    23799305.4304   23799310.5304
      -598.406        -466.290
  -1219598.531 9   -941967.75747  22792021.679    22792023.0924   22792028.6404
       993.639         774.264
   2563559.202 9   1986347.77647  23205371.526    23205373.0994   23205379.1514
     -2834.304       -2208.549
 96 11 14 16 37 30.0000000  0  7  3 23 21  1  9 31 17                0.000236203
   1016693.372 9    789647.56948  21812017.627    21812019.5944   21812024.6494
     -1309.547       -1020.426
   1421228.867 9    992840.04348  22277659.459    22277660.8514   22277665.7084
     -1497.632       -1166.986
   -263763.639 9   -203617.37048  20763658.484    20763659.8634   20763664.6434
       169.521         132.094
  -1569128.510 9  -1204116.52248  20520685.416    20520686.7084   20520691.8604
      1333.653        1039.210
    325281.627 9    247287.93547  23802768.548    23802771.3604   23802776.3024
      -616.458        -480.357
  -1249121.746 9   -964972.86547  22786403.460    22786404.9194   22786410.5564
       974.005         758.965
   2648692.231 9   2052685.14547  23221571.052    23221573.4304   23221579.4984
     -2842.006       -2214.550
 96 11 14 16 38  0.0000000  0  7  3 23 21  1  9 31 17                0.000231719
   1056230.002 9    820455.31448  21819541.115    21819543.2044   21819548.2344
     -1326.825       -1033.890
   1466207.400 9   1027888.23648  22286218.574    22286220.0064   22286224.8274
     -1501.378       -1169.905
   -268757.249 9   -207508.49548  20762708.138    20762709.6124   20762714.4284
       162.671         126.757
  -1608872.941 9  -1235086.18448  20513122.486    20513123.5434   20513128.7264
      1315.422        1025.004
    344033.785 9    261900.03247  23806337.366    23806339.9024   23806344.7494
      -634.363        -494.309
  -1278073.261 9   -987532.49347  22780894.216    22780895.7074   22780901.1384
       955.399         744.467
   2734055.456 9   2119201.88247  23237815.427    23237817.5384   23237823.6794
     -2849.430       -2220.335
 96 11 14 16 38 30.0000000  0  7  3 23 21  1  9 31 17                0.000227218
   1096293.177 9    851673.34948  21827165.085    21827167.0534   21827172.0834
     -1344.003       -1047.275
   1511293.776 9   1063020.44548  22294798.265    22294799.6694   22294804.5064
     -1504.213       -1172.114
   -273539.919 9   -211235.25348  20761798.097    20761799.4934   20761804.3084
       156.100         121.636
  -1648069.552 9  -1265628.98448  20505663.506    20505664.6554   20505669.8524
      1297.959        1011.397
    363332.089 9    276937.70147  23810009.735    23810012.1994   23810017.0224
      -652.078        -508.113
  -1306457.009 9  -1009649.71847  22775493.096    22775494.5614   22775499.7424
       936.751         729.936
   2819644.502 9   2185894.57746  23254103.412    23254104.6714   23254110.8364
     -2856.572       -2225.900
 96 11 14 16 39  0.0000000  0  7  3 23 21  1  9 31 17                0.000222699
   1136873.239 9    883294.15648  21834887.378    21834889.1954   21834894.2174
     -1361.261       -1060.723
   1556467.538 9   1098220.75548  22303394.351    22303395.9894   22303400.8474
     -1507.395       -1174.593
   -278108.560 9   -214795.23448  20760928.729    20760930.1104   20760934.9254
       148.452         115.677
  -1686743.035 9  -1295764.15048  20498304.251    20498305.3624   20498310.5174
      1280.182         997.544
    383164.744 9    292391.74347  23813783.934    23813786.0314   23813791.0604
      -670.226        -522.254
  -1334273.106 9  -1031324.61947  22770200.032    22770201.5144   22770206.3734
       917.600         715.013
   2905466.158 9   2252768.52746  23270434.805    23270435.9764   23270442.2544
     -2865.145       -2232.581
 96 11 14 16 39 30.0000000  0  7  3 23 21  1  9 31 17                0.000218170
   1177962.154 9    915311.46948  21842706.420    21842708.1774   21842713.1784
     -1378.085       -1073.832
   1601728.152 9   1133488.73448  22312007.199    22312008.8174   22312013.6994
     -1510.087       -1176.691
   -282458.780 9   -218185.01648  20760100.874    20760102.2914   20760107.1234
       141.519         110.275
  -1724892.985 9  -1325491.37148  20491044.501    20491045.6454   20491050.8184
      1263.280         984.374
    403539.557 9    308268.24047  23817661.671    23817663.1934   23817668.3454
      -688.121        -536.198
  -1361524.924 9  -1052559.81747  22765014.436    22765015.8114   22765020.5674
       899.018         700.534
   2991548.812 9   2319845.86646  23286815.178    23286816.8804   23286823.3244
     -2873.765       -2239.297
 96 11 14 16 40  0.0000000  0  8 25  3 23 21  1  9 31 17             0.000213644
   -282291.60618   -197261.67954  25238991.524           0.0005          0.0005
      3411.655        2658.432
   1219563.136 9    947727.80848  21850622.665    21850624.4764   21850629.5364
     -1395.561       -1087.450
   1647068.283 9   1168818.68148  22320635.391    22320636.7944   22320641.6574
     -1512.769       -1178.781
   -286601.536 9   -221413.13348  20759312.574    20759313.9704   20759318.7914
       134.314         104.660
  -1762539.151 9  -1354826.03148  20483880.540    20483881.7904   20483886.9934
      1246.233         971.091
    424457.270 9    324567.79247  23821641.746    23821643.6514   23821648.8634
      -706.694        -550.671
  -1388216.019 9  -1073358.09047  22759935.327    22759936.6994   22759941.3494
       880.027         685.735
   3077896.524 9   2387129.74046  23303246.873    23303248.3364   23303254.7574
     -2882.905       -2246.419
 96 11 14 16 40 30.0000000  0  8 25  3 23 21  1  9 31 17             0.000209123
   -384713.058 8    -32666.75452  25219521.921           0.0005          0.0005
      3415.223        2661.213
   1261669.193 9    980537.70248  21858635.371    21858637.0144   21858642.0164
     -1412.660       -1100.774
   1692465.680 9   1204193.24948  22329274.002    22329275.6204   22329280.5114
     -1515.197       -1180.673
   -290549.877 9   -224489.75848  20758561.318    20758562.6654   20758567.4794
       127.543          99.384
  -1799702.967 9  -1383784.83248  20476808.489    20476809.6804   20476814.9514
      1230.084         958.507
    445912.105 9    341285.87247  23825725.067    23825726.2404   23825731.4704
      -724.981        -564.920
  -1414354.601 9  -1093725.82347  22754961.286    22754962.6934   22754967.4784
       861.169         671.041
   3164496.292 9   2454610.02146  23319727.192    23319727.8064   23319734.1684
     -2891.767       -2253.325
 96 11 14 16 41  0.0000000  0  8 25  3 23 21  1  9 31 17             0.000204613
   -487251.850 8   -112566.30054  25200002.529           0.0004          0.0005
      3420.293        2665.163
   1304281.316 9   1013741.93248  21866743.861    21866745.8424   21866750.8804
     -1428.663       -1113.244
   1737952.785 9   1239637.72248  22337929.795    22337931.5084   22337936.4174
     -1517.968       -1182.832
   -294287.337 9   -227402.05848  20757849.962    20757851.4044   20757856.2754
       121.214          94.452
  -1836383.238 9  -1412366.85348  20469828.444    20469829.6564   20469834.8824
      1214.669         946.495
    467923.942 9    358437.96847  23829913.669    23829914.8464   23829920.1384
      -742.965        -578.934
  -1439935.113 9  -1113658.68547  22750093.441    22750094.8934   22750099.7874
       843.584         657.338
   3251366.441 9   2522300.99746  23336257.145    23336258.6464   23336265.0524
     -2899.914       -2259.673
 96 11 14 16 41 30.0000000  0  8 25  3 23 21  1  9 31 17             0.000200129
   -589923.674 8   -192569.05154  25180461.970           0.0004          0.0005
      3424.976        2668.812
   1347412.346 9   1047350.51748  21874951.607    21874953.4464   21874958.4754
     -1446.367       -1127.039
   1783561.434 9   1275176.89748  22346609.108    22346610.5934   22346615.4784
     -1522.265       -1186.181
   -297805.649 9   -230143.60148  20757180.440    20757181.8854   20757186.7764
       113.674          88.577
  -1872572.999 9  -1440566.65748  20462941.634    20462942.9724   20462948.1764
      1198.321         933.757
    490508.042 9    376036.00447  23834210.693    23834212.4774   23834217.6824
      -762.061        -593.814
  -1464952.998 9  -1133153.15047  22745332.777    22745334.1914   22745339.0384
       824.407         642.395
   3338502.013 9   2590198.79446  23352838.424    23352840.0764   23352846.5364
     -2908.794       -2266.593
 96 11 14 16 42  0.0000000  0  8 25  3 23 21  1  9 31 17             0.000195663
   -692748.434 8    -26133.42952  25160893.669           0.0005          0.0005
      3429.824        2672.590
   1391056.430 9   1081358.87648  21883256.804    21883258.6634   21883263.7084
     -1463.142       -1140.111
   1829283.376 9   1310804.36248  22355309.859    22355311.2374   22355316.0994
     -1525.928       -1189.035
   -301109.404 9   -232717.95648  20756551.829    20756553.2034   20756558.1384
       106.526          83.007
  -1908279.387 9  -1468389.80248  20456146.950    20456148.2264   20456153.4704
      1181.966         921.012
    513642.458 9    394062.85947  23838612.704    23838614.6934   23838619.8714
      -780.335        -608.053
  -1489403.562 9  -1152205.54647  22740679.940    22740681.3794   22740686.1654
       805.474         627.642
   3425894.789 9   2658297.02746  23369468.418    23369470.4394   23369476.8984
     -2917.553       -2273.418
 96 11 14 16 42 30.0000000  0  8 25  3 23 21  1  9 31 17             0.000191208
   -795731.659 8   -106380.81555  25141295.737           0.0004          0.0005
      3435.770        2677.223
   1435180.532 9   1115741.27548  21891653.344    21891655.1794   21891660.2434
     -1478.273       -1151.901
   1875114.624 9   1346516.99848  22364031.094    22364032.6634   22364037.5494
     -1529.350       -1191.701
   -304213.730 9   -235136.91648  20755961.080    20755962.4844   20755967.4134
       100.538          78.341
  -1943507.825 9  -1495840.51848  20449443.008    20449444.4644   20449449.7134
      1166.504         908.964
    537308.746 9    412504.15847  23843116.432    23843118.3564   23843123.5384
      -797.289        -621.264
  -1513292.663 9  -1170820.43547  22736133.881    22736135.3834   22736140.1334
       787.282         613.466
   3513538.296 9   2726590.61646  23386146.612    23386148.4944   23386154.8774
     -2925.100       -2279.299
 96 11 14 16 43  0.0000000  0  8 25  3 23 21  1  9 31 17             0.000186754
   -898849.812 8   -186732.40855  25121672.494           0.0004   25121677.8795
      3439.432        2680.077
   1479780.555 9   1150494.52548  21900140.409    21900142.2704   21900147.3624
     -1494.248       -1164.349
   1921075.362 9   1382330.52948  22372777.338    22372778.7594   22372783.6444
     -1533.747       -1195.128
   -307112.068 9   -237395.36248  20755409.564    20755410.9874   20755415.9374
        93.686          73.002
  -1978232.221 9  -1522898.47448  20442835.138    20442836.6514   20442841.8964
      1149.264         895.530
    561508.184 9    431360.87747  23847720.943    23847723.0854   23847728.6004
      -815.072        -635.121
  -1536611.674 9  -1188991.09247  22731696.356    22731697.9534   22731702.6984
       767.978         598.424
   3601426.220 9   2795074.65746  23402871.636    23402873.0684   23402879.3534
     -2933.297       -2285.686
 96 11 14 16 43 30.0000000  0  8 25  3 23 21  1  9 31 17             0.000182292
  -1002081.532 8   -267172.58345  25102027.949    25102029.0225   25102036.5994
      3442.520        2682.483
   1524841.688 9   1185607.07448  21908715.213    21908717.1544   21908722.2564
     -1509.845       -1176.503
   1967136.665 9   1418222.42748  22381542.624    22381543.9964   22381548.8524
     -1537.174       -1197.798
   -309828.590 9   -239512.13848  20754892.776    20754894.0924   20754899.0294
        87.328          68.048
  -2012455.388 9  -1549565.86648  20436322.615    20436324.2134   20436329.4344
      1132.072         882.134
    586217.316 9    450614.78947  23852421.993    23852425.1114   23852430.5364
      -832.278        -648.528
  -1559356.813 9  -1206714.57247  22727368.088    22727369.6474   22727374.3194
       748.186         583.002
   3689547.042 9   2863740.17746  23419639.728    23419641.9044   23419648.3284
     -2941.734       -2292.260
 96 11 14 16 44  0.0000000  0  8 25  3 23 21  1  9 31 17             0.000177834
  -1105400.937 8   -347681.16555  25082367.008    25082367.2654   25082374.7625
      3445.470        2684.782
   1570357.943 9   1221074.26148  21917376.623    21917378.6374   21917383.7244
     -1524.490       -1187.914
   2013298.785 9   1454192.87848  22390326.918    22390328.3684   22390333.2194
     -1540.209       -1200.163
   -312364.043 9   -241487.82448  20754410.259    20754411.6114   20754416.5464
        81.804          63.743
  -2046161.725 9  -1575830.52548  20429908.577    20429910.0884   20429915.3604
      1115.173         868.966
    611441.696 9    470270.16347  23857221.806    23857225.0394   23857230.4924
      -849.483        -661.935
  -1581511.170 9  -1223977.70747  22723152.238    22723153.7954   22723158.6844
       728.932         567.999
   3777923.462 9   2932604.86546  23436457.567    23436459.5244   23436465.8954
     -2949.775       -2298.526
 96 11 14 16 44 30.0000000  0  8 25  3 23 21  1  9 31 17             0.000173375
  -1208805.425 8   -428255.95845  25062689.551    25062689.7985   25062697.2724
      3448.392        2687.059
   1616318.298 9   1256887.51348  21926122.701    21926124.5984   21926129.6674
     -1539.599       -1199.688
   2059560.630 9   1490241.04548  22399130.234    22399131.7464   22399136.5764
     -1543.813       -1202.971
   -314728.779 9   -243330.48948  20753960.357    20753961.6564   20753966.5924
        75.759          59.033
  -2079351.339 9  -1601692.54348  20423592.827    20423594.3294   20423599.5534
      1097.503         855.197
    637192.059 9    490335.41147  23862122.410    23862125.0714   23862130.4264
      -867.128        -675.684
  -1603084.829 9  -1240788.35247  22719046.847    22719048.4124   22719053.5484
       709.394         552.774
   3866539.922 9   3001656.59346  23453321.160    23453322.8124   23453329.1464
     -2957.895       -2304.853
 96 11 14 16 45  0.0000000  0  8 25  3 23 21  1  9 31 17             0.000168907
  -1312305.146 8   -508904.99745  25042994.369    25042995.1284   25043001.8974
      3451.010        2689.099
   1662732.288 9   1293054.23948  21934955.005    21934956.9104   21934961.9904
     -1555.341       -1211.954
   2105914.316 9   1526360.77248  22407951.320    22407952.6174   22407957.4344
     -1547.017       -1205.468
   -316914.403 9   -245033.58248  20753544.468    20753545.7644   20753550.7194
        69.174          53.902
  -2112014.742 9  -1627144.52648  20417377.120    20417378.6734   20417383.8694
      1079.580         841.231
    663466.251 9    510808.81547  23867121.769    23867124.8214   23867130.3204
      -885.226        -689.786
  -1624081.363 9  -1257149.28647  22715051.390    22715052.8864   22715058.1494
       689.476         537.254
   3955398.001 9   3070896.59846  23470230.565    23470231.9974   23470238.3494
     -2966.855       -2311.835
 96 11 14 16 45 30.0000000  0  8 25  3 23 21  1  9 31 17             0.000164454
  -1415903.479 8   -589630.87045  25023279.695    25023280.7384   25023287.8094
      3455.262        2692.412
   1709623.498 9   1329592.81948  21943878.105    21943880.0714   21943885.0934
     -1570.944       -1224.112
   2152362.950 9   1562554.48948  22416790.105    22416791.5264   22416796.3724
     -1549.873       -1207.693
   -318888.950 9   -246572.20748  20753168.704    20753170.0264   20753174.9904
        62.063          48.361
  -2144140.036 9  -1652177.20148  20411263.694    20411265.4244   20411270.6094
      1061.750         827.338
    690290.666 9    531710.95746  23872226.737    23872229.3444   23872234.7984
      -903.200        -703.792
  -1644472.164 9  -1273038.23747  22711171.116    22711172.5134   22711177.8654
       669.688         521.835
   4044534.404 9   3140353.45646  23487193.578    23487194.2124   23487200.5114
     -2975.717       -2318.741
 96 11 14 16 46  0.0000000  0  8 25  3 23 21  1  9 31 17             0.000159991
  -1519626.568 8   -670453.97445  25003541.693    25003542.8994   25003549.9494
      3459.404        2695.639
   1756990.121 9   1366501.85648  21952891.759    21952893.6224   21952898.7154
     -1587.065       -1236.674
   2198909.143 9   1598824.23148  22425647.482    22425648.9924   22425653.9004
     -1553.260       -1210.332
   -320634.952 9   -247932.74348  20752836.391    20752837.7874   20752842.7384
        54.154          42.198
  -2175715.126 9  -1676781.15348  20405255.273    20405256.9054   20405262.0774
      1043.228         812.905
    717654.882 9    553033.72247  23877433.075    23877436.5344   23877441.9514
      -921.240        -717.849
  -1664270.244 9  -1288465.32347  22707403.600    22707405.0204   22707410.4454
       650.049         506.532
   4133935.220 9   3210016.37446  23504205.545    23504206.7134   23504213.0234
     -2984.306       -2325.433
 96 11 14 16 46 30.0000000  0  8 25  3 23 21  1  9 31 17             0.000155517
  -1623475.198 8   -751374.92046  24983781.214    24983781.1314   24983788.1234
      3463.759        2699.033
   1804847.299 9   1403793.13448  21961998.495    21962000.4904   21962005.6524
     -1603.460       -1249.449
   2245553.234 9   1635170.25148  22434523.770    22434525.0544   22434530.0254
     -1556.438       -1212.809
   -322133.557 9   -249100.50848  20752551.261    20752552.5854   20752557.5434
        45.745          35.645
  -2206728.889 9  -1700947.70748  20399353.376    20399355.1404   20399360.3164
      1024.455         798.277
    745557.371 9    574775.90246  23882743.915    23882746.4524   23882751.7324
      -938.808        -731.539
  -1683478.860 9  -1303433.07947  22703748.081    22703749.6234   22703755.1774
       630.362         491.191
   4223589.917 9   3279877.12146  23521266.364    23521267.4674   23521273.9004
     -2992.646       -2331.932
 96 11 14 16 47  0.0000000  0  8 25  3 23 21  1  9 31 17             0.000151027
  -1727454.917 8   -832397.99346  24963993.116    24963994.3814   24964001.3444
      3467.531        2701.972
   1853198.261 9   1441469.19048  21971199.416    21971201.4064   21971206.5364
     -1620.319       -1262.586
   2292285.462 9   1671584.95448  22443416.428    22443417.8884   22443422.9374
     -1559.623       -1215.291
   -323382.594 9   -250073.79648  20752313.599    20752314.9054   20752319.8464
        37.130          28.932
  -2237198.678 9  -1724690.38148  20393555.290    20393556.9214   20393562.1204
      1006.478         784.269
    773978.206 9    596922.00046  23888151.596    23888154.6794   23888159.8374
      -956.417        -745.260
  -1702099.695 9  -1317942.83047  22700204.942    22700206.4094   22700211.8154
       610.475         475.695
   4313492.297 9   3349930.87446  23538373.767    23538375.3984   23538381.7394
     -3001.212       -2338.607
 96 11 14 16 47 30.0000000  0  8 25  3 23 21  1  9 31 17             0.000146536
  -1831548.403 9   -913509.74346  24944185.294    24944186.1544   24944193.0564
      3471.727        2705.242
   1902046.626 9   1479532.83548  21980494.819    21980496.9904   21980502.0884
     -1636.279       -1275.023
   2339116.510 9   1708076.66448  22452328.226    22452329.5904   22452334.6224
     -1562.677       -1217.670
   -324378.045 9   -250849.48748  20752124.120    20752125.4584   20752130.4244
        29.270          22.808
  -2267138.712 9  -1748020.26248  20387858.196    20387859.5694   20387864.7834
       989.451         771.001
    802921.887 9    619475.47846  23893659.608    23893662.5184   23893667.7154
      -973.098        -758.258
  -1720128.039 9  -1331990.89147  22696774.461    22696775.8114   22696781.1924
       591.451         460.871
   4403637.369 9   3420173.73246  23555528.524    23555529.6714   23555535.7794
     -3008.588       -2344.354
 96 11 14 16 48  0.0000000  0  8 25  3 23 21  1  9 31 17             0.000142040
  -1935750.753 8   -994706.33646  24924355.143    24924357.0174   24924364.0004
      3474.756        2707.602
   1951375.218 9   1517970.67348  21989881.947    21989883.9284   21989888.9714
     -1652.485       -1287.651
   2386047.232 9   1744646.04548  22461258.947    22461260.2564   22461265.2514
     -1566.229       -1220.438
   -325147.447 9   -251449.03648  20751977.757    20751979.0604   20751984.0344
        21.986          17.132
  -2296574.883 9  -1770957.51548  20382256.335    20382257.9874   20382263.2884
       972.820         758.042
    832368.828 9    642421.10846  23899263.473    23899266.0634   23899271.2554
      -990.485        -771.806
  -1737593.242 9  -1345600.11747  22693450.829    22693452.2374   22693457.6794
       572.601         446.183
   4494014.325 9   3490597.28246  23572726.765    23572727.8484   23572733.9784
     -3016.832       -2350.778
 96 11 14 16 48 30.0000000  0  8 25  3 23 21  1  9 31 17             0.000137559
  -2040043.833 9  -1075973.63346  24904509.229    24904510.7004   24904517.7404
      3477.676        2709.877
   2001178.274 9   1556778.23848  21999358.953    21999361.1594   21999366.2364
     -1668.006       -1299.745
   2433075.672 9   1781291.55948  22470208.162    22470209.4734   22470214.4694
     -1569.419       -1222.924
   -325720.856 9   -251895.86248  20751868.606    20751869.9074   20751874.9654
        15.825          12.331
  -2325530.299 9  -1793520.16648  20376746.090    20376747.9664   20376753.2184
       957.146         745.828
    862340.742 9    665775.83146  23904966.888    23904969.4404   23904974.7624
     -1008.066        -785.506
  -1754496.755 9  -1358771.70847  22690234.199    22690235.6224   22690240.9854
       553.800         431.532
   4584632.306 9   3561208.64146  23589970.174    23589971.8644   23589978.1114
     -3024.804       -2356.990
 96 11 14 16 49  0.0000000  0  8 25  3 23 21  1  9 31 17             0.000133113
  -2144409.545 9  -1157297.55246  24884648.276    24884650.4964   24884657.5574
      3480.631        2712.180
   2051449.790 9   1595950.83048  22008925.496    22008927.6204   22008932.5974
     -1682.663       -1311.166
   2480210.147 9   1818019.71448  22479177.429    22479178.8594   22479183.8674
     -1572.342       -1225.202
   -326100.269 9   -252191.52848  20751796.422    20751797.7074   20751802.8074
        10.076           7.851
  -2354011.391 9  -1815713.21248  20371326.504    20371328.1824   20371333.4244
       941.954         733.990
    892865.997 9    689561.70147  23910776.965    23910778.2254   23910783.6984
     -1026.392        -799.786
  -1770833.979 9  -1371502.03247  22687125.344    22687126.8374   22687132.0884
       535.882         417.570
   4675503.394 9   3632017.22546  23607262.932    23607264.0794   23607270.3734
     -3032.677       -2363.125
 96 11 14 16 49 30.0000000  0  8 25  3 23 21  1  9 31 17             0.000128682
  -2248868.041 9  -1238693.72946  24864770.427    24864772.6684   24864779.7464
      3483.358        2714.305
   2102149.339 9   1635456.94248  22018573.420    22018575.4694   22018580.4314
     -1697.203       -1322.496
   2527439.287 9   1854821.62348  22488164.673    22488166.2084   22488171.2304
     -1576.025       -1228.071
   -326309.280 9   -252354.41048  20751756.661    20751757.9554   20751763.0604
         3.991           3.110
  -2382026.626 9  -1837543.25848  20365995.590    20365997.0584   20366002.3084
       925.706         721.329
    923943.848 9    713778.20747  23916690.754    23916692.0994   23916697.7574
     -1045.334        -814.546
  -1786628.745 9  -1383809.65247  22684119.705    22684121.1724   22684126.4824
       517.258         403.058
   4766616.476 9   3703014.37146  23624601.487    23624602.3594   23624608.5804
     -3041.423       -2369.940
 96 11 14 16 50  0.0000000  0  8 25  3 23 21  1  9 31 17             0.000124272
  -2353409.481 9  -1320154.60246  24844876.302    24844879.0964   24844886.0964
      3486.327        2716.618
   2153279.840 9   1675298.87348  22028303.443    22028305.2934   22028310.2384
     -1711.281       -1333.466
   2574769.780 9   1891702.51048  22497171.569    22497172.8894   22497177.9304
     -1578.970       -1230.366
   -326346.873 9   -252383.71248  20751749.444    20751750.8344   20751755.8964
        -1.276          -0.994
  -2409551.814 9  -1858991.45248  20360757.945    20360759.2624   20360764.4494
       909.577         708.761
    955595.139 9    738441.52746  23922712.990    23922715.0494   23922720.7754
     -1064.388        -829.393
  -1801868.546 9  -1395684.82047  22681219.772    22681221.2244   22681226.4604
       498.910         388.761
   4857984.351 9   3774210.05846  23641987.370    23641989.0974   23641995.2424
     -3049.311       -2376.086
 96 11 14 16 50 30.0000000  0  8 25  3 23 21  1  9 31 17             0.000119896
  -2458049.738 9  -1401692.50846  24824965.029    24824966.7764   24824973.5274
      3489.674        2719.226
   2204834.754 9   1715471.51548  22038114.218    22038115.9034   22038120.8384
     -1725.863       -1344.828
   2622182.358 9   1928647.36448  22506194.144    22506195.2294   22506200.2794
     -1581.883       -1232.636
   -326217.102 9   -252282.60348  20751774.224    20751775.5664   20751780.5994
        -7.711          -6.009
  -2436587.363 9  -1880058.10648  20355613.025    20355614.5664   20355619.7304
       892.629         695.555
    987805.841 9    763540.76047  23928842.958    23928844.5874   23928850.3054
     -1082.940        -843.849
  -1816551.205 9  -1407125.85647  22678425.803    22678427.2724   22678432.3734
       479.864         373.920
   4949576.282 9   3845580.33446  23659417.325    23659418.3104   23659424.7014
     -3056.841       -2381.954
 96 11 14 16 51  0.0000000  0  8 25  3 23 21  1  9 31 17             0.000115480
  -2562797.031 9  -1483313.75546  24805031.584    24805034.0094   24805040.7534
      3493.476        2722.189
   2256825.901 9   1755984.08348  22048007.778    22048009.4854   22048014.3794
     -1740.184       -1355.987
   2669681.234 9   1965659.46448  22515232.599    22515233.9884   22515239.0524
     -1584.764       -1234.881
   -325889.171 9   -252027.07848  20751836.555    20751837.9624   20751843.0094
       -14.069         -10.963
  -2463108.738 9  -1900724.10048  20350566.342    20350567.6544   20350572.9104
       875.407         682.135
   1020560.919 9    789064.19247  23935076.316    23935077.8914   23935083.4224
     -1100.524        -857.551
  -1830666.056 9  -1418124.46147  22675739.875    22675741.2704   22675746.4724
       461.047         359.257
   5041391.041 9   3917124.24146  23676887.978    23676890.0724   23676896.6094
     -3064.065       -2387.583
 96 11 14 16 51 30.0000000  0  8 25  3 23 21  1  9 31 17             0.000111054
  -2667653.952 9  -1565020.44546  24785078.179    24785080.3374   24785087.2794
      3496.623        2724.641
   2309250.050 9   1796834.05948  22057983.626    22057985.4324   22057990.4064
     -1755.092       -1367.604
   2717271.341 9   2002742.66048  22524288.801    22524290.1384   22524295.1754
     -1587.891       -1237.318
   -325370.967 9   -251623.28848  20751935.261    20751936.6104   20751941.6084
       -20.725         -16.149
  -2489108.336 9  -1920983.52548  20345618.873    20345620.1444   20345625.3634
       857.770         668.392
   1053824.664 9    814984.01747  23941406.132    23941407.7744   23941413.2784
     -1117.194        -870.541
  -1844202.809 9  -1428672.59247  22673163.839    22673165.2144   22673170.5054
       441.215         343.804
   5133415.589 9   3988831.61246  23694399.957    23694401.8124   23694408.4264
     -3070.889       -2392.901
 96 11 14 16 52  0.0000000  0  8 25  3 23 21  1  9 31 17             0.000106628
  -2772573.907 9  -1646776.28546  24765113.229    24765114.7434   24765121.5734
      3498.633        2726.207
   2362151.853 9   1838056.21048  22068050.381    22068052.3534   22068057.4014
     -1771.064       -1380.050
   2764971.684 9   2039911.75748  22533366.028    22533367.2644   22533372.2544
     -1591.611       -1240.216
   -324628.286 9   -251044.58148  20752076.591    20752077.9194   20752082.9154
       -28.290         -22.044
  -2514553.005 9  -1940810.53248  20340776.784    20340778.1614   20340783.3724
       839.158         653.889
   1087602.370 9    841304.32947  23947833.598    23947835.5134   23947840.9694
     -1133.917        -883.572
  -1857127.359 9  -1438743.69047  22670704.394    22670705.7414   22670711.0894
       420.889         327.965
   5225656.468 9   4060707.55346  23711952.275    23711954.6794   23711961.3084
     -3077.946       -2398.399
 96 11 14 16 52 30.0000000  0  8 25  3 23 21  1  9 31 17             0.000102185
  -2877571.576 9  -1728592.66146  24745132.638    24745134.3874   24745141.0834
      3500.829        2727.919
   2415509.425 9   1879633.52648  22078203.771    22078205.9174   22078211.0784
     -1786.223       -1391.862
   2812771.248 9   2077158.15848  22542462.064    22542463.2364   22542468.1624
     -1595.351       -1243.131
   -323667.206 9   -250295.69048  20752259.550    20752260.8254   20752265.7604
       -36.050         -28.091
  -2539454.834 9  -1960214.54948  20336038.284    20336039.5334   20336044.6674
       820.826         639.605
   1121859.079 9    867997.86947  23954352.824    23954354.4134   23954359.8944
     -1150.204        -896.263
  -1869455.215 9  -1448349.81247  22668358.581    22668359.8994   22668365.2414
       400.603         312.158
   5318090.330 9   4132733.85646  23729541.534    23729544.3374   23729550.9944
     -3084.654       -2403.626
 96 11 14 16 53  0.0000000  0  8 25  3 23 21  1  9 31 17             0.000097744
  -2982618.391 9  -1810447.35746  24725142.417    24725144.6794   24725151.3004
      3502.355        2729.108
   2469317.462 9   1921561.84048  22088443.155    22088445.2414   22088450.4574
     -1800.828       -1403.243
   2860698.562 9   2114504.10048  22551582.181    22551583.5154   22551588.4354
     -1599.781       -1246.582
   -322470.883 9   -249363.49448  20752487.155    20752488.4614   20752493.3994
       -43.585         -33.962
  -2563805.089 9  -1979188.76248  20331404.385    20331405.8574   20331410.9734
       802.803         625.561
   1156616.853 9    895081.87647  23960967.343    23960968.7144   23960974.0354
     -1166.944        -909.307
  -1881162.341 9  -1457472.27647  22666130.868    22666132.2074   22666137.5054
       379.946         296.062
   5410734.575 9   4204924.11046  23747170.864    23747174.1194   23747180.7744
     -3091.504       -2408.964
 96 11 14 16 53 30.0000000  0  8 25  3 23 21  1  9 31 17             0.000093298
  -3087729.680 9  -1892352.23846  24705140.507    24705142.5834   24705149.2974
      3504.999        2731.168
   2523535.691 9   1963809.77848  22098760.526    22098762.6204   22098767.9094
     -1814.033       -1413.532
   2908729.882 9   2151931.08148  22560722.185    22560723.6104   22560728.4854
     -1602.401       -1248.624
   -321063.759 9   -248267.04148  20752754.957    20752756.2584   20752761.1734
       -50.476         -39.332
  -2587649.130 9  -1997768.52548  20326866.800    20326868.4714   20326873.5744
       786.708         613.019
   1191854.449 9    922539.74746  23967673.599    23967674.1984   23967679.4474
     -1182.646        -921.542
  -1892274.397 9  -1466131.02947  22664016.394    22664017.7064   22664022.9434
       360.814         281.154
   5503564.190 9   4277258.80146  23764836.132    23764839.0644   23764845.8754
     -3097.409       -2413.565
 96 11 14 16 54  0.0000000  0  8 25  3 23 21  1  9 31 17             0.000088848
  -3192911.728 9  -1974312.21646  24685124.144    24685126.9814   24685133.9454
      3507.521        2733.133
   2578165.720 9   2006378.60448  22109156.357    22109158.3724   22109163.6724
     -1827.567       -1424.078
   2956859.867 9   2189434.94848  22569881.089    22569882.4584   22569887.3434
     -1606.198       -1251.583
   -319432.059 9   -246995.58648  20753065.369    20753066.7544   20753071.6784
       -58.062         -45.243
  -2610999.690 9  -2015963.75448  20322423.761    20322425.0804   20322430.0854
       770.251         600.196
   1227592.924 9    950387.92646  23974473.975    23974474.9774   23974480.2014
     -1199.814        -934.920
  -1902809.635 9  -1474340.32747  22662011.634    22662013.0404   22662018.1764
       341.567         266.156
   5596597.953 9   4349752.56946  23782539.958    23782542.8384   23782549.7114
     -3104.738       -2419.276
 96 11 14 16 54 30.0000000  0  8 25  3 23 21  1  9 31 17             0.000084415
  -3298170.348 9  -2056331.85346  24665094.157    24665096.8504   24665103.9154
      3509.958        2735.032
   2633203.828 9   2049265.41448  22119629.917    22119631.8514   22119637.0644
     -1841.251       -1434.741
   3005113.232 9   2227034.95148  22579063.402    22579064.8054   22579069.6534
     -1610.273       -1254.758
   -317568.239 9   -245543.26248  20753420.083    20753421.4534   20753426.3644
       -65.824         -51.291
  -2633863.304 9  -2033779.54648  20318073.075    20318074.2824   20318079.2984
       754.478         587.905
   1263860.127 9    978648.08446  23981374.764    23981376.2874   23981381.4934
     -1217.638        -948.809
  -1912756.697 9  -1482091.31647  22660118.937    22660120.2904   22660125.2154
       321.894         250.826
   5689863.560 9   4422426.98746  23800286.873    23800290.5234   23800297.5264
     -3112.570       -2425.379
 96 11 14 16 55  0.0000000  0  8 25  3 23 21  1  9 31 17             0.000080000
  -3403514.357 9  -2138418.01946  24645047.371    24645050.5174   24645057.6224
      3512.381        2736.920
   2688641.587 9   2092463.64748  22130179.555    22130181.3844   22130186.5164
     -1855.374       -1445.746
   3053475.689 9   2264719.96948  22588266.553    22588267.8954   22588272.7564
     -1614.468       -1258.027
   -315488.802 9   -243922.92348  20753815.798    20753817.1644   20753822.0524
       -73.444         -57.229
  -2656267.914 9  -2051237.67148  20313809.719    20313810.7944   20313815.8174
       738.482         575.441
   1300646.724 9   1007312.97047  23988374.893    23988376.6894   23988381.7054
     -1235.322        -962.589
  -1922136.058 9  -1489399.89047  22658333.860    22658335.2914   22658340.3444
       302.792         235.942
   5783350.549 9   4495273.92946  23818077.065    23818080.5984   23818087.5844
     -3120.584       -2431.624
 96 11 14 16 55 30.0000000  0  8 25  3 23 21  1  9 31 17             0.000075600
  -3508944.849 9  -2220571.53946  24624985.573    24624987.8604   24624994.8274
      3515.634        2739.455
   2744500.138 9   2135989.76048  22140809.043    22140810.8444   22140816.0584
     -1869.257       -1456.564
   3101947.641 9   2302490.28947  22597490.481    22597491.8334   22597496.6864
     -1617.631       -1260.492
   -313191.991 9   -242133.20748  20754252.917    20754254.2724   20754259.1184
       -80.162         -62.464
  -2678196.412 9  -2068324.80948  20309636.750    20309637.9924   20309642.9254
       722.636         563.093
   1337955.072 9   1036384.40447  23995474.513    23995476.2524   23995481.3564
     -1252.411        -975.905
  -1930961.177 9  -1496276.62947  22656654.154    22656655.7104   22656660.8974
       284.783         221.909
   5877074.764 9   4568305.71346  23835912.957    23835915.8544   23835922.8364
     -3128.155       -2437.523
 96 11 14 16 56  0.0000000  0  8 25  3 23 21  1  9 31 17             0.000071208
  -3614455.515 9  -2302787.52946  24604907.722    24604909.7884   24604916.7364
      3518.184        2741.442
   2800791.925 9   2179853.45448  22151520.982    22151522.7594   22151528.0324
     -1883.628       -1467.762
   3150532.284 9   2340348.42447  22606735.806    22606737.2104   22606742.0484
     -1621.464       -1263.478
   -310695.976 9   -240188.26348  20754727.753    20754729.2324   20754734.1044
       -86.389         -67.316
  -2699623.971 9  -2085021.59048  20305559.011    20305560.4004   20305565.3614
       705.540         549.771
   1375785.714 9   1065862.82747  24002673.635    24002675.2004   24002680.2944
     -1269.792        -989.448
  -1939226.985 9  -1502717.51647  22655081.321    22655082.7674   22655087.9584
       265.808         207.123
   5971028.293 9   4641516.19646  23853792.458    23853794.5864   23853801.5954
     -3135.671       -2443.380
 96 11 14 16 56 30.0000000  0  8 25  3 23 21  1  9 31 17             0.000066830
  -3720019.362 9  -2385044.94646  24584819.088    24584821.5504   24584828.4164
      3519.442        2742.422
   2857530.021 9   2224064.91648  22162317.573    22162319.7094   22162324.9914
     -1898.674       -1479.486
   3199237.346 9   2378300.39147  22616004.105    22616005.4844   22616010.3334
     -1625.185       -1266.378
   -308004.404 9   -238090.93848  20755240.096    20755241.4464   20755246.2994
       -92.903         -72.392
  -2720517.660 9  -2101302.37748  20301583.065    20301584.4824   20301589.4184
       687.473         535.693
   1414148.447 9   1095755.87347  24009973.821    24009975.4174   24009980.5314
     -1287.622       -1003.342
  -1946897.373 9  -1508694.46047  22653621.836    22653623.1564   22653628.4134
       245.872         191.589
   6065210.659 9   4714904.98546  23871714.908    23871716.9624   23871723.9984
     -3142.992       -2449.085
 96 11 14 16 57  0.0000000  0  8 25  3 23 21  1  9 31 17             0.000062453
  -3825616.086 9  -2467327.96846  24564724.196    24564727.1404   24564733.9964
      3520.568        2743.300
   2914713.558 9   2268623.47948  22173199.455    22173201.4224   22173206.6484
     -1913.327       -1490.904
   3248046.654 9   2416333.58347  22625292.211    22625293.6084   22625298.4704
     -1628.469       -1268.937
   -305124.605 9   -235846.94848  20755788.158    20755789.4664   20755794.2914
       -98.974         -77.123
  -2740856.344 9  -2117150.69448  20297712.767    20297714.2114   20297719.0564
       668.716         521.077
   1453039.272 9   1126060.41746  24017373.935    24017376.0624   24017381.1164
     -1304.932       -1016.830
  -1953981.589 9  -1514214.63947  22652273.723    22652275.0284   22652280.3894
       226.527         176.514
   6159609.843 9   4788462.71546  23889677.414    23889680.6134   23889687.5474
     -3150.136       -2454.651
 96 11 14 16 57 30.0000000  0  8 25  3 23 21  1  9 31 17             0.000058063
  -3931253.589 9  -2549642.74946  24544621.484    24544625.0014   24544631.8044
      3521.759        2744.228
   2972323.831 9   2313514.57048  22184162.374    22184164.2354   22184169.5814
     -1927.304       -1501.795
   3296934.246 9   2454427.78547  22634595.287    22634596.6414   22634601.5024
     -1630.796       -1270.750
   -302071.625 9   -233468.00748  20756369.079    20756370.4464   20756375.2454
      -104.760         -81.631
  -2760644.351 9  -2132569.91648  20293947.411    20293948.6764   20293953.4784
       650.413         506.815
   1492440.232 9   1156762.46546  24024871.662    24024873.7104   24024878.7894
     -1321.731       -1029.920
  -1960495.145 9  -1519290.16048  22651034.429    22651035.7054   22651040.9594
       207.518         161.702
   6254218.421 9   4862183.62546  23907680.389    23907684.1694   23907691.0234
     -3157.202       -2460.157
 96 11 14 16 58  0.0000000  0  8 25  3 23 21  1  9 31 17             0.000053659
  -4036913.019 9  -2631974.62646  24524515.112    24524518.6064   24524525.4354
      3522.811        2745.048
   3030345.826 9   2358726.47048  22195203.893    22195205.5904   22195210.7294
     -1940.236       -1511.872
   3345894.733 9   2492578.78347  22643912.044    22643913.5184   22643918.4314
     -1632.695       -1272.230
   -298830.517 9   -230942.47048  20756985.822    20756987.1924   20756992.0024
      -110.965         -86.466
  -2779881.903 9  -2147560.21348  20290286.693    20290287.9544   20290292.6764
       632.731         493.037
   1532348.262 9   1187859.63746  24032466.579    24032467.9514   24032473.0244
     -1338.379       -1042.893
  -1966434.740 9  -1523918.43447  22649904.067    22649905.4654   22649910.6544
       188.941         147.227
   6349041.230 9   4936071.46746  23925725.133    23925728.4014   23925735.3184
     -3163.980       -2465.439
 96 11 14 16 58 30.0000000  0  8 25  3 23 21  1  9 31 17             0.000049228
  -4142614.133 9  -2714338.97946  24504402.048    24504404.1924   24504411.0964
      3523.571        2745.640
   3088737.542 9   2404226.48048  22206315.547    22206317.1664   22206322.3014
     -1952.920       -1521.756
   3394906.661 9   2530769.86347  22653238.899    22653240.2124   22653245.1664
     -1635.149       -1274.142
   -295397.410 9   -228267.32948  20757639.146    20757640.4924   20757645.3274
      -118.313         -92.192
  -2798608.112 9  -2162152.06748  20286723.058    20286724.4754   20286729.2224
       615.481         479.596
   1572754.188 9   1219344.75746  24040155.435    24040156.9494   24040162.0824
     -1355.572       -1056.290
  -1971835.364 9  -1528126.71348  22648876.323    22648877.8014   22648882.8774
       170.834         133.117
   6444063.486 9   5010114.71546  23943807.534    23943810.5304   23943817.5964
     -3171.150       -2471.026
 96 11 14 16 59  0.0000000  0  8 25  3 23 21  1  9 31 17             0.000044779
  -4248343.519 9  -2796725.34346  24484282.086    24484284.4324   24484291.1844
      3525.034        2746.780
   3147509.248 9   2450022.57348  22217499.466    22217501.1424   22217506.1974
     -1965.457       -1531.525
   3443998.275 9   2569023.03547  22662580.624    22662582.0594   22662587.0334
     -1637.905       -1276.290
   -291733.451 9   -225412.30348  20758336.312    20758337.7044   20758342.5674
      -126.079         -98.243
  -2816820.814 9  -2176343.77448  20283257.224    20283258.6364   20283263.4644
       598.723         466.537
   1613661.235 9   1251220.36046  24047940.347    24047941.2714   24047946.3824
     -1371.851       -1068.975
  -1976697.494 9  -1531915.39448  22647951.168    22647952.5434   22647957.6914
       152.882         119.129
   6539310.550 9   5084333.12846  23961931.896    23961935.5374   23961942.6194
     -3178.715       -2476.921
 96 11 14 16 59 30.0000000  0  8 25  3 23 21  1  9 31 17             0.000040316
  -4354118.912 9  -2879147.52946  24464153.512    24464155.8994   24464162.7494
      3526.414        2747.855
   3206662.246 9   2496115.78848  22228755.849    22228757.5914   22228762.6404
     -1978.358       -1541.578
   3493177.048 9   2607344.13047  22671938.929    22671940.4644   22671945.4814
     -1641.101       -1278.780
   -287835.050 9   -222374.59348  20759078.093    20759079.5344   20759084.4344
      -134.068        -104.469
  -2834538.374 9  -2190149.66448  20279885.913    20279887.1014   20279891.9414
       582.209         453.669
   1655063.810 9   1283482.07246  24055817.548    24055819.9534   24055825.0014
     -1388.640       -1082.057
  -1981019.799 9  -1535283.44548  22647128.696    22647130.1794   22647135.2484
       134.775         105.019
   6634781.826 9   5158726.26846  23980099.579    23980103.0824   23980110.1074
     -3186.106       -2482.680
 96 11 14 17  0  0.0000000  0  8 25  3 23 21  1  9 31 17             0.000035865
  -4459936.001 9  -2961602.22146  24444017.355    24444019.5214   24444026.3804
      3528.020        2749.106
   3266209.785 9   2542516.44248  22240087.274    22240089.1374   22240094.2234
     -1991.768       -1552.027
   3542467.121 9   2645751.94747  22681318.392    22681320.0384   22681325.1174
     -1645.093       -1281.891
   -283690.199 9   -219144.84148  20759866.886    20759868.3004   20759873.1784
      -142.232        -110.830
  -2851763.857 9  -2203572.11748  20276607.834    20276609.1594   20276614.0474
       566.137         441.146
   1696987.469 9   1316149.83446  24063796.016    24063797.7824   24063802.8124
     -1406.359       -1095.864
  -1984786.762 9  -1538218.75447  22646412.075    22646413.4144   22646418.3524
       116.084          90.455
   6730468.538 8   5233287.26346  23998308.814    23998311.5304   23998318.7704
     -3193.137       -2488.159
 96 11 14 17  0 30.0000000  0  8 25  3 23 21  1  9 31 17             0.000031431
  -4565807.979 9  -3044099.68946  24423871.078    24423872.6934   24423879.4914
      3529.710        2750.423
   3326164.562 9   2589234.41948  22251496.373    22251498.2134   22251503.3804
     -2005.779       -1562.945
   3591872.300 9   2684249.46147  22690720.193    22690721.5544   22690726.6504
     -1648.974       -1284.915
   -279314.915 9   -215735.53148  20760699.507    20760700.9204   20760705.7644
      -149.818        -116.741
  -2868517.720 9  -2216627.07848  20273419.911    20273421.0404   20273425.8464
       550.236         428.755
   1739429.194 9   1349221.26746  24071871.925    24071874.2784   24071879.2824
     -1423.381       -1109.128
  -1987995.038 9  -1540718.73147  22645801.417    22645802.7634   22645807.7134
        97.159          75.708
   6826357.847 8   5308006.13046  24016556.972    24016558.6874   24016566.0554
     -3199.876       -2493.410
 96 11 14 17  1  0.0000000  0  8 25  3 23 21  1  9 31 17             0.000027017
  -4671732.027 9  -3126637.73146  24403713.848    24403715.8904   24403722.6334
      3531.284        2751.650
   3386545.075 9   2636284.14248  22262986.580    22262988.3474   22262993.4124
     -2020.097       -1574.101
   3641384.783 9   2722830.58447  22700142.049    22700143.4734   22700148.5814
     -1652.414       -1287.595
   -274721.072 9   -212155.91448  20761573.743    20761575.1214   20761579.9324
      -156.887        -122.250
  -2884790.990 9  -2229307.55348  20270323.324    20270324.3584   20270329.0844
       534.117         416.195
   1782371.113 9   1382682.45646  24080043.790    24080045.8514   24080050.8684
     -1440.097       -1122.154
  -1990626.674 9  -1542769.39347  22645300.498    22645301.9254   22645306.7934
        77.714          60.556
   6922446.929 9   5382880.66346  24034841.038    24034843.9754   24034851.3664
     -3206.435       -2498.521
 96 11 14 17  1 30.0000000  0  8 25  3 23 21  1  9 31 17             0.000022628
  -4777696.908 8  -3209207.62046  24383548.282    24383551.1774   24383557.8884
      3533.127        2753.086
   3447350.856 9   2683665.23148  22274557.650    22274559.3144   22274564.3324
     -2033.374       -1584.447
   3690999.417 9   2761491.31047  22709583.575    22709584.8334   22709589.9344
     -1655.059       -1289.656
   -269924.052 9   -208417.97848  20762486.586    20762487.9704   20762492.7784
      -162.842        -126.890
  -2900579.133 9  -2241610.00148  20267318.643    20267319.9424   20267324.7154
       518.562         404.074
   1825825.218 9   1416542.76646  24088312.039    24088314.7304   24088319.8104
     -1456.638       -1135.043
  -1992672.067 9  -1544363.21247  22644911.360    22644912.7044   22644917.4024
        58.829          45.841
   7018725.520 9   5457902.86746  24053163.168    24053165.2044   24053172.5424
     -3212.006       -2502.862
 96 11 14 17  2  0.0000000  0  9 25 15  3 23 21  1  9 31 17          0.000018252
  -4883710.014 8  -3291815.08546  24363374.116    24363377.3534   24363384.0414
      3534.153        2753.885
   -353744.56919   -256498.91856  24829918.288    24829916.5215   24829921.7675
      3815.636        2973.223
   3508545.289 9   2731349.18148  22286202.493    22286204.2194   22286209.2354
     -2046.444       -1594.632
   3740698.502 9   2800217.84447  22719040.980    22719042.2594   22719047.3654
     -1658.430       -1292.283
   -264948.933 9   -204541.27248  20763433.421    20763434.7114   20763439.4834
      -169.158        -131.811
  -2915899.343 9  -2253547.82848  20264403.215    20264404.6184   20264409.4004
       502.276         391.384
   1869774.371 9   1450788.83046  24096675.408    24096677.8844   24096683.0824
     -1473.460       -1148.151
  -1994145.968 9  -1545511.71447  22644630.946    22644632.2724   22644636.9624
        39.112          30.477
   7115175.346 9   5533058.51146  24071517.196    24071519.0774   24071526.3984
     -3218.286       -2507.755
 96 11 14 17  2 30.0000000  0  9 25 15  3 23 21  1  9 31 17          0.000013886
  -4989753.404 9  -3374446.15846  24343194.041    24343197.9264   24343204.5034
      3535.403        2754.859
   -468212.306 9   -345694.56456  24808123.994    24808133.5514   24808139.5165
      3815.602        2973.196
   3570123.339 9   2779332.04748  22297920.590    22297922.1564   22297927.1674
     -2058.670       -1604.158
   3790491.272 9   2839017.38047  22728516.064    22728517.5354   22728522.6544
     -1661.043       -1294.319
   -259786.916 9   -200518.92948  20764415.656    20764417.0184   20764421.8004
      -174.911        -136.294
  -2930719.453 9  -2265095.96448  20261583.241    20261584.4364   20261589.1914
       485.670         378.444
   1914215.158 9   1485417.98846  24105132.497    24105134.6944   24105140.0164
     -1489.221       -1160.432
  -1995031.104 9  -1546201.45247  22644462.452    22644463.7484   22644468.5334
        19.998          15.583
   7211811.323 9   5608359.18346  24089908.835    24089908.3754   24089915.7044
     -3223.985       -2512.196
 96 11 14 17  3  0.0000000  0  9 25 15  3 23 21  1  9 31 17          0.000009509
  -5095826.507 9  -3457100.42246  24323008.685    24323012.8554   24323019.4174
      3535.930        2755.270
   -582679.118 9   -434889.49846  24786345.311    24786351.2625   24786357.4184
      3815.331        2972.985
   3632059.508 9   2827593.97548  22309706.671    22309708.2844   22309713.2944
     -2070.571       -1613.432
   3840369.788 9   2877883.72647  22738007.922    22738009.1344   22738014.2664
     -1664.506       -1297.018
   -254457.323 9   -196366.01348  20765429.859    20765431.1944   20765436.0044
      -180.640        -140.758
  -2945035.692 9  -2276251.47348  20258858.837    20258860.0784   20258864.9484
       468.658         365.188
   1959130.460 9   1520416.87046  24113679.649    24113681.7904   24113687.1804
     -1505.462       -1173.087
  -1995346.210 9  -1546446.99948  22644402.438    22644403.8364   22644408.7454
         0.912           0.711
   7308616.798 9   5683791.94146  24108330.660    24108329.9814   24108337.3234
     -3230.013       -2516.893
 96 11 14 17  3 30.0000000  0  9 25 15  3 23 21  1  9 31 17          0.000005128
  -5201918.430 9  -3539769.34746  24302820.958    24302824.1254   24302830.7364
      3536.741        2755.902
   -697138.152 9   -524078.36146  24764566.382    24764570.4494   24764576.4574
      3815.102        2972.807
   3694344.544 9   2876127.73548  22321559.104    22321560.7464   22321565.7544
     -2082.006       -1622.342
   3890354.089 9   2916832.49547  22747519.496    22747520.8254   22747525.9604
     -1668.003       -1299.743
   -248954.497 9   -192078.11548  20766476.958    20766478.3194   20766483.1694
      -186.564        -145.375
  -2958843.208 9  -2287010.57448  20256231.534    20256232.6434   20256237.4814
       451.525         351.838
   2004536.448 9   1555798.10746  24122320.062    24122322.2904   24122327.6754
     -1521.724       -1185.759
  -1995095.697 9  -1546251.82748  22644450.272    22644451.5634   22644456.6284
       -17.766         -13.844
   7405608.868 8   5759370.10146  24126786.945    24126786.8974   24126794.3864
     -3236.256       -2521.758
 96 11 14 17  4  0.0000000  0  9 25 15  3 23 21  1  9 31 17          0.000000728
  -5308031.952 9  -3622455.11946  24282629.202    24282631.1704   24282637.8964
      3537.311        2756.346
   -811591.921 9   -613263.12046  24742787.117    24742790.6344   24742796.6184
      3814.933        2972.675
   3756973.891 9   2924929.80848  22333477.070    22333478.7124   22333483.7104
     -2093.598       -1631.375
   3940440.664 9   2955860.95947  22757050.498    22757052.0134   22757057.1504
     -1671.110       -1302.164
   -243260.175 9   -187641.00148  20767560.548    20767561.9384   20767566.7934
      -193.283        -150.610
  -2972129.118 9  -2297363.22748  20253703.263    20253704.4354   20253709.2364
       433.978         338.165
   2050417.438 9   1591549.47846  24131050.986    24131053.2824   24131058.5224
     -1537.207       -1197.824
  -1994287.765 9  -1545622.29748  22644604.132    22644605.3954   22644610.5114
       -36.344         -28.320
   7502787.371 8   5835093.52046  24145278.891    24145279.4224   24145286.9464
     -3242.490       -2526.616
 96 11 14 17  4 30.0000000  0  9 25 15  3 23 21  1  9 31 17         -0.000003699
  -5414163.817 8  -3705155.19546  24262433.239    24262434.9174   24262441.5724
      3537.867        2756.779
   -926044.169 9   -702446.70346  24721008.191    24721011.1004   24721017.0754
      3815.007        2972.733
   3819955.342 9   2974006.22847  22345462.097    22345463.6704   22345468.6964
     -2105.480       -1640.634
   3990608.436 9   2994952.68947  22766597.017    22766598.6264   22766603.8194
     -1673.594       -1304.099
   -237368.537 9   -183050.13648  20768681.724    20768683.1284   20768687.9354
      -199.745        -155.645
  -2984896.857 9  -2307312.11048  20251273.250    20251274.7674   20251279.6254
       417.127         325.034
   2096754.468 9   1627656.20446  24139868.427    24139871.1414   24139876.2364
     -1552.272       -1209.562
  -1992940.511 9  -1544572.51947  22644860.647    22644861.8874   22644866.9264
       -53.742         -41.877
   7600152.886 8   5910962.67746  24163807.250    24163807.5294   24163815.0014
     -3248.745       -2531.490
 96 11 14 17  4 59.9990000  0  9 25 15  3 23 21  1  9 31 17         -0.000008137
  -5520294.211 8  -3787854.13846  24242238.720    24242238.8914   24242245.4964
      3537.562        2756.542
  -1040485.453 9   -791621.74846  24699230.979    24699233.7264   24699239.7314
      3814.389        2972.251
   3883302.576 9   3023367.69248  22357516.578    22357518.2974   22357523.3604
     -2117.966       -1650.363
   4040864.194 9   3034112.98247  22776160.679    22776161.9964   22776167.1984
     -1677.083       -1306.818
   -231263.171 9   -178292.72848  20769843.628    20769844.9644   20769849.7834
      -207.706        -161.849
  -2997157.121 9  -2316865.56548  20248940.412    20248941.7504   20248946.5784
       400.096         311.763
   2143563.243 9   1664130.52046  24148775.425    24148778.4974   24148783.8204
     -1568.706       -1222.368
  -1991050.805 9  -1543100.05647  22645220.233    22645221.5134   22645226.3604
       -72.541         -56.525
   7697715.748 8   5986985.59346  24182373.129    24182373.2764   24182380.5944
     -3255.933       -2537.091
 96 11 14 17  5 29.9990000  0  9 25 15  3 23 21  1  9 31 17         -0.000012578
  -5626434.696 8  -3870560.94446  24222042.088    24222040.9734   24222047.4344
      3537.938        2756.835
  -1154918.052 9   -880790.01546  24677455.648    24677457.9684   24677463.9464
      3814.058        2971.993
   3947019.074 9   3073016.86648  22369641.202    22369643.0824   22369648.2624
     -2130.320       -1659.990
   4091215.200 9   3073347.49347  22785742.060    22785743.4964   22785748.7144
     -1680.116       -1309.181
   -224918.625 9   -173348.94648  20771050.995    20771052.3294   20771057.1254
      -215.707        -168.083
  -3008913.973 9  -2326026.74248  20246703.045    20246704.4864   20246709.2584
       383.297         298.673
   2190856.688 9   1700982.50546  24157775.104    24157778.1174   24157783.4774
     -1584.593       -1234.748
  -1988605.268 9  -1541194.45447  22645685.581    22645686.9244   22645691.5814
       -90.956         -70.875
   7795488.709 8   6063172.24545  24200978.407    24200978.7254   24200986.2334
     -3262.422       -2542.147
 96 11 14 17  5 59.9990000  0  9 25 15  3 23 21  1  9 31 17         -0.000017008
  -5732565.435 8  -3953260.16346  24201844.999    24201845.0304   24201851.2304
      3537.528        2756.515
  -1269327.603 9   -969940.32146  24655684.544    24655686.6144   24655692.6604
      3813.368        2971.456
   4011127.549 9   3122971.47948  22381840.458    22381842.5114   22381847.7294
     -2143.362       -1670.152
   4141676.169 9   3112667.69147  22795344.496    22795345.9194   22795351.1284
     -1683.748       -1312.011
   -218321.794 9   -168208.57948  20772306.369    20772307.6974   20772312.4984
      -223.687        -174.302
  -3020163.907 9  -2334792.92448  20244562.109    20244563.7234   20244568.4514
       367.068         286.027
   2238645.537 9   1738220.50246  24166868.900    24166872.1424   24166877.3734
     -1601.238       -1247.718
  -1985591.511 9  -1538846.08947  22646259.004    22646260.3884   22646265.0694
      -109.945         -85.671
   7893458.115 8   6139511.95045  24219623.646    24219621.8774   24219629.4284
     -3268.743       -2547.072
 96 11 14 17  6 29.9990000  0  9 25 15  3 23 21  1  9 31 17         -0.000021409
  -5838683.582 8  -4035949.57946  24181648.973    24181651.2664   24181657.5174
      3537.702        2756.651
  -1383716.014 9  -1059074.17746  24633917.391    24633919.2114   24633925.3564
      3813.146        2971.283
   4075624.764 9   3173229.00948  22394114.069    22394116.0014   22394121.2354
     -2155.767       -1679.818
   4192257.243 9   3152081.48247  22804969.876    22804971.2134   22804976.3844
     -1687.781       -1315.154
   -211499.318 9   -162892.38448  20773604.667    20773605.9834   20773610.7844
      -230.582        -179.674
  -3030931.675 9  -2343183.39048  20242512.892    20242514.7274   20242519.4264
       351.361         273.788
   2286937.748 9   1775850.74446  24176058.900    24176061.8654   24176067.1764
     -1617.633       -1260.493
  -1982000.504 9  -1536047.91147  22646942.278    22646943.6844   22646948.4714
      -128.999        -100.519
   7991612.427 8   6215995.73245  24238302.510    24238300.2734   24238307.7274
     -3274.282       -2551.389
 96 11 14 17  6 59.9990000  0  9 25 15  3 23 21  1  9 31 17         -0.000025790
  -5944818.878 8  -4118652.35846  24161451.731    24161454.4004   24161460.6884
      3538.189        2757.030
  -1498101.748 9  -1148205.94746  24612150.747    24612152.2524   24612158.4954
      3812.702        2970.937
   4140476.781 9   3223763.02148  22406455.164    22406456.9654   22406462.1884
     -2167.576       -1689.020
   4242956.513 9   3191587.37147  22814617.982    22814619.0404   22814624.2154
     -1691.923       -1318.381
   -204475.304 9   -157419.14748  20774941.297    20774942.6354   20774947.4424
      -237.474        -185.045
  -3041229.220 9  -2351207.45248  20240553.450    20240555.1814   20240559.8524
       335.166         261.168
   2335722.931 9   1813865.10346  24185342.596    24185345.4554   24185350.7504
     -1634.396       -1273.555
  -1977834.136 9  -1532801.41447  22647734.891    22647736.4844   22647741.4784
      -148.415        -115.648
   8089916.217 8   6292595.98545  24257010.424    24257006.9404   24257014.3654
     -3279.254       -2555.263
 96 11 14 17  7 29.9990000  0  9 25 15  3 23 21  1  9 31 17         -0.000030161
  -6050966.754 8  -4201364.95046  24141253.836    24141255.1044   24141261.4664
      3537.962        2756.854
  -1612475.306 9  -1237328.20346  24590386.213    24590387.7174   24590394.0004
      3811.842        2970.266
   4205683.439 9   3274573.35947  22418863.676    22418865.4164   22418870.6884
     -2179.905       -1698.627
   4293773.813 9   3231185.22347  22824288.336    22824289.3574   22824294.4744
     -1696.069       -1321.612
   -197254.049 9   -151792.21448  20776315.590    20776316.8114   20776321.6364
      -244.335        -190.391
  -3051034.155 9  -2358847.66348  20238687.735    20238689.3844   20238694.0184
       318.269         248.002
   2385002.492 9   1852264.72446  24194721.220    24194722.9904   24194728.4394
     -1651.123       -1286.589
  -1973100.447 9  -1529112.85247  22648635.911    22648637.3694   22648642.4254
      -167.352        -130.404
   8188371.362 8   6369314.19845  24275744.237    24275742.3674   24275749.6764
     -3284.637       -2559.457
 96 11 14 17  7 59.9990000  0  9 25 15  3 23 21  1  9 31 17         -0.000034523
  -6157105.311 8  -4284070.30846  24121056.377    24121057.4824   24121063.8594
      3537.679        2756.633
  -1726825.816 9  -1326432.50646  24568625.903    24568627.5234   24568633.9364
      3811.171        2969.744
   4271254.644 9   3325667.78047  22431341.285    22431343.1364   22431348.5704
     -2191.689       -1707.810
   4344700.717 9   3270868.50247  22833978.939    22833980.4244   22833985.5854
     -1699.261       -1324.099
   -189826.021 9   -146004.15548  20777729.072    20777730.3464   20777735.1714
      -251.204        -195.743
  -3060340.723 9  -2366099.53248  20236916.889    20236918.4394   20236923.0764
       301.865         235.219
   2434785.756 9   1891056.85046  24204194.828    24204196.5604   24204201.9234
     -1667.882       -1299.648
  -1967805.705 9  -1524987.09147  22649643.773    22649645.1274   22649649.9874
      -185.952        -144.898
   8286987.661 8   6446157.96145  24294510.206    24294508.5244   24294515.9194
     -3290.248       -2563.830
 96 11 14 17  8 29.9990000  0  9 25 15  3 23 21  1  9 31 17         -0.000038882
  -6263232.499 8  -4366766.77846  24100861.764    24100862.1164   24100868.4934
      3537.631        2756.596
  -1841149.436 9  -1415515.83846  24546870.935    24546872.4654   24546878.9944
      3810.319        2969.080
   4337177.021 9   3377035.81647  22443886.255    22443887.8514   22443893.2494
     -2203.157       -1716.746
   4395723.489 9   3310626.47547  22843687.953    22843689.7364   22843694.9814
     -1702.150       -1326.351
   -182179.620 9   -140045.93548  20779184.154    20779185.4064   20779190.2294
      -258.732        -201.609
  -3069142.788 9  -2372958.28648  20235241.864    20235243.4344   20235248.0894
       285.027         222.099
   2485064.223 9   1930234.84346  24213762.799    24213764.2784   24213769.6134
     -1684.075       -1312.266
  -1961955.732 9  -1520428.68347  22650757.041    22650758.2834   22650763.2454
      -203.917        -158.896
   8385783.116 8   6523141.33045  24313311.796    24313308.9304   24313316.1464
     -3296.390       -2568.616
 96 11 14 17  8 59.9990000  0  9 25 15  3 23 21  1  9 31 17         -0.000043257
  -6369369.173 8  -4449470.65946  24080664.729    24080664.9514   24080671.4524
      3537.804        2756.730
  -1955454.772 9  -1504584.92146  24525119.395    24525120.8834   24525127.3924
      3809.694        2968.593
   4403436.621 9   3428666.63547  22456495.188    22456496.6054   22456502.0824
     -2214.573       -1725.641
   4446811.775 9   3350435.47947  22853410.033    22853411.5624   22853416.8214
     -1704.133       -1327.896
   -174310.482 9   -133914.14948  20780681.599    20780682.8594   20780687.6854
      -266.095        -207.347
  -3077457.928 9  -2379437.61748  20233659.369    20233661.0714   20233665.7874
       269.032         209.635
   2535820.069 9   1969784.82546  24223421.411    24223422.8204   24223428.1024
     -1699.854       -1324.562
  -1955584.063 9  -1515463.76247  22651969.417    22651970.6214   22651975.7144
      -221.030        -172.231
   8484756.249 8   6600263.13845  24332144.524    24332142.7124   24332150.1704
     -3302.362       -2573.269
 96 11 14 17  9 29.9990000  0  9 25 15  3 23 21  1  9 31 17         -0.000047644
  -6475503.091 9  -4532172.38746  24060467.345    24060468.4344   24060474.7224
      3537.701        2756.650
  -2069733.545 9  -1593633.31446  24503372.836    24503374.3514   24503380.7894
      3808.661        2967.788
   4470045.902 9   3480569.95547  22469170.362    22469171.9094   22469177.5034
     -2226.305       -1734.783
   4497967.002 9   3390296.66347  22863144.875    22863146.1444   22863151.3914
     -1706.636       -1329.846
   -166212.753 9   -127604.23848  20782222.513    20782223.8004   20782228.6614
      -274.012        -213.516
  -3085298.483 9  -2385547.14248  20232167.346    20232169.0684   20232173.7634
       253.456         197.498
   2587038.096 9   2009694.94446  24233167.578    24233169.4204   24233174.6244
     -1714.826       -1336.228
  -1948698.237 9  -1510098.19947  22653279.767    22653280.8734   22653286.1584
      -238.396        -185.763
   8583915.485 8   6677529.95145  24351013.489    24351012.0414   24351019.7744
     -3308.415       -2577.986
 96 11 14 17  9 59.9990000  0  9 25 15  3 23 21  1  9 31 17         -0.000052032
  -6581637.134 8  -4614874.20346  24040269.550    24040271.8574   24040278.1064
      3537.851        2756.767
  -2183981.282 9  -1682657.52946  24481632.322    24481633.6284   24481640.2494
      3807.697        2967.037
   4537004.707 9   3532745.60848  22481911.827    22481913.7224   22481919.4474
     -2237.650       -1743.623
   4549207.714 9   3430224.44547  22872895.345    22872896.9224   22872902.2394
     -1709.624       -1332.175
   -157877.109 9   -121108.93848  20783808.728    20783810.0234   20783814.8854
      -281.548        -219.388
  -3092673.967 9  -2391294.28248  20230763.535    20230765.6174   20230770.2264
       237.957         185.421
   2638699.741 9   2049950.75046  24242998.906    24243000.4234   24243005.5504
     -1729.306       -1347.511
  -1941281.950 9  -1504319.31547  22654690.830    22654692.0284   22654697.6344
      -256.306        -199.719
   8683253.787 8   6754936.33545  24369915.975    24369915.2934   24369923.1694
     -3314.163       -2582.465
 96 11 14 17 10 29.9990000  0  9 25 15  3 23 21  1  9 31 17         -0.000056432
  -6687789.058 8  -4697589.95046  24020067.803    24020071.6494   24020078.1314
      3538.591        2757.344
  -2298204.643 9  -1771662.75546  24459896.382    24459897.6494   24459904.2664
      3806.799        2966.337
   4604287.195 9   3585173.46547  22494715.111    22494717.1444   22494722.9344
     -2248.243       -1751.878
   4600538.457 9   3470222.38847  22882663.232    22882664.8584   22882670.1934
     -1712.806       -1334.654
   -149334.435 9   -114452.31248  20785434.351    20785435.6414   20785440.5064
      -288.374        -224.707
  -3099589.266 9  -2396682.83148  20229447.981    20229449.7004   20229454.2834
       222.686         173.522
   2690780.964 9   2090533.50746  24252909.521    24252911.1584   24252916.3594
     -1743.302       -1358.417
  -1933335.377 9  -1498127.21147  22656203.001    22656204.1794   22656209.8374
      -273.976        -213.488
   8782750.421 8   6832466.06245  24388848.595    24388849.0504   24388857.0404
     -3319.264       -2586.439
 96 11 14 17 10 59.9990000  0  9 25 15  3 23 21  1  9 31 17         -0.000060826
  -6793942.952 9  -4780307.24746  23999867.588    23999871.0964   23999877.7304
      3538.047        2756.920
  -2412387.059 9  -1860636.06246  24438167.894    24438169.4434   24438175.9874
      3805.244        2965.125
   4671900.366 9   3637859.01447  22507581.628    22507583.5744   22507589.2504
     -2259.271       -1760.471
   4651983.138 9   3510309.10347  22892452.802    22892454.4224   22892459.7744
     -1717.071       -1337.977
   -140580.946 9   -107631.41748  20787100.076    20787101.4064   20787106.2664
      -295.183        -230.013
  -3106032.604 9  -2401703.62448  20228222.002    20228223.5414   20228228.1594
       206.627         161.008
   2743302.821 9   2131459.60946  24262904.301    24262905.7724   24262910.9944
     -1758.234       -1370.052
  -1924838.630 9  -1491506.39047  22657819.823    22657821.0884   22657826.6484
      -292.739        -228.108
   8882410.619 8   6910123.22945  24407812.458    24407814.2064   24407821.8924
     -3324.761       -2590.723
 96 11 14 17 11 29.9990000  0  9 25 15  3 23 21  1  9 31 17         -0.000065220
  -6900094.321 9  -4863022.59146  23979668.560    23979671.1284   23979677.7394
      3538.426        2757.215
  -2526540.040 9  -1949586.41746  24416445.303    24416446.7324   24416453.3034
      3804.752        2964.742
   4739815.317 9   3690779.71548  22520505.569    22520507.4064   22520513.0834
     -2268.494       -1767.658
   4703546.725 9   3550488.48747  22902265.017    22902266.6494   22902272.0174
     -1720.659       -1340.773
   -131643.405 9   -100667.10648  20788800.795    20788802.1874   20788807.0554
      -300.958        -234.513
  -3112005.797 9  -2406358.06648  20227085.207    20227086.8634   20227091.4924
       191.316         149.077
   2796254.371 9   2172720.54646  24272981.052    24272982.1374   24272987.4084
     -1772.343       -1381.046
  -1915788.232 9  -1484454.15747  22659542.342    22659543.4504   22659548.9044
      -310.838        -242.211
   8982218.915 8   6987895.83445  24426804.140    24426806.9844   24426814.8254
     -3329.350       -2594.299
 96 11 14 17 11 59.9990000  0  9 25 15  3 23 21  1  9 31 17         -0.000069583
  -7006225.404 9  -4945722.10446  23959472.891    23959475.1144   23959481.6124
      3537.492        2756.487
  -2640655.643 9  -2038507.69046  24394729.837    24394731.2734   24394737.7574
      3803.505        2963.770
   4808024.537 9   3743929.70648  22533485.569    22533487.2794   22533492.9344
     -2278.356       -1775.342
   4755235.962 9   3590765.77147  22912101.099    22912102.8014   22912108.1864
     -1724.664       -1343.894
   -122515.024 9    -93554.08848  20790537.871    20790539.2684   20790544.1694
      -307.133        -239.324
  -3117493.984 9  -2410634.58648  20226040.865    20226042.4584   20226047.1374
       174.988         136.354
   2849670.392 9   2214343.38846  24283146.095    24283146.8884   24283152.1304
     -1788.274       -1393.460
  -1906175.015 9  -1476963.36247  22661371.656    22661372.8374   22661378.3174
      -329.567        -256.805
   9082194.086 8   7065798.45045  24445828.487    24445831.3394   24445839.4574
     -3335.266       -2598.909
 96 11 14 17 12 29.9990000  0  9 25 15  3 23 21  1  9 31 17         -0.000073959
  -7112326.776 9  -5028398.45646  23939281.671    23939284.7274   23939291.1904
      3536.324        2755.577
  -2754729.851 9  -2127396.71246  24373022.299    24373023.6814   24373030.1004
      3801.925        2962.539
   4876535.575 9   3797314.88148  22546522.796    22546524.5674   22546530.1884
     -2288.668       -1783.378
   4807046.125 9   3631137.28947  22921960.255    22921961.9474   22921967.4124
     -1728.844       -1347.151
   -113192.475 9    -86289.76848  20792311.924    20792313.3174   20792318.2034
      -314.095        -244.749
  -3122488.669 9  -2414526.55548  20225090.303    20225091.9644   20225096.6884
       158.509         123.514
   2903570.894 9   2256343.77946  24293402.513    24293403.8874   24293409.1674
     -1804.663       -1406.231
  -1895999.577 9  -1469034.47747  22663307.867    22663309.0434   22663314.6304
      -348.370        -271.457
   9182357.523 8   7143847.76645  24464887.805    24464891.7984   24464899.9664
     -3341.807       -2604.005
 96 11 14 17 12 59.9990000  0  9 25 15  3 23 21  1  9 31 17         -0.000078326
  -7218398.501 9  -5111051.70946  23919097.068    23919100.0534   23919106.4704
      3535.003        2754.548
  -2868774.923 9  -2216263.03046  24351320.412    24351321.6124   24351328.0664
      3800.958        2961.785
   4945345.390 9   3850932.84348  22559617.068    22559618.7254   22559624.3104
     -2298.684       -1791.182
   4858967.914 9   3671595.78447  22931840.760    22931842.3374   22931847.9174
     -1732.655       -1350.121
   -103671.796 9    -78871.06648  20794123.629    20794125.0434   20794129.9364
      -320.759        -249.942
  -3127000.870 9  -2418042.56548  20224231.623    20224233.2994   20224238.0394
       142.152         110.768
   2957948.570 9   2298715.98346  24303750.303    24303751.5744   24303756.9294
     -1820.432       -1418.518
  -1885270.425 9  -1460674.13347  22665349.560    22665350.6824   22665356.2944
      -366.980        -285.958
   9282705.042 8   7222040.51545  24483983.271    24483987.4484   24483995.6484
     -3347.980       -2608.816
 96 11 14 17 13 29.9990000  0  9 25 15  3 23 21  1  9 31 17         -0.000082684
  -7324430.541 9  -5193674.02646  23898920.691    23898922.8074   23898929.1894
      3534.161        2753.892
  -2982776.499 9  -2305095.43446  24329626.406    24329627.8984   24329634.2524
      3799.578        2960.710
   5014466.905 9   3904793.72648  22572770.647    22572772.2074   22572777.6524
     -2309.080       -1799.283
   4911010.198 9   3712148.16647  22941744.100    22941745.6634   22941751.2884
     -1736.205       -1352.887
    -93926.822 9    -71277.59048  20795978.114    20795979.4464   20795984.3414
      -328.659        -256.098
  -3131010.863 9  -2421167.24148  20223468.436    20223470.1734   20223474.9664
       125.620          97.886
   3012808.788 9   2341464.19246  24314189.523    24314190.9734   24314196.5044
     -1836.456       -1431.005
  -1873979.609 9  -1451876.12347  22667497.954    22667499.2504   22667504.8244
      -385.259        -300.202
   9383245.807 8   7300383.84445  24503115.916    24503119.8474   24503128.1604
     -3353.930       -2613.452
 96 11 14 17 13 59.9990000  0  9 25 15  3 23 21  1  9 31 17         -0.000087043
  -7430431.217 9  -5276271.90646  23878749.476    23878751.5074   23878757.8994
      3532.979        2752.971
  -3096737.173 9  -2393895.96846  24307940.523    24307941.9124   24307948.2374
      3798.123        2959.576
   5083910.996 9   3958905.93348  22585985.569    22585986.9974   22585992.4544
     -2320.172       -1807.926
   4963147.727 9   3752774.78547  22951665.626    22951667.1064   22951672.7924
     -1739.267       -1355.273
    -83941.489 9    -63496.81948  20797878.234    20797879.5764   20797884.4814
      -336.641        -262.318
  -3134520.965 9  -2423902.39848  20222800.469    20222802.2384   20222807.0394
       108.798          84.778
   3068144.992 9   2384583.28846  24324719.262    24324721.1424   24324726.5364
     -1852.137       -1443.224
  -1862146.485 9  -1442655.53947  22669749.649    22669750.9484   22669756.6194
      -403.370        -314.314
   9483961.098 8   7378863.16045  24522282.041    24522285.5604   24522293.8964
     -3359.742       -2617.981
 96 11 14 17 14 29.9990000  0  9 25 15  3 23 21  1  9 31 17         -0.000091403
  -7536392.582 9  -5358839.15646  23858586.311    23858587.6934   23858594.1074
      3531.330        2751.686
  -3210647.524 8  -2482657.30246  24286263.892    24286265.4364   24286271.8114
      3796.188        2958.069
   5153685.313 9   4013275.48547  22599262.993    22599264.6844   22599270.1234
     -2331.056       -1816.407
   5015380.310 9   3793475.45247  22961605.272    22961606.6234   22961612.3634
     -1742.568       -1357.845
    -73705.444 9    -55520.68448  20799826.107    20799827.4464   20799832.3314
      -345.395        -269.139
  -3137524.379 9  -2426242.72748  20222229.082    20222230.7464   20222235.4974
        91.900          71.610
   3123950.987 9   2428068.45046  24335339.568    24335340.6684   24335346.0564
     -1867.947       -1455.543
  -1849765.140 9  -1433007.75447  22672105.841    22672107.1244   22672112.7084
      -421.818        -328.689
   9584836.745 8   7457467.45146  24541478.407    24541481.8114   24541489.9884
     -3364.837       -2621.951
 96 11 14 17 14 59.9990000  0  9 25 15  3 23 21  1  9 31 17         -0.000095768
  -7642309.454 9  -5441371.74146  23838430.358    23838432.2154   23838438.7784
      3530.232        2750.830
  -3324506.775 8  -2571378.78845  24264597.305    24264598.7154   24264605.0574
      3794.756        2956.953
   5223777.310 9   4067892.56547  22612601.181    22612602.7644   22612608.1854
     -2341.191       -1824.305
   5067702.634 9   3834246.04747  22971562.073    22971563.3044   22971569.0494
     -1745.137       -1359.847
    -63222.053 9    -47351.81548  20801821.102    20801822.3904   20801827.2734
      -353.016        -275.077
  -3140030.689 9  -2428195.70248  20221752.225    20221753.8364   20221758.5694
        75.735          59.014
   3180223.578 9   2471917.18646  24346047.423    24346049.0854   24346054.3554
     -1883.088       -1467.341
  -1836839.679 9  -1422936.00247  22674565.552    22674566.8704   22674572.2464
      -439.402        -342.391
   9685841.898 8   7536172.63746  24560699.494    24560702.8024   24560710.6124
     -3368.453       -2624.769
 96 11 14 17 15 29.9990000  0  9 25 15  3 23 21  1  9 31 17         -0.000100134
  -7748180.710 9  -5523868.80046  23818284.332    23818285.5444   23818292.1054
      3527.916        2749.025
  -3438306.184 8  -2660053.62545  24242941.504    24242943.3224   24242949.8344
      3792.026        2954.825
   5294180.952 9   4122752.48448  22625998.908    22626000.1844   22626005.6364
     -2352.279       -1832.945
   5120110.162 9   3875083.04047  22981534.803    22981536.1414   22981541.9264
     -1748.472       -1362.446
    -52494.920 9    -38993.02248  20803862.359    20803863.6964   20803868.6134
      -361.903        -282.002
  -3142047.759 9  -2429767.44648  20221368.252    20221369.9644   20221374.7564
        59.005          45.978
   3236965.366 9   2516131.54146  24356844.857    24356846.7724   24356851.9164
     -1899.540       -1480.161
  -1823376.612 9  -1412445.32247  22677127.595    22677128.9014   22677133.9864
      -457.996        -356.880
   9786978.724 8   7614980.43246  24579945.626    24579948.6734   24579956.5074
     -3373.699       -2628.856
 96 11 14 17 15 59.9990000  0  9 25 15  3 23 21  1  9 31 17         -0.000104511
  -7853997.952 9  -5606323.75546  23798148.967    23798149.2244   23798155.7264
      3526.539        2747.952
  -3552045.555 9  -2748681.72246  24221297.594    24221299.6224   24221305.8914
      3790.460        2953.605
   5364888.073 9   4177848.88848  22639453.955    22639455.3454   22639460.8234
     -2361.532       -1840.155
   5172595.645 9   3915980.77447  22991522.317    22991523.8934   22991529.6374
     -1750.803       -1364.262
    -41542.141 9    -30458.39948  20805946.598    20805947.9334   20805952.8924
      -368.328        -287.009
  -3143592.472 9  -2430971.12048  20221074.289    20221075.9714   20221080.7864
        43.892          34.202
   3294170.453 9   2560706.88446  24367730.221    24367732.5734   24367737.6724
     -1914.237       -1491.613
  -1809375.985 9  -1401535.76747  22679791.771    22679793.1924   22679798.2284
      -475.690        -370.668
   9888246.627 8   7693890.36146  24599215.845    24599219.4414   24599227.3784
     -3377.620       -2631.912
 96 11 14 17 16 29.9990000  0  9 25 15  3 23 21  1  9 31 17         -0.000108878
  -7959781.552 9  -5688752.48746  23778019.830    23778019.2904   23778025.7544
      3525.367        2747.039
  -3665740.505 9  -2837275.19746  24199662.388    24199664.2794   24199670.4624
      3788.788        2952.302
   5435857.895 9   4233149.99047  22652959.198    22652960.5004   22652965.9514
     -2370.290       -1846.979
   5225156.713 9   3956937.41347  23001524.863    23001526.0654   23001531.7274
     -1753.666       -1366.493
    -30403.037 9    -21778.59148  20808066.299    20808067.6424   20808072.6264
      -374.521        -291.834
  -3144691.438 9  -2431827.45648  20220864.987    20220866.8074   20220871.6564
        29.068          22.650
   3351811.670 9   2605622.07346  24378699.989    24378701.4624   24378706.2884
     -1928.664       -1502.855
  -1794849.093 9  -1390216.12147  22682556.189    22682557.6024   22682562.6804
      -493.185        -384.300
   9989630.064 8   7772890.33046  24618509.897    24618512.2724   24618520.0984
     -3381.676       -2635.072
 96 11 14 17 16 59.9990000  0  9 25 15  3 23 21  1  9 31 17         -0.000113244
  -8065517.376 9  -5771143.98346  23757897.040    23757898.3584   23757904.7954
      3523.656        2745.706
  -3779372.124 8  -2925819.28345  24178039.023    24178040.8244   24178046.9644
      3786.547        2950.556
   5507109.021 9   4288670.28347  22666517.495    22666519.0644   22666524.6784
     -2379.767       -1854.364
   5277815.739 9   3997970.38047  23011545.729    23011546.8434   23011552.4524
     -1756.882       -1368.999
    -19078.622 9    -12954.38748  20810221.310    20810222.6324   20810227.6104
      -380.506        -296.498
  -3145334.660 9  -2432328.67248  20220742.745    20220744.4074   20220749.2634
        13.716          10.688
   3409893.391 9   2650880.52146  24389752.504    24389754.0814   24389758.9054
     -1943.439       -1514.368
  -1779793.833 9  -1378484.76347  22685421.135    22685422.6234   22685427.5074
      -510.631        -397.894
  10091158.758 8   7852003.48446  24637830.150    24637832.7204   24637840.6334
     -3387.104       -2639.302
 96 11 14 17 17 29.9990000  0  9 25 15  3 23 21  1  9 31 17         -0.000117610
  -8171204.229 9  -5853497.30146  23737783.809    23737786.7964   23737793.2434
      3521.974        2744.395
  -3892941.975 8  -3014315.25145  24156427.376    24156429.2324   24156435.3654
      3784.614        2949.050
   5578636.181 9   4344405.67347  22680128.526    22680130.2584   22680135.9854
     -2389.038       -1861.588
   5330557.314 9   4039067.66147  23021582.043    23021583.2844   23021588.8744
     -1759.461       -1371.009
     -7575.100 9     -3990.61648  20812410.369    20812411.6884   20812416.6534
      -386.453        -301.132
  -3145522.451 9  -2432475.00448  20220707.122    20220708.6794   20220713.5074
        -1.461          -1.138
   3468413.442 9   2696480.52646  24400889.249    24400890.2214   24400894.8344
     -1957.986       -1525.703
  -1764223.194 9  -1366351.81947  22688384.186    22688385.6554   22688390.3414
      -527.703        -411.197
  10192849.829 8   7931243.16946  24657181.309    24657184.0534   24657191.7324
     -3392.362       -2643.399
 96 11 14 17 17 59.9990000  0  9 25 15  3 23 21  1  9 31 17         -0.000121981
  -8276847.265 9  -5935816.50246  23717680.842    23717683.5684   23717690.0334
      3520.832        2743.505
  -4006460.277 9  -3102771.09845  24134825.463    24134827.4144   24134833.5194
      3783.189        2947.939
   5650444.065 9   4400359.81747  22693793.362    22693794.8774   22693800.6234
     -2398.223       -1868.745
   5383379.077 9   4080227.43047  23031633.418    23031634.9674   23031640.5044
     -1762.169       -1373.119
      4098.065 9      5105.33848  20814631.766    20814633.0304   20814637.9964
      -391.905        -305.381
  -3145253.789 9  -2432265.65748  20220758.262    20220759.8024   20220764.6464
       -16.590         -12.927
   3527361.441 9   2742414.01646  24412107.071    24412107.6714   24412112.1764
     -1971.856       -1536.511
  -1748144.357 9  -1353822.84447  22691443.801    22691445.4074   22691450.0184
      -544.347        -424.166
  10294685.297 8   8010595.36746  24676559.590    24676562.8704   24676570.4624
     -3396.675       -2646.760
 96 11 14 17 18 29.9990000  0  9 25 15  3 23 21  1  9 31 17         -0.000126351
  -8382432.752 9  -6018090.86646  23697588.720    23697591.3714   23697597.7084
      3518.543        2741.722
  -4119913.536 8  -3191176.22845  24113235.965    24113237.8274   24113243.9694
      3780.733        2946.026
   5722551.681 9   4456547.53547  22707514.913    22707516.5464   22707522.2294
     -2408.731       -1876.933
   5436311.322 9   4121473.29747  23041705.917    23041707.5904   23041713.2244
     -1766.243       -1376.293
     15964.814 9     14352.14148  20816889.942    20816891.2044   20816896.1764
      -398.816        -310.766
  -3144505.305 9  -2431682.42248  20220901.002    20220902.2714   20220907.1174
       -32.915         -25.648
   3586747.921 9   2788689.16646  24423407.512    24423408.5034   24423413.0164
     -1986.692       -1548.072
  -1731549.857 9  -1340892.08047  22694601.761    22694603.3154   22694608.1714
      -561.555        -437.575
  10396669.431 8   8090063.42846  24695966.254    24695969.8604   24695977.5234
     -3402.011       -2650.918
 96 11 14 17 18 59.9990000  0  9 25 15  3 23 21  1  9 31 17         -0.000130722
  -8487953.081 9  -6100314.45246  23677507.737    23677511.4094   23677517.9164
      3516.214        2739.907
  -4233302.802 8  -3279531.45845  24091658.805    24091660.3964   24091666.7294
      3778.567        2944.338
   5794964.812 9   4512973.28647  22721294.803    22721296.3594   22721302.0904
     -2418.641       -1884.655
   5489348.769 9   4162801.12147  23051798.765    23051800.3164   23051805.9574
     -1769.600       -1378.909
     28031.589 9     23754.80448  20819186.301    20819187.4724   20819192.4314
      -405.894        -316.281
  -3143275.510 9  -2430724.14348  20221135.178    20221136.3094   20221141.1714
       -49.100         -38.260
   3646566.753 9   2835301.21146  24434790.991    24434791.4994   24434796.3064
     -2001.271       -1559.432
  -1714448.599 9  -1327566.45747  22697856.231    22697857.6254   22697862.5334
      -578.805        -451.017
  10498802.534 8   8169647.55546  24715400.225    24715405.3464   24715412.9844
     -3406.715       -2654.583
 96 11 14 17 19 29.9990000  0  9 25 15  3 23 21  1  9 31 17         -0.000135089
  -8593396.103 9  -6182477.81146  23657442.857    23657446.1544   23657452.7504
      3513.512        2737.802
  -4346618.698 8  -3367829.58846  24070095.334    24070097.2624   24070103.2994
      3775.948        2942.297
   5867682.120 9   4569636.06947  22735132.122    22735134.0204   22735139.8074
     -2429.067       -1892.779
   5542503.332 9   4204220.21747  23061913.827    23061915.3424   23061920.9384
     -1774.068       -1382.391
     40332.936 9     33340.25048  20821527.093    20821528.3724   20821533.3324
      -413.974        -322.577
  -3141549.639 9  -2429379.31348  20221463.496    20221464.7624   20221469.5914
       -65.751         -51.235
   3706828.043 9   2882258.04246  24446257.879    24446258.8154   24446263.8044
     -2015.909       -1570.838
  -1696814.947 9  -1313825.98447  22701211.756    22701213.1344   22701218.2094
      -596.777        -465.021
  10601076.835 8   8249341.71546  24734863.934    24734867.6374   24734875.4994
     -3411.333       -2658.182
 96 11 14 17 19 59.9990000  0  9 25 15  3 23 21  1  9 31 17         -0.000139444
  -8698757.796 9  -6264577.82146  23637393.581    23637396.5254   23637403.0904
      3511.307        2736.083
  -4459851.946 8  -3456063.28046  24048547.773    24048549.7634   24048555.6414
      3773.582        2940.454
   5940703.482 9   4626535.77347  22749027.409    22749029.4534   22749035.3764
     -2438.223       -1899.914
   5595805.701 9   4245754.48647  23072057.298    23072058.5484   23072064.0874
     -1778.768       -1386.053
     52874.266 9     43112.69548  20823913.659    20823914.9294   20823919.9044
      -421.534        -328.468
  -3139328.316 9  -2427648.41148  20221886.196    20221887.5194   20221892.2984
       -81.617         -63.598
   3767520.978 9   2929551.23446  24457806.866    24457808.3774   24457813.3764
     -2029.704       -1581.588
  -1678641.255 9  -1299664.69047  22704670.033    22704671.5014   22704676.4394
      -614.021        -478.458
  10703484.842 8   8329140.08346  24754351.907    24754355.1924   24754363.1914
     -3415.306       -2661.277
 96 11 14 17 20 29.9990000  0  9 25 15  3 23 21  1  9 31 17         -0.000143801
  -8804063.730 9  -6346634.37846  23617354.412    23617357.5624   23617364.0464
      3509.280        2734.504
  -4573018.089 8  -3544244.66345  24027013.434    24027015.0334   24027020.8164
      3771.025        2938.461
   6013990.725 9   4683642.65247  22762973.216    22762975.5294   22762981.4884
     -2447.333       -1907.013
   5649237.624 9   4287389.69547  23082225.170    23082226.3464   23082231.9044
     -1783.021       -1389.367
     65634.924 9     53056.04648  20826341.966    20826343.2234   20826348.2224
      -428.896        -334.205
  -3136641.025 9  -2425554.42548  20222397.637    20222398.9104   20222403.6574
       -97.175         -75.721
   3828620.617 9   2977161.31446  24469433.044    24469435.2574   24469440.4224
     -2043.530       -1592.361
  -1659962.278 9  -1285109.66747  22708224.553    22708225.9644   22708230.7974
      -631.141        -491.798
  10806008.316 8   8409028.40446  24773861.065    24773864.5684   24773872.6304
     -3419.686       -2664.690
 96 11 14 17 20 59.9990000  0  9 25 15  3 23 21  1  9 31 17         -0.000148156
  -8909312.881 9  -6428646.69046  23597326.465    23597329.4634   23597335.7424
      3507.407        2733.044
  -4686111.761 8  -3632369.63545  24005492.260    24005494.1124   24005499.9294
      3768.539        2936.524
   6087540.586 9   4740954.18847  22776969.161    22776971.6564   22776977.5134
     -2455.914       -1913.699
   5702782.292 9   4329112.76547  23092414.094    23092415.5584   23092421.1744
     -1786.662       -1392.204
     78609.504 9     63166.08648  20828810.949    20828812.2124   20828817.1984
      -436.193        -339.891
  -3133502.864 9  -2423109.10948  20222994.590    20222996.0774   20223000.7874
      -112.019         -87.288
   3890140.516 9   3025098.89546  24481139.985    24481142.2054   24481147.3544
     -2057.845       -1603.515
  -1640772.798 9  -1270156.86647  22711876.106    22711877.6284   22711882.5324
      -648.341        -505.201
  10908660.769 8   8489017.22345  24793395.463    24793398.6534   24793406.5994
     -3423.838       -2667.926
 96 11 14 17 21 29.9990000  0  9 25 15  3 23 21  1  9 31 17         -0.000152505
  -9014512.921 9  -6510620.71646  23577308.405    23577310.4984   23577316.8434
      3505.762        2731.763
  -4799135.621 8  -3720440.20845  23983984.072    23983986.2784   23983992.1254
      3766.203        2934.704
   6161345.548 9   4798464.50247  22791013.773    22791016.2894   22791022.1424
     -2464.504       -1920.393
   5756440.407 9   4370924.24647  23102624.207    23102626.2894   23102632.0164
     -1790.596       -1395.270
     91798.082 9     73442.87848  20831320.645    20831321.9474   20831326.9334
      -442.984        -345.182
  -3129927.308 9  -2420322.97048  20223674.890    20223676.4794   20223681.1654
      -126.493         -98.566
   3952082.657 9   3073365.49346  24492927.599    24492929.3974   24492934.6434
     -2071.858       -1614.435
  -1621072.356 9  -1254805.88847  22715625.124    22715626.5194   22715631.5354
      -665.088        -518.250
  11011438.343 8   8569103.54545  24812955.304    24812956.8634   24812964.6414
     -3428.289       -2671.394
 96 11 14 17 21 59.9990000  0  9 25 15  3 23 21  1  9 31 17         -0.000156837
  -9119644.416 9  -6592541.34946  23557302.520    23557304.6204   23557310.9494
      3503.226        2729.786
  -4912067.570 8  -3808439.11345  23962493.923    23962496.2524   23962501.8664
      3762.867        2932.104
   6235419.981 9   4856184.78647  22805109.841    22805112.1754   22805118.1364
     -2473.564       -1927.452
   5810227.514 9   4412836.21847  23112859.919    23112861.6424   23112867.4564
     -1794.725       -1398.487
    105201.564 9     83887.12848  20833871.249    20833872.5644   20833877.5504
      -450.496        -351.036
  -3125900.032 9  -2417184.84048  20224441.291    20224442.8164   20224447.5604
      -141.839        -110.524
   4014472.528 9   3121980.97346  24504799.848    24504801.8074   24504806.9494
     -2087.312       -1626.477
  -1600850.076 9  -1239048.28747  22719473.205    22719474.6084   22719479.7104
      -682.929        -532.152
  11114370.743 8   8649310.52345  24832543.462    24832544.2254   24832552.3674
     -3433.560       -2675.501
 96 11 14 17 22 29.9990000  0  9 25 15  3 23 21  1  9 31 17         -0.000161169
  -9224730.727 9  -6674426.77746  23537305.072    23537307.3064   23537313.6314
      3501.928        2728.775
  -5024928.732 8  -3896382.84545  23941017.092    23941019.5034   23941025.1744
      3760.796        2930.490
   6309741.715 9   4914097.77747  22819253.053    22819255.1824   22819261.0984
     -2481.527       -1933.657
   5864093.946 9   4454810.02047  23123110.784    23123112.0694   23123118.0084
     -1796.739       -1400.056
    118807.985 9     94489.51448  20836460.565    20836461.8144   20836466.7904
      -457.155        -356.225
  -3121443.424 9  -2413712.16348  20225289.651    20225290.8974   20225295.6504
      -155.691        -121.318
   4077296.415 9   3170934.66446  24516754.743    24516756.7724   24516762.0314
     -2101.348       -1637.414
  -1580111.209 9  -1222888.16747  22723419.649    22723421.1334   22723426.2504
      -700.286        -545.677
  11217438.022 8   8729622.59745  24852157.446    24852157.2874   24852165.6674
     -3437.961       -2678.931
 96 11 14 17 22 59.9990000  0  9 25 15  3 23 21  1  9 31 17         -0.000165491
  -9329738.306 9  -6756250.86746  23517322.785    23517325.0804   23517331.2474
      3498.828        2726.359
  -5137702.164 9  -3984258.22846  23919557.248    23919559.2774   23919565.1474
      3757.626        2928.020
   6384315.158 9   4972206.88747  22833443.750    22833446.0784   22833452.0244
     -2489.899       -1940.181
   5918039.393 9   4496845.36747  23133376.623    23133377.6144   23133383.5104
     -1799.480       -1402.192
    132648.655 9    105274.42248  20839094.308    20839095.6454   20839100.6214
      -465.397        -362.647
  -3116542.695 9  -2409893.42148  20226222.021    20226223.4704   20226228.2324
      -170.990        -133.239
   4140558.660 9   3220229.91446  24528792.649    24528795.0724   24528800.5304
     -2115.728       -1648.619
  -1558823.621 9  -1206300.46047  22727470.522    22727472.0684   22727477.4154
      -718.655        -559.991
  11320654.657 8   8810051.04945  24871797.528    24871798.6384   24871807.2114
     -3442.906       -2682.784
 96 11 14 17 23 29.9990000  0  9 25 15  3 23 21  1  9 31 17         -0.000169816
  -9434663.984 9  -6838011.13546  23497355.907    23497358.4414   23497364.5264
      3496.650        2724.662
  -5250386.898 9  -4072064.47946  23898114.375    23898116.0284   23898121.9674
      3755.086        2926.041
   6459131.810 9   5030505.52547  22847681.272    22847683.3554   22847689.2824
     -2497.489       -1946.095
   5972059.988 9   4538939.28047  23143656.685    23143657.4784   23143663.3294
     -1801.455       -1403.731
    146730.478 9    116247.24748  20841774.030    20841775.3474   20841780.3374
      -472.945        -368.529
  -3111185.580 9  -2405719.04648  20227241.379    20227242.8834   20227247.6824
      -185.786        -144.768
   4204230.306 9   3269844.16746  24540909.266    24540911.2494   24540916.9314
     -2128.652       -1658.690
  -1537001.683 9  -1189296.36947  22731623.364    22731624.7804   22731630.0574
      -735.687        -573.263
  11424005.604 8   8890584.14045  24891463.513    24891465.8114   24891474.0484
     -3446.739       -2685.771
 96 11 14 17 23 59.9990000  0  9 25 15  3 23 21  1  9 31 17         -0.000174161
  -9539517.704 9  -6919715.32446  23477402.869    23477405.4894   23477411.5254
      3494.044        2722.632
  -5362993.331 9  -4159809.72746  23876686.219    23876687.7154   23876693.7294
      3752.450        2923.987
   6534172.192 9   5088978.48447  22861961.474    22861963.1304   22861969.1014
     -2504.791       -1951.785
   6026133.618 9   4581074.52047  23153946.483    23153947.4484   23153953.2734
     -1803.075       -1404.994
    161042.677 9    127399.58548  20844497.615    20844498.8854   20844503.9174
      -480.717        -374.585
  -3105384.966 9  -2401199.08948  20228345.063    20228346.6754   20228351.4754
      -200.372        -156.134
   4268288.561 8   3319759.66946  24553099.019    24553100.9964   24553106.7814
     -2141.328       -1668.567
  -1514674.184 9  -1171898.36047  22735872.245    22735873.6124   22735878.8634
      -752.427        -586.307
  11527468.718 8   8971204.60345  24911151.740    24911154.4404   24911162.4304
     -3450.181       -2688.453
 96 11 14 17 24 29.9990000  0  9 25 15  3 23 21  1  9 31 17         -0.000178524
  -9644286.398 9  -7001353.26047  23457466.504    23457468.6114   23457474.7184
      3490.603        2719.950
  -5475520.061 9  -4247492.92645  23855273.503    23855274.6874   23855280.4364
      3749.487        2921.678
   6609435.716 9   5147625.31947  22876283.497    22876285.3774   22876291.3294
     -2512.614       -1957.881
   6080267.874 9   4623256.99247  23164247.382    23164248.8974   23164254.7724
     -1805.840       -1407.148
    175589.834 9    138735.00148  20847265.863    20847267.1424   20847272.1704
      -488.654        -380.769
  -3099144.921 9  -2396336.72048  20229532.243    20229534.0374   20229538.9164
      -215.501        -167.923
   4332714.364 8   3369961.57546  24565358.961    24565360.7644   24565366.6984
     -2153.683       -1678.195
  -1491851.585 9  -1154114.55247  22740214.990    22740216.3844   22740221.8994
      -768.856        -599.109
  11631034.634 8   9051905.20245  24930859.362    24930862.3204   24930870.5924
     -3453.959       -2691.397
 96 11 14 17 24 59.9990000  0  9 25 15  3 23 21  1  9 31 17         -0.000182899
  -9748943.966 9  -7082904.58646  23437550.842    23437552.8564   23437559.0244
      3486.407        2716.681
  -5587955.982 9  -4335105.30246  23833878.121    23833878.7494   23833884.5574
      3745.908        2918.889
   6684934.038 9   5206455.13247  22890650.221    22890652.2764   22890658.1484
     -2521.083       -1964.480
   6134496.823 9   4665513.26147  23174566.481    23174568.3384   23174574.2994
     -1809.843       -1410.267
    190362.078 9    150245.81948  20850077.061    20850078.2604   20850083.2194
      -496.374        -386.785
  -3092440.962 9  -2391112.85548  20230808.254    20230809.7954   20230814.6644
      -231.759        -180.591
   4397520.638 8   3420459.95146  24577690.746    24577692.9534   24577698.7374
     -2167.149       -1688.688
  -1468548.261 9  -1135956.14747  22744649.372    22744650.6824   22744656.3144
      -785.038        -611.718
  11734708.942 8   9132690.25545  24950588.260    24950590.8984   24950599.2894
     -3457.962       -2694.516
 96 11 14 17 25 29.9990000  0  9 25 15  3 23 21  1  9 31 17         -0.000187276
  -9853490.020 9  -7164369.01646  23417656.491    23417658.3524   23417664.5334
      3483.388        2714.328
  -5700290.164 9  -4422638.41546  23812500.999    23812502.0864   23812508.3244
      3743.180        2916.764
   6760683.395 9   5265480.56647  22905064.483    22905066.9244   22905072.7974
     -2528.581       -1970.323
   6188850.203 9   4707866.47347  23184909.714    23184911.5124   23184917.4844
     -1813.603       -1413.197
    205350.860 9    161925.36748  20852929.178    20852930.5234   20852935.4654
      -502.681        -391.699
  -3085256.756 9  -2385514.77448  20232175.589    20232176.9214   20232181.8024
      -247.031        -192.492
   4462728.839 8   3471271.50446  24590099.144    24590101.6324   24590107.5334
     -2180.097       -1698.777
  -1444758.616 9  -1117418.78647  22749176.355    22749177.7794   22749183.2864
      -800.934        -624.104
  11838493.057 8   9213560.84845  24970338.621    24970340.5534   24970349.0064
     -3460.886       -2696.794
 96 11 14 17 25 59.9990000  0  9 25 15  3 23 21  1  9 31 17         -0.000191652
  -9957923.714 9  -7245745.90047  23397783.901    23397785.3744   23397791.3364
      3479.218        2711.079
  -5812530.526 9  -4510098.40746  23791142.201    23791143.2394   23791149.6034
      3739.873        2914.187
   6836665.654 9   5324687.45447  22919523.392    22919525.9354   22919531.8174
     -2536.471       -1976.471
   6243324.043 9   4750313.55947  23195276.349    23195277.6134   23195283.5854
     -1817.584       -1416.299
    220531.674 9    173754.55448  20855818.049    20855819.3594   20855824.3134
      -509.017        -396.637
  -3077602.058 9  -2379550.07048  20233632.077    20233633.5774   20233638.4194
      -262.850        -204.818
   4528348.521 8   3522403.67446  24602585.894    24602588.6454   24602594.5324
     -2194.119       -1709.703
  -1420472.477 9  -1098494.56447  22753797.890    22753799.2604   22753804.7484
      -817.789        -637.238
  11942377.967 8   9294510.01845  24990108.674    24990109.5774   24990117.9144
     -3464.471       -2699.588
 96 11 14 17 26 29.9990000  0  9 25 15  3 23 21  1  9 31 17         -0.000195982
 -10062240.580 9  -7327031.73747  23377932.967    23377934.5714   23377940.4004
      3475.358        2708.071
  -5924672.974 9  -4597482.17346  23769802.459    23769803.5754   23769809.7004
      3736.358        2911.448
   6912881.930 9   5384076.70347  22934027.223    22934029.4344   22934035.3544
     -2544.634       -1982.832
   6297909.952 9   4792847.97447  23205663.693    23205664.9804   23205670.9554
     -1821.341       -1419.227
    235897.882 9    185728.20748  20858742.252    20858743.4754   20858748.4214
      -515.357        -401.577
  -3069470.362 9  -2373213.68348  20235179.356    20235180.9944   20235185.8374
      -279.203        -217.561
   4594391.253 8   3573865.50346  24615153.922    24615156.3014   24615162.0604
     -2208.653       -1721.028
  -1395685.532 9  -1079180.11247  22758514.950    22758516.2794   22758521.5344
      -834.733        -650.441
  12046368.620 8   9375541.56345  25009898.219    25009898.2694   25009906.8574
     -3468.054       -2702.380
 96 11 14 17 26 59.9990000  0  9 25 15  3 23 21  1  9 31 17         -0.000200381
 -10166456.392 9  -7408238.82347  23358101.570    23358102.9144   23358108.6894
      3472.200        2705.610
  -6036721.933 9  -4684793.03446  23748479.885    23748481.3934   23748487.6564
      3733.182        2908.973
   6989328.988 9   5443645.77847  22948574.990    22948576.9224   22948582.7904
     -2552.099       -1988.649
   6352590.515 9   4835456.13347  23216069.206    23216070.4044   23216076.3854
     -1824.328       -1421.554
    251449.323 9    197846.20448  20861701.479    20861702.8004   20861707.7674
      -521.887        -406.665
  -3060860.405 9  -2366504.62348  20236818.057    20236819.3954   20236824.2844
      -294.846        -229.750
   4660858.134 8   3625657.84346  24627801.513    24627804.4404   24627810.4024
     -2222.613       -1731.906
  -1370394.147 9  -1059472.57147  22763327.696    22763329.1134   22763334.0984
      -851.691        -663.655
  12150456.081 8   9456648.48445  25029703.361    25029705.5184   25029713.9754
     -3471.265       -2704.882
 96 11 14 17 27 29.9990000  0  9 25 15  3 23 21  1  9 31 17         -0.000204789
 -10270579.716 9  -7489373.84447  23338287.347    23338288.8254   23338294.6434
      3469.151        2703.235
  -6148671.988 9  -4772026.82746  23727176.774    23727178.0744   23727184.2324
      3730.031        2906.518
   7065998.554 9   5503388.24147  22963164.914    22963166.7144   22963172.6704
     -2559.304       -1994.263
   6407360.277 9   4878133.80447  23226491.156    23226492.7944   23226498.6814
     -1827.020       -1423.652
    267208.384 9    210125.98448  20864700.388    20864701.6614   20864706.6394
      -528.883        -412.117
  -3051798.703 9  -2359443.55448  20238542.275    20238543.7514   20238548.7004
      -309.346        -241.049
   4727737.355 8   3677771.48246  24640529.106    24640531.2764   24640537.0464
     -2236.112       -1742.425
  -1344589.173 9  -1039364.82147  22768238.305    22768239.7424   22768244.5654
      -868.680        -676.894
  12254639.208 8   9537830.02145  25049527.175    25049530.6154   25049539.1294
     -3474.450       -2707.364
 96 11 14 17 27 59.9990000  0  9 25 15  3 23 21  1  9 31 17         -0.000209195
 -10374593.904 9  -7570423.81647  23318494.206    23318495.4694   23318501.3694
      3465.238        2700.185
  -6260512.728 9  -4859175.42146  23705894.401    23705895.3604   23705901.6504
      3726.054        2903.419
   7142904.180 9   5563314.63847  22977799.600    22977801.4624   22977807.4474
     -2567.716       -2000.818
   6462220.530 9   4920882.01047  23236930.466    23236932.4364   23236938.2534
     -1830.269       -1426.184
    283195.992 9    222583.85648  20867742.692    20867743.9594   20867748.9724
      -536.968        -418.417
  -3042294.614 9  -2352037.77448  20240350.718    20240352.3584   20240357.2864
      -324.121        -252.562
   4795026.484 8   3730204.52446  24653334.647    24653335.9524   24653341.8464
     -2249.733       -1753.039
  -1318280.228 9  -1018864.37647  22773244.874    22773246.2204   22773251.0084
      -885.127        -689.709
  12358937.069 8   9619100.94145  25069375.753    25069378.0714   25069386.7524
     -3478.644       -2710.632
 96 11 14 17 28 29.9990000  0  9 25 15  3 23 21  1  9 31 17         -0.000213596
 -10478505.136 9  -7651393.56047  23298719.946    23298721.8744   23298727.6774
      3462.414        2697.985
  -6372241.452 9  -4946236.81446  23684632.938    23684634.1214   23684640.2864
      3722.778        2900.866
   7220053.954 9   5623431.26347  22992481.008    22992482.6964   22992488.6634
     -2575.324       -2006.746
   6517180.510 9   4963707.90547  23247388.634    23247391.0434   23247396.8814
     -1833.534       -1428.728
    299425.405 9    235230.15048  20870831.024    20870832.3154   20870837.3454
      -544.757        -424.486
  -3032359.536 9  -2344296.15048  20242241.260    20242242.9444   20242247.9024
      -338.011        -263.385
   4862706.903 8   3782942.47346  24666212.468    24666215.0594   24666220.9974
     -2262.033       -1762.623
  -1291493.290 9   -997991.47547  22778342.337    22778343.6044   22778348.3954
      -900.521        -701.705
  12463347.057 8   9700459.24245  25089244.382    25089246.8634   25089255.7134
     -3481.712       -2713.022
 96 11 14 17 28 59.9990000  0  9 25 15  3 23 21  1  9 31 17         -0.000217984
 -10582325.858 9  -7732292.77347  23278963.884    23278965.4784   23278971.1874
      3458.681        2695.076
  -6483863.844 9  -5033215.27546  23663391.937    23663393.1844   23663399.2384
      3718.481        2897.518
   7297428.480 9   5683723.03747  23007204.842    23007206.6314   23007212.5914
     -2583.081       -2012.790
   6572251.889 9   5006620.61847  23257868.860    23257870.8234   23257876.7164
     -1838.103       -1432.288
    315899.254 9    248066.92048  20873965.820    20873967.1784   20873972.2414
      -553.563        -431.348
  -3022008.740 9  -2336230.59848  20244211.012    20244212.6824   20244217.6074
      -352.160        -274.410
   4930764.197 8   3835974.09546  24679162.916    24679165.9044   24679171.8234
     -2275.210       -1772.891
  -1264232.952 9   -976749.66047  22783529.690    22783531.1644   22783535.8614
      -916.997        -714.543
  12567856.848 8   9781895.27345  25109131.709    25109134.7944   25109143.0304
     -3485.950       -2716.325
 96 11 14 17 29 29.9990000  0  8 25 15  3 23 21  1  9 31            -0.000222352
 -10686045.905 9  -7813113.51847  23259226.738    23259228.1504   23259233.8534
      3455.809        2692.838
  -6595372.518 9  -5120105.13346  23642172.497    23642173.7434   23642179.8764
      3715.318        2895.053
   7375018.954 9   5744183.08747  23021969.897    23021971.6094   23021977.7634
     -2589.684       -2017.936
   6627439.382 9   5049623.80247  23268371.348    23268372.6994   23268378.7224
     -1841.049       -1434.584
    332612.560 9    261090.26948  20877146.196    20877147.6134   20877152.6804
      -560.681        -436.894
  -3011252.892 9  -2327849.41948  20246257.747    20246259.4344   20246264.3814
      -365.238        -284.601
   4999200.244 8   3889300.84446  24692186.262    24692189.0354   24692194.8114
     -2287.270       -1782.288
  -1236503.719 9   -955142.49647  22788806.531    22788807.8654   22788812.6354
      -931.874        -726.135
 96 11 14 17 29 59.9990000  0  8 25 15  3 23 21  1  9 31            -0.000226718
 -10789666.768 9  -7893856.99247  23239508.132    23239509.6174   23239515.3914
      3452.470        2690.236
  -6706769.503 9  -5206907.93546  23620973.926    23620975.4494   23620981.6164
      3711.355        2891.965
   7452818.435 9   5804805.98247  23036774.461    23036776.2954   23036782.6404
     -2596.623       -2023.343
   6682733.612 9   5092710.15047  23278894.122    23278894.8724   23278900.9574
     -1844.834       -1437.533
    349555.976 9    274292.92948  20880370.472    20880371.8484   20880376.9144
      -568.516        -442.999
  -3000077.025 9  -2319140.95448  20248384.388    20248386.1234   20248391.0764
      -379.647        -295.829
   5068016.801 8   3942924.10246  24705282.098    24705284.4904   24705290.2504
     -2300.329       -1792.464
  -1208319.118 9   -933180.50047  22794170.157    22794171.2464   22794176.1474
      -947.218        -738.092
 96 11 14 17 30 29.9990000  0  8 25 15  3 23 21  1  9 31            -0.000231078
 -10893178.254 9  -7974515.25747  23219811.061    23219812.0234   23219817.7824
      3449.287        2687.756
  -6818035.851 9  -5293608.99646  23599800.538    23599802.2704   23599808.2634
      3707.285        2888.794
   7530825.508 9   5865590.63547  23051618.647    23051620.5484   23051626.9194
     -2602.834       -2028.182
   6738149.283 9   5135891.12947  23289439.845    23289440.2084   23289446.2494
     -1848.515       -1440.401
    366734.602 9    287678.86648  20883639.527    20883640.8104   20883645.8954
      -575.791        -448.668
  -2988456.385 9  -2310085.91748  20250595.808    20250597.4464   20250602.4364
      -394.179        -307.152
   5137240.435 9   3996864.57546  24718455.655    24718457.2574   24718463.1224
     -2313.592       -1802.799
  -1179651.042 9   -910841.80147  22799625.262    22799626.3644   22799631.6064
      -963.270        -750.600
 96 11 14 17 30 59.9990000  0  8 25 15  3 23 21  1  9 31            -0.000235453
 -10996606.665 9  -8055108.76947  23200129.173    23200130.2124   23200135.9684
      3446.054        2685.237
  -6929193.349 9  -5380225.22446  23578648.103    23578649.7824   23578655.6924
      3703.365        2885.739
   7608996.022 9   5926502.65147  23066494.517    23066495.9724   23066502.2864
     -2608.542       -2032.630
   6793652.482 9   5179140.31447  23300002.023    23300002.1594   23300008.1954
     -1851.622       -1442.822
    384115.553 9    301222.44748  20886947.051    20886948.3174   20886953.3954
      -582.696        -454.049
  -2976415.076 9  -2300703.08748  20252887.291    20252888.7924   20252893.8364
      -408.342        -318.189
   5206846.202 8   4051102.81746  24731702.422    24731702.7264   24731708.6864
     -2326.473       -1812.836
  -1150509.394 9   -888134.06047  22805170.609    22805171.9134   22805177.0714
      -979.258        -763.058
 96 11 14 17 31 29.9990000  0  8 25 15  3 23 21  1  9 31            -0.000239838
 -11099926.644 9  -8135617.78947  23180468.081    23180469.0824   23180474.7504
      3441.713        2681.854
  -7040227.162 9  -5466745.06146  23557519.383    23557520.8184   23557526.6934
      3698.665        2882.077
   7687352.799 9   5987559.80547  23081405.708    23081406.8894   23081413.2484
     -2615.392       -2037.968
   6849247.558 9   5222461.07147  23310581.488    23310581.6034   23310587.6514
     -1855.137       -1445.561
    401709.470 9    314931.97948  20890295.010    20890296.3204   20890301.4184
      -590.619        -460.223
  -2963939.485 9  -2290981.85548  20255261.369    20255262.8414   20255267.8764
      -423.615        -330.090
   5276835.868 9   4105640.19546  24745020.735    24745021.3124   24745027.2244
     -2339.727       -1823.164
  -1120892.999 9   -865056.38747  22810806.598    22810807.8284   22810813.0984
      -995.573        -775.771
 96 11 14 17 31 59.9990000  0  8 25 15  3 23 21  1  9 31            -0.000244231
 -11203128.956 9  -8216035.12547  23160829.440    23160830.3734   23160835.9114
      3438.150        2679.078
  -7151134.884 9  -5553166.65546  23536414.496    23536415.6694   23536421.6664
      3695.087        2879.289
   7765893.336 9   6048760.14547  23096351.158    23096352.6104   23096359.0794
     -2620.746       -2042.140
   6904945.396 9   5265861.94047  23321179.279    23321180.5384   23321186.7004
     -1858.080       -1447.855
    419530.643 9    328818.58948  20893686.211    20893687.5974   20893692.6924
      -597.419        -465.521
  -2951023.874 9  -2280917.75448  20257719.265    20257720.6524   20257725.6714
      -437.467        -340.883
   5347204.439 8   4160472.83746  24758411.435    24758412.2234   24758417.8314
     -2351.547       -1832.374
  -1090797.356 9   -841605.27947  22816533.645    22816534.8034   22816540.2594
     -1011.050        -787.831
 96 11 14 17 32 29.9990000  0  8 25 15  3 23 21  1  9 31            -0.000248623
 -11306196.909 9  -8296347.74747  23141215.577    23141217.1174   23141222.6894
      3433.118        2675.157
  -7261916.254 9  -5639489.79846  23515333.549    23515334.6114   23515340.7184
      3690.438        2875.666
   7844610.600 9   6110098.20047  23111330.605    23111332.0714   23111338.4884
     -2626.969       -2046.989
   6960747.215 9   5309343.81547  23331796.907    23331799.2274   23331805.4794
     -1861.905       -1450.835
    437571.124 9    342876.09348  20897119.216    20897120.6034   20897125.7304
      -605.321        -471.679
  -2937680.510 9  -2270520.33748  20260258.453    20260259.8554   20260264.8484
      -451.993        -352.202
   5417941.821 9   4215592.87546  24771871.274    24771873.0154   24771878.6094
     -2364.077       -1842.138
  -1060219.327 9   -817778.29547  22822352.359    22822353.7074   22822359.0954
     -1027.396        -800.568
 96 11 14 17 32 59.9990000  0  8 25 15  3 23 21  1  9 31            -0.000253004
 -11409100.572 9  -8376532.37147  23121632.899    23121635.0774   23121640.7684
      3427.148        2670.505
  -7372561.232 9  -5725706.61646  23494278.203    23494279.5014   23494285.8624
      3685.846        2872.088
   7923518.663 9   6171584.93447  23126346.372    23126347.8634   23126354.2004
     -2633.720       -2052.249
   7016657.241 9   5352910.01947  23342436.166    23342438.6054   23342444.8944
     -1865.513       -1453.646
    455860.090 9    357127.22348  20900599.553    20900600.8954   20900606.0364
      -613.959        -478.410
  -2923904.627 9  -2259785.89348  20262879.884    20262881.3964   20262886.3134
      -466.413        -363.439
   5489050.337 9   4271002.09846  24785402.348    24785404.6194   24785410.0314
     -2376.618       -1851.910
  -1029159.069 9   -793575.54547  22828262.827    22828264.2924   22828269.8234
     -1043.372        -813.017
 96 11 14 17 33 29.9990000  0  8 25 15  3 23 21  1  9 31            -0.000257378
 -11511832.011 9  -8456582.78847  23102083.950    23102085.9384   23102091.6494
      3421.460        2666.073
  -7483075.821 9  -5811821.84946  23473247.820    23473249.2274   23473255.7014
      3681.575        2868.760
   8002624.389 9   6233225.68547  23141399.869    23141401.2944   23141407.5384
     -2639.996       -2057.140
   7072667.657 9   5396554.42747  23353094.085    23353097.0224   23353103.4074
     -1868.662       -1456.100
    474397.657 9    371572.06048  20904127.266    20904128.5384   20904133.6604
      -622.042        -484.708
  -2909702.859 9  -2248719.59048  20265582.380    20265583.9054   20265588.8034
      -480.520        -374.431
   5560528.087 8   4326699.03446  24799003.766    24799006.3444   24799011.8774
     -2388.781       -1861.388
   -997628.344 9   -769006.19947  22834262.768    22834264.3274   22834269.8794
     -1058.925        -825.136
 96 11 14 17 33 59.9990000  0  8 25 15  3 23 21  1  9 31            -0.000261746
 -11614395.320 9  -8536502.21447  23082566.860    23082568.8254   23082574.4574
      3416.179        2661.958
  -7593456.208 9  -5897832.54446  23452242.964    23452244.4594   23452250.9404
      3677.150        2865.312
   8081916.465 9   6295011.66247  23156488.335    23156490.0924   23156496.3534
     -2646.178       -2061.957
   7128782.330 9   5440280.09847  23363772.157    23363775.3474   23363781.6734
     -1872.043       -1458.735
    493167.462 9    386197.86648  20907699.025    20907700.3294   20907705.4514
      -629.124        -490.226
  -2895075.533 9  -2237321.68548  20268365.771    20268367.4204   20268372.2814
      -494.506        -385.329
   5632381.625 8   4382688.81446  24812676.933    24812679.4844   24812685.1754
     -2401.309       -1871.150
   -965623.716 9   -744067.54647  22840353.229    22840354.7524   22840360.2024
     -1074.651        -837.390
 96 11 14 17 34 29.9990000  0  8 25 15  3 23 21  1  9 31            -0.000266113
 -11716802.375 9  -8616299.87047  23063079.176    23063081.3554   23063087.0044
      3410.785        2657.755
  -7703698.618 9  -5983735.70346  23431264.519    23431265.9344   23431272.4624
      3671.952        2861.261
   8161401.271 9   6356947.78647  23171613.970    23171615.4684   23171621.8724
     -2653.206       -2067.433
   7184995.375 9   5484082.39947  23374469.322    23374472.3074   23374478.7314
     -1875.836       -1461.690
    512158.712 9    400996.22748  20911312.969    20911314.2464   20911319.3474
      -637.318        -496.611
  -2880024.292 9  -2225593.45648  20271229.969    20271231.5444   20271236.4124
      -509.194        -396.775
   5704618.479 9   4438977.26446  24826423.022    24826425.7184   24826431.4504
     -2414.749       -1881.623
   -933152.042 9   -718764.97147  22846532.687    22846533.9204   22846539.1974
     -1090.632        -849.843
 96 11 14 17 34 59.9990000  0  8 25 15  3 23 21  1  9 31            -0.000270470
 -11819061.845 9  -8695982.52547  23043620.544    23043621.8944   23043627.6374
      3406.323        2654.278
  -7813789.334 9  -6069520.65847  23410315.040    23410316.3634   23410322.8754
      3667.071        2857.458
   8241090.351 9   6419043.11147  23186778.532    23186779.7954   23186786.3634
     -2659.742       -2072.526
   7241314.220 9   5527967.15347  23385187.664    23385189.4674   23385195.9814
     -1879.254       -1464.354
    531385.552 9    415978.16248  20914971.693    20914973.0474   20914978.0924
      -644.655        -502.329
  -2864542.902 9  -2213530.04748  20274175.923    20274177.5344   20274182.4204
      -523.186        -407.677
   5777245.362 9   4495569.62946  24840244.185    24840246.2234   24840252.0014
     -2427.458       -1891.526
   -900199.466 9   -693087.67447  22852803.246    22852804.5374   22852809.9074
     -1106.616        -862.298
 96 11 14 17 35 29.9990000  0  8 25 15  3 23 21  1  9 31            -0.000274834
 -11921212.569 9  -8775580.43247  23024181.743    23024183.1234   23024189.0014
      3403.260        2651.891
  -7923746.212 9  -6155201.31546  23389390.863    23389392.3214   23389398.8404
      3663.071        2854.341
   8320957.574 9   6481277.23247  23201976.694    23201978.0084   23201984.7184
     -2664.908       -2076.552
   7297727.546 9   5571925.52647  23395923.542    23395924.6304   23395931.1364
     -1881.970       -1466.470
    550804.368 9    431109.68548  20918667.031    20918668.3764   20918673.3964
      -650.264        -506.699
  -2848656.754 9  -2201151.23548  20277198.787    20277200.5534   20277205.4514
      -536.190        -417.810
   5850234.081 9   4552443.93046  24854133.809    24854135.5294   24854141.2124
     -2438.774       -1900.343
   -866780.375 9   -667046.89247  22859162.843    22859164.1524   22859169.3764
     -1121.531        -873.920
 96 11 14 17 35 59.9990000  0  8 25 15  3 23 21  1  9 31            -0.000279205
 -12023249.717 9  -8855089.86247  23004763.750    23004766.0644   23004771.9144
      3399.131        2648.674
  -8033563.090 9  -6240772.90146  23368493.309    23368494.8084   23368501.2314
      3658.106        2850.472
   8400990.338 9   6543640.35947  23217206.510    23217207.7914   23217214.5094
     -2670.679       -2081.048
   7354242.550 9   5615963.14247  23406678.335    23406679.1664   23406685.6034
     -1885.535       -1469.248
    570409.907 9    446386.71148  20922397.845    20922399.2154   20922404.2514
      -656.917        -511.883
  -2832364.414 9  -2188455.91648  20280298.989    20280300.8554   20280305.7684
      -549.900        -428.494
   5923584.254 9   4609599.87746  24868091.729    24868093.7404   24868099.3674
     -2451.142       -1909.981
   -832896.630 9   -640644.02147  22865610.973    22865612.0594   22865617.2374
     -1137.317        -886.221
 96 11 14 17 36 29.9990000  0  8 25 15  3 23 21  1  9 31            -0.000283571
 -12125150.668 9  -8934493.16747  22985372.771    22985374.9644   22985380.7494
      3394.372        2644.965
  -8143229.918 9  -6326227.56046  23347624.674    23347626.1184   23347632.1564
      3653.116        2846.584
   8481194.042 9   6606136.69547  23232468.774    23232470.0734   23232476.7294
     -2676.163       -2085.322
   7410861.389 9   5660081.64947  23417453.405    23417453.4114   23417459.7754
     -1889.019       -1471.963
    590226.424 9    461828.12948  20926168.811    20926170.2044   20926175.2764
      -664.120        -517.496
  -2815664.495 9  -2175443.00148  20283476.965    20283478.7934   20283483.6364
      -563.394        -439.008
   5997299.857 9   4667040.60046  24882119.334    24882121.4004   24882126.9104
     -2463.058       -1919.266
   -798548.385 9   -613879.21347  22872147.132    22872148.4214   22872153.4904
     -1152.581        -898.115
 96 11 14 17 36 59.9990000  0  8 25 15  3 23 21  1  9 31            -0.000287938
 -12226904.781 9  -9013782.05747  22966009.539    22966011.7904   22966017.5214
      3389.448        2641.128
  -8252749.867 9  -6411567.81846  23326783.710    23326785.2234   23326790.9894
      3648.507        2842.992
   8561556.472 9   6668756.69147  23247760.854    23247762.6104   23247769.2574
     -2680.907       -2089.018
   7467581.299 9   5704278.90847  23428247.253    23428246.9044   23428253.3154
     -1892.116       -1474.376
    610252.535 9    477432.86548  20929979.798    20929981.1034   20929986.1764
      -670.798        -522.700
  -2798559.620 9  -2162114.53348  20286731.922    20286733.7294   20286738.6324
      -576.751        -449.416
   6071365.708 8   4724754.22646  24896214.216    24896215.7074   24896221.2204
     -2474.406       -1928.109
   -763742.946 9   -586758.14247  22878770.552    22878771.8144   22878776.6304
     -1167.399        -909.662
 96 11 14 17 37 29.9990000  0  8 25 15  3 23 21  1  9 31            -0.000292308
 -12328490.240 9  -9092939.52047  22946678.192    22946680.6684   22946686.4174
      3382.895        2636.022
  -8362115.859 9  -6496787.99946  23305972.554    23305973.3904   23305979.3844
      3642.622        2838.407
   8642072.106 9   6731496.07747  23263082.016    23263084.2364   23263090.8164
     -2686.643       -2093.488
   7524416.878 9   5748566.30947  23439063.118    23439062.4504   23439068.8554
     -1896.786       -1478.015
    630496.336 9    493207.23148  20933832.246    20933833.3994   20933838.4544
      -678.846        -528.971
  -2781028.820 9  -2148454.17848  20290068.035    20290069.7234   20290074.6654
      -591.908        -461.227
   6145786.050 8   4782744.07646  24910375.904    24910377.2914   24910382.9124
     -2486.835       -1937.793
   -728488.496 9   -559287.19047  22885479.453    22885480.6304   22885485.6124
     -1182.768        -921.637
 96 11 14 17 37 59.9990000  0  8 25 15  3 23 21  1  9 31            -0.000296681
 -12429890.883 9  -9171952.98147  22927382.620    22927384.7544   22927390.5344
      3377.116        2631.519
  -8471319.146 9  -6581881.49747  23285192.216    23285192.8604   23285198.6004
      3637.422        2834.355
   8722741.298 9   6794355.13347  23278432.473    23278435.0774   23278441.7104
     -2691.540       -2097.304
   7581376.133 9   5792950.08947  23449901.596    23449901.5714   23449907.7934
     -1900.549       -1480.947
    650978.529 9    509167.36048  20937729.777    20937731.0544   20937736.1274
      -686.807        -535.174
  -2763061.377 9  -2134453.58448  20293487.159    20293488.8194   20293493.7494
      -606.069        -472.262
   6220562.582 8   4841011.49846  24924605.128    24924606.7784   24924612.6334
     -2498.409       -1946.812
   -692792.421 9   -531472.12047  22892271.895    22892273.3284   22892278.5874
     -1197.258        -932.928
 96 11 14 17 38 29.9990000  0  8 25 15  3 23 21  1  9 31            -0.000301065
 -12531131.598 9  -9250841.82447  22908117.060    22908119.2504   22908125.0984
      3372.283        2627.753
  -8580376.719 9  -6666861.39146  23264439.640    23264439.9904   23264445.6424
      3632.964        2830.881
   8803549.987 9   6857322.87147  23293810.189    23293812.5344   23293819.1494
     -2695.883       -2100.688
   7638440.513 9   5837415.79247  23460759.767    23460760.6684   23460766.8824
     -1903.967       -1483.611
    671692.819 9    525308.34048  20941671.598    20941672.8704   20941677.9524
      -694.306        -541.018
  -2744676.535 9  -2120127.74648  20296985.738    20296987.3514   20296992.2704
      -619.679        -482.867
   6295672.388 8   4899538.59346  24938896.918    24938899.7464   24938905.6294
     -2508.843       -1954.943
   -656673.534 9   -503327.56847  22899145.207    22899146.5034   22899151.8844
     -1210.921        -943.575
 96 11 14 17 38 59.9990000  0  8 25 15  3 23 21  1  9 31            -0.000305455
 -12632206.578 9  -9329601.50947  22888882.923    22888885.2944   22888891.1414
      3366.185        2623.001
  -8689279.479 9  -6751720.68346  23243715.861    23243716.5004   23243722.0034
      3627.416        2826.558
   8884510.845 9   6920409.19847  23309216.839    23309218.9904   23309225.6484
     -2701.084       -2104.741
   7695625.758 9   5881975.64547  23471640.559    23471642.7004   23471648.9184
     -1908.258       -1486.954
    692655.821 9    541643.13048  20945660.837    20945662.0484   20945667.1084
      -702.902        -547.716
  -2725864.385 9  -2105468.93548  20300565.541    20300567.1924   20300572.1084
      -634.129        -494.126
   6371113.747 8   4958324.04846  24953253.336    24953255.8914   24953261.8344
     -2520.285       -1963.858
   -620115.218 9   -474840.60147  22906102.267    22906103.3364   22906109.0094
     -1226.005        -955.329
 96 11 14 17 39 29.9990000  0  8 25 15  3 23 21  1  9 31            -0.000309837
 -12733095.373 9  -9408216.11347  22869685.132    22869686.8204   22869692.5674
      3359.642        2617.903
  -8798015.807 9  -6836450.25146  23223023.827    23223024.5034   23223030.1074
      3621.653        2822.067
   8965622.093 9   6983612.70347  23324651.987    23324653.9094   23324660.7364
     -2706.393       -2108.878
   7752942.973 9   5926638.37847  23482547.070    23482549.8184   23482556.0884
     -1912.704       -1490.419
    713873.522 9    558176.38248  20949698.441    20949699.6584   20949704.7464
      -711.632        -554.518
  -2706626.916 9  -2090478.70848  20304226.323    20304227.9554   20304232.8804
      -648.204        -505.094
   6446897.239 8   5017376.12345  24967675.552    24967677.0234   24967682.8074
     -2532.056       -1973.031
   -583112.929 9   -446007.69147  22913143.172    22913144.4664   22913150.2094
     -1240.914        -966.946
 96 11 14 17 39 59.9990000  0  8 25 15  3 23 21  1  9 31            -0.000314205
 -12833794.163 9  -9486682.64847  22850522.484    22850524.5214   22850530.1124
      3353.511        2613.125
  -8906583.042 9  -6921048.09347  23202364.151    23202364.9484   23202370.5454
      3616.064        2817.712
   9046891.225 9   7046939.19447  23340117.383    23340118.9884   23340125.7974
     -2711.606       -2112.940
   7810371.908 9   5971388.11247  23493475.160    23493478.0884   23493484.4864
     -1915.918       -1492.923
    735345.400 9    574907.69348  20953784.339    20953785.6434   20953790.7384
      -719.823        -560.901
  -2686988.944 9  -2075176.39848  20307963.242    20307964.9644   20307969.8964
      -661.215        -515.232
   6523027.968 8   5076698.75145  24982162.809    24982164.2704   24982169.9844
     -2543.445       -1981.905
   -545667.262 9   -416829.31747  22920268.867    22920270.2464   22920275.9114
     -1255.725        -978.487
 96 11 14 17 40 29.9990000  0  8 25 15  3 23 21  1  9 31            -0.000318569
 -12934302.377 9  -9565000.69347  22831396.690    22831398.4624   22831403.9644
      3347.286        2608.275
  -9014980.946 9  -7005513.93846  23181736.259    23181737.3734   23181743.1054
      3610.665        2813.505
   9128316.928 9   7110387.71847  23355612.134    23355613.8964   23355620.6644
     -2716.408       -2116.682
   7867897.608 9   6016213.27747  23504421.782    23504424.9284   23504431.3964
     -1918.902       -1495.248
    757061.829 9    591829.57048  20957916.864    20957918.1584   20957923.2964
      -727.688        -567.030
  -2666954.191 9  -2059564.91448  20311775.722    20311777.4524   20311782.3954
      -674.120        -525.288
   6599500.606 8   5136287.81545  24996716.337    24996716.6174   24996722.3004
     -2554.415       -1990.453
   -507773.235 9   -387301.54147  22927479.843    22927481.1324   22927486.9244
     -1270.259        -989.812
 96 11 14 17 40 59.9990000  0  8 25 15  3 23 21  1  9 31            -0.000322930
 -13034612.884 9  -9643164.69347  22812308.193    22812310.0624   22812315.4354
      3340.764        2603.193
  -9123205.218 9  -7089844.53146  23161141.124    23161142.9414   23161148.7324
      3604.755        2808.900
   9209882.715 9   7173945.40847  23371133.073    23371135.4344   23371142.1654
     -2720.701       -2120.027
   7925511.316 9   6061106.99647  23515385.366    23515388.4364   23515394.9954
     -1921.446       -1497.231
    779016.624 9    608937.18648  20962094.745    20962096.0284   20962101.1914
      -735.338        -572.991
  -2646526.712 9  -2043647.40748  20315662.735    20315664.6564   20315669.6084
      -687.219        -535.495
   6676314.418 8   5196142.73545  25011333.227    25011333.7074   25011339.6324
     -2566.012       -1999.490
   -469442.807 9   -357433.73647  22934773.837    22934775.3054   22934780.9984
     -1284.615       -1000.999
 96 11 14 17 41 29.9990000  0  8 25 15  3 23 21  1  9 31            -0.000327309
 -13134757.213 9  -9721199.20447  22793251.659    22793253.2494   22793258.5614
      3336.179        2599.620
  -9231261.231 9  -7174044.00547  23140578.772    23140580.5364   23140586.3464
      3599.448        2804.765
   9291568.279 9   7237596.40747  23386677.432    23386679.7234   23386686.4644
     -2724.688       -2123.133
   7983189.974 9   6106051.33847  23526361.549    23526364.3704   23526370.9884
     -1923.214       -1498.608
    801183.726 9    626210.23348  20966312.964    20966314.3014   20966319.4854
      -742.083        -578.246
  -2625712.086 9  -2027428.22848  20319623.707    20319625.5744   20319630.4974
      -700.006        -545.459
   6753463.333 8   5256258.75345  25026013.382    25026014.7314   25026020.4164
     -2576.608       -2007.746
   -430699.302 9   -327244.03147  22942146.371    22942147.9254   22942153.5874
     -1297.776       -1011.254
 96 11 14 17 41 59.9990000  0  8 25 15  3 23 21  1  9 31            -0.000331711
 -13234764.382 9  -9799126.84547  22774220.973    22774222.4774   22774227.8204
      3331.720        2596.145
  -9339139.971 9  -7258105.34046  23120050.393    23120051.8574   23120057.6774
      3593.257        2799.941
   9373389.140 9   7301352.84747  23402247.825    23402249.8134   23402256.5984
     -2729.180       -2126.634
   8040940.828 9   6151051.92747  23537352.008    23537354.0424   23537360.6944
     -1926.235       -1500.962
    823569.455 9    643653.64348  20970572.899    20970574.2224   20970579.3414
      -749.574        -584.084
  -2604489.732 9  -2010891.33948  20323662.245    20323664.0374   20323668.9674
      -714.174        -556.499
   6830936.043 8   5316627.09745  25040755.134    25040757.4654   25040763.0864
     -2587.240       -2016.031
   -391542.586 9   -296732.34447  22949597.937    22949599.3614   22949604.8374
     -1311.814       -1022.193
 96 11 14 17 42 29.9990000  0  8 25 15  3 23 21  1  9 31            -0.000336147
 -13334651.011 9  -9876960.56747  22755212.985    22755214.5634   22755219.9644
      3326.541        2592.110
  -9446846.664 9  -7342032.62346  23099554.951    23099555.9434   23099561.8044
      3586.448        2794.635
   9455320.656 9   7365195.50947  23417839.030    23417840.9774   23417847.7724
     -2733.708       -2130.162
   8098778.077 9   6196119.85547  23548358.452    23548360.2404   23548366.8464
     -1930.455       -1504.251
    846166.289 9    661261.54248  20974873.032    20974874.2894   20974879.3514
      -757.681        -590.401
  -2582851.697 9  -1994030.54648  20327779.940    20327781.6924   20327786.5624
      -728.872        -567.952
   6908707.351 8   5377228.11645  25055554.746    25055556.8144   25055562.6454
     -2598.359       -2024.695
   -351981.460 9   -265905.54747  22957125.843    22957127.6114   22957133.2114
     -1326.188       -1033.393
 96 11 14 17 42 59.9990000  0  8 25 15  3 23 21  1  9 31            -0.000340604
 -13434408.116 9  -9954693.36447  22736229.619    22736231.2184   22736236.7414
      3322.995        2589.347
  -9554376.540 9  -7425822.15047  23079092.125    23079093.6144   23079099.4354
      3581.477        2790.761
   9537361.660 9   7429123.47947  23433450.681    23433453.0294   23433459.7034
     -2736.486       -2132.327
   8156717.957 9   6241267.75247  23559384.847    23559386.0094   23559392.4464
     -1933.042       -1506.266
    868976.627 9    679035.81848  20979213.594    20979214.9464   20979219.9884
      -763.748        -595.128
  -2560806.226 9  -1976852.27248  20331974.859    20331976.8204   20331981.6804
      -741.508        -577.798
   6986786.733 8   5438069.19445  25070413.777    25070414.4944   25070420.6004
     -2607.584       -2031.884
   -312021.667 9   -234768.08147  22964730.150    22964731.8244   22964737.3774
     -1338.685       -1043.131
 96 11 14 17 43 29.9990000  0  8 25 15  3 23 21  1  9 31            -0.000345068
 -13534015.482 9 -10032309.47547  22717275.135    22717276.5414   22717281.9884
      3317.215        2584.843
  -9661727.973 9  -7509472.59246  23058663.978    23058665.2864   23058671.1164
      3575.451        2786.066
   9619518.977 9   7493142.08947  23449085.048    23449087.2144   23449093.7634
     -2740.386       -2135.366
   8214780.500 9   6286511.20747  23570434.209    23570434.8904   23570441.3934
     -1937.644       -1509.852
    891995.596 9    696972.65448  20983593.936    20983595.3354   20983600.3654
      -770.840        -600.654
  -2538361.296 9  -1959362.73148  20336246.091    20336247.9424   20336252.8524
      -754.655        -588.043
   7065167.616 8   5499145.20145  25085328.809    25085329.7224   25085335.8794
     -2617.497       -2039.608
   -271651.324 9   -203310.70747  22972412.769    22972414.2244   22972419.8494
     -1352.580       -1053.958
 96 11 14 17 43 59.9990000  0  8 25 15  3 23 21  1  9 31            -0.000349517
 -13633414.121 9 -10109762.93447  22698360.212    22698361.5644   22698367.0454
      3309.267        2578.650
  -9768897.329 9  -7592981.20046  23038270.333    23038271.6214   23038277.3614
      3569.248        2781.232
   9701782.536 9   7557243.48247  23464739.316    23464741.4554   23464747.9634
     -2743.681       -2137.933
   8272981.361 9   6331862.45747  23581509.833    23581510.1944   23581516.7284
     -1942.370       -1513.535
    915230.843 9    715078.01448  20988015.607    20988016.9124   20988021.9124
      -778.125        -606.331
  -2515533.762 9  -1941575.05948  20340590.080    20340591.8724   20340596.7984
      -767.096        -597.737
   7143848.974 8   5560455.34545  25100301.222    25100302.0924   25100308.2184
     -2627.890       -2047.706
   -230848.720 9   -171516.52447  22980177.515    22980178.8234   22980184.3864
     -1367.572       -1065.640
 96 11 14 17 44 29.9990000  0  8 25 15  3 23 21  1  9 31            -0.000353934
 -13732556.956 9 -10187017.06147  22679493.786    22679495.2674   22679500.7724
      3299.946        2571.386
  -9875879.877 9  -7676344.19447  23017911.988    23017913.4724   23017919.3634
      3562.636        2776.080
   9784149.935 9   7621425.79247  23480413.438    23480415.4534   23480421.9474
     -2747.884       -2141.208
   8331324.388 9   6377324.49147  23592613.184    23592612.5764   23592619.0924
     -1947.384       -1517.442
    938692.919 9    733360.13148  20992480.115    20992481.5994   20992486.6174
      -786.285        -612.690
  -2492343.305 9  -1923504.59048  20345003.019    20345004.8364   20345009.8264
      -779.143        -607.124
   7222853.991 8   5622017.70145  25115333.410    25115336.2614   25115342.7664
     -2639.480       -2056.738
   -189598.367 9   -139373.44047  22988026.481    22988028.3224   22988034.2574
     -1382.679       -1077.412
 96 11 14 17 44 59.9990000  0  7 25 15  3 23 21  1 31               -0.000358311
 -13831429.899 9 -10264060.90147  22660678.562    22660680.3304   22660685.8554
      3291.709        2564.968
  -9982672.016 9  -7759558.85346  22997590.111    22997591.4824   22997597.4684
      3556.903        2771.613
   9866634.497 9   7685699.38747  23496109.896    23496111.7864   23496118.3734
     -2751.110       -2143.722
   8389803.455 9   6422892.52447  23603741.767    23603740.8614   23603747.4334
     -1951.077       -1520.320
    962391.813 9    751826.78048  20996989.992    20996991.3684   20996996.4084
      -793.601        -618.390
  -2468804.245 9  -1905162.48848  20349482.574    20349484.2194   20349489.1824
      -790.230        -615.764
   -147908.668 9   -106888.04947  22995960.064    22995961.5614   22995967.5454
     -1396.686       -1088.327
 96 11 14 17 45 29.9990000  0  7 25 15  3 23 21  1 31               -0.000362660
 -13930038.238 9 -10340898.56147  22641914.509    22641915.8224   22641921.2664
      3282.810        2558.034
 -10089266.736 9  -7842619.66647  22977305.838    22977307.2724   22977313.2484
      3549.719        2766.015
   9949236.395 9   7750064.41247  23511828.542    23511830.3344   23511837.2494
     -2755.461       -2147.112
   8448413.434 9   6468562.56547  23614895.158    23614894.0614   23614900.5954
     -1955.826       -1524.020
    986336.853 9    770485.23548  21001546.731    21001547.9604   21001553.0414
      -802.462        -625.295
  -2444898.070 9  -1886534.32048  20354031.794    20354033.4294   20354038.3344
      -803.243        -625.904
   -105780.230 9    -74060.75047  23003977.056    23003978.3934   23003984.2624
     -1411.412       -1099.802
 96 11 14 17 45 59.9990000  0  7 25 15  3 23 21  1 31               -0.000366996
 -14028421.355 9 -10417560.70847  22623192.156    22623194.1464   22623199.5324
      3275.974        2552.707
 -10195667.565 9  -7925529.37547  22957059.228    22957059.8964   22957065.8134
      3543.228        2760.957
  10031948.922 9   7814515.65447  23527568.200    23527570.0334   23527577.0114
     -2759.301       -2150.105
   8507136.728 9   6514320.91146  23626070.155    23626068.8124   23626075.2334
     -1959.431       -1526.829
   1010528.882 9    789336.14548  21006150.370    21006151.5574   21006156.6624
      -810.767        -631.766
  -2420623.865 9  -1867619.37048  20358651.190    20358652.6754   20358657.5334
      -815.493        -635.449
    -63243.616 9    -40915.38347  23012071.661    23012072.8574   23012078.7724
     -1424.662       -1110.126
 96 11 14 17 46 29.9990000  0  7 25 15  3 23 21  1 31               -0.000371332
 -14126611.965 9 -10494072.87147  22604506.376    22604509.1014   22604514.4584
      3270.041        2548.084
 -10301864.919 9  -8008280.51946  22936850.466    22936851.1814   22936857.1944
      3536.623        2755.810
  10114787.781 9   7879065.31047  23543332.030    23543333.8164   23543340.8074
     -2763.196       -2153.140
   8565970.824 9   6560165.57646  23637265.360    23637264.6394   23637271.0134
     -1962.707       -1529.382
   1034978.767 9    808387.98148  21010802.836    21010804.2014   21010809.3454
      -819.145        -638.295
  -2395966.057 9  -1848405.51548  20363343.397    20363344.9284   20363349.7464
      -828.324        -645.447
    -20321.401 9     -7469.55247  23020239.331    23020240.7654   23020246.5824
     -1436.855       -1119.627
 96 11 14 17 46 59.9990000  0  7 25 15  3 23 21  1 31               -0.000375680
 -14224614.705 9 -10570438.62747  22585857.501    22585859.7784   22585865.1144
      3263.814        2543.232
 -10407854.037 9  -8090869.45747  22916680.776    22916682.0514   22916688.0264
      3529.574        2750.317
  10197737.197 9   7943701.12847  23559116.736    23559118.7124   23559125.6604
     -2766.514       -2155.725
   8624905.052 9   6606088.28346  23648479.926    23648479.5424   23648485.9174
     -1965.893       -1531.865
   1059677.721 9    827633.90748  21015503.062    21015504.2744   21015509.4094
      -827.129        -644.516
  -2370907.828 9  -1828879.64348  20368111.824    20368113.3694   20368118.1514
      -841.796        -655.945
     22981.642 9     26273.04147  23028479.849    23028481.1824   23028486.8754
     -1449.922       -1129.809
 96 11 14 17 47 29.9990000  0  7 25 15  3 23 21  1 31               -0.000380056
 -14322437.866 9 -10646664.44347  22567242.610    22567244.5574   22567250.0054
      3257.544        2538.346
 -10513643.714 9  -8173302.93847  22896550.022    22896551.0634   22896557.0204
      3522.988        2745.185
  10280770.871 9   8008402.59546  23574917.326    23574919.5124   23574926.4354
     -2769.112       -2157.750
   8683917.800 9   6652072.14747  23659709.636    23659709.3204   23659715.8164
     -1968.428       -1533.840
   1084594.998 9    847049.94448  21020244.636    21020245.9004   21020251.0194
      -834.204        -650.029
  -2345457.546 9  -1809048.27348  20372954.757    20372956.4304   20372961.1874
      -854.742        -666.033
     66664.473 9     60311.55647  23036792.254    23036793.7884   23036799.6334
     -1462.509       -1139.617
 96 11 14 17 47 59.9990000  0  7 25 15  3 23 21  1 31               -0.000384437
 -14420036.941 9 -10722715.63647  22548669.752    22548672.0394   22548677.5624
      3249.368        2531.975
 -10619210.995 9  -8255563.12747  22876461.567    22876462.2844   22876468.2304
      3515.255        2739.160
  10363907.155 9   8073184.01546  23590737.808    23590739.8764   23590746.8304
     -2772.888       -2160.692
   8743031.884 9   6698134.98747  23670958.793    23670958.5314   23670965.0064
     -1972.021       -1536.640
   1109757.212 9    866656.85348  21025032.786    21025034.0684   21025039.2414
      -842.843        -656.761
  -2319606.570 9  -1788904.67448  20377874.175    20377875.7314   20377880.4754
      -868.248        -676.557
    110760.222 9     94671.79847  23045183.204    23045184.8544   23045190.8114
     -1476.996       -1150.906
 96 11 14 17 48 29.9990000  0  7 25 15  3 23 21  1 31               -0.000388834
 -14517403.171 9 -10798585.39847  22530141.183    22530143.8124   22530149.3774
      3241.307        2525.694
 -10724563.045 9  -8337655.59947  22856413.234    22856414.3744   22856420.5574
      3507.933        2733.454
  10447132.419 9   8138034.78546  23606574.933    23606577.0654   23606584.0714
     -2775.778       -2162.944
   8802231.696 9   6744264.63147  23682224.677    23682224.0024   23682230.5094
     -1974.984       -1538.948
   1135156.439 9    886448.43848  21029865.994    21029867.3674   21029872.5864
      -850.719        -662.898
  -2293360.324 9  -1768453.06848  20382868.902    20382870.2694   20382875.0104
      -881.706        -687.044
    155281.482 9    129363.64747  23053655.114    23053656.8404   23053662.9814
     -1491.439       -1162.160
 96 11 14 17 48 59.9990000  0  7 25 15  3 23 21  1 31               -0.000393251
 -14614542.727 9 -10874278.52747  22511656.101    22511658.7024   22511664.3164
      3234.846        2520.659
 -10829709.595 9  -8419587.99347  22836404.180    22836405.7004   22836411.6694
      3501.778        2728.658
  10530434.419 9   8202945.33046  23622426.944    23622428.9794   23622435.9764
     -2777.822       -2164.537
   8861511.899 9   6790456.90546  23693504.964    23693504.7354   23693511.2904
     -1977.091       -1540.590
   1160776.640 9    906412.20848  21034741.359    21034742.7534   21034747.9914
      -857.320        -668.042
  -2266729.118 9  -1747701.48848  20387936.745    20387938.0494   20387942.7794
      -893.645        -696.347
    200228.555 9    164387.26847  23062207.917    23062209.9324   23062216.0064
     -1504.939       -1172.680
 96 11 14 17 49 29.9990000  0  7 25 15  3 23 21  1 31               -0.000397675
 -14711474.367 9 -10949809.63947  22493210.612    22493213.2024   22493218.8654
      3227.111        2514.632
 -10934644.575 9  -8501355.48747  22816435.339    22816437.1204   22816443.2624
      3493.652        2722.326
  10613829.656 9   8267928.52746  23638296.694    23638298.6094   23638305.7164
     -2782.084       -2167.858
   8920890.025 9   6836725.48546  23704804.004    23704804.0424   23704810.6234
     -1981.716       -1544.194
   1186630.153 9    926557.77948  21039660.972    21039662.4974   21039667.7794
      -866.587        -675.263
  -2239717.167 9  -1726653.22248  20393077.076    20393078.2834   20393083.0334
      -907.344        -707.021
    245594.195 9    199737.07147  23070840.971    23070842.6104   23070848.8704
     -1519.701       -1184.183
 96 11 14 17 49 59.9990000  0  7 25 15  3 23 21  1 31               -0.000402094
 -14808216.156 9 -11025192.82047  22474801.396    22474803.8554   22474809.5444
      3222.086        2510.716
 -11039363.511 9  -8582954.65047  22796507.789    22796509.7064   22796515.7874
      3487.358        2717.422
  10697328.117 9   8332992.15346  23654186.981    23654188.1924   23654195.1004
     -2784.620       -2169.834
   8980381.926 9   6883082.70446  23716125.209    23716125.0404   23716131.5784
     -1984.529       -1546.386
   1212737.135 9    946900.85348  21044629.129    21044630.4824   21044635.7764
      -874.009        -681.046
  -2212329.047 9  -1705311.84048  20398288.753    20398290.0714   20398294.8764
      -918.747        -715.907
    291370.979 9    235407.22847  23079551.853    23079553.5994   23079559.9464
     -1532.165       -1193.895
 96 11 14 17 50 29.9990000  0  7 25 15  3 23 21  1 31               -0.000406507
 -14904772.254 9 -11100431.31447  22456427.604    22456429.8884   22456435.5064
      3214.912        2505.126
 -11143859.993 9  -8664380.48247  22776622.848    22776624.6454   22776630.7684
      3479.149        2711.025
  10780927.389 9   8398134.31646  23670095.584    23670096.7564   23670103.5234
     -2788.566       -2172.909
   9039990.223 9   6929530.64346  23727468.847    23727468.1804   23727474.7244
     -1989.363       -1550.153
   1239087.432 9    967433.52248  21049643.533    21049644.8224   21049650.0724
      -882.571        -687.718
  -2184568.286 9  -1683680.08648  20403571.337    20403572.7804   20403577.5784
      -931.809        -726.085
    337542.773 9    271385.21347  23088338.280    23088339.8414   23088346.2604
     -1545.861       -1204.567
 96 11 14 17 50 59.9990000  0  7 25 15  3 23 21  1 31               -0.000410911
 -15001131.609 9 -11175516.50347  22438090.612    22438093.3774   22438098.9204
      3208.428        2500.074
 -11248133.641 9  -8745632.65547  22756780.046    22756781.9944   22756788.2194
      3471.853        2705.340
  10864617.781 9   8463347.51446  23686021.427    23686022.6234   23686029.4794
     -2791.220       -2174.977
   9099722.945 9   6976075.55246  23738835.896    23738834.9744   23738841.4554
     -1993.345       -1553.256
   1265669.558 9    988146.83648  21054701.913    21054703.2704   21054708.4874
      -890.084        -693.572
  -2156450.824 9  -1661770.38348  20408921.728    20408923.3604   20408928.1294
      -943.246        -734.997
    384092.845 9    307657.91347  23097196.736    23097198.2674   23097204.6584
     -1558.042       -1214.059
 96 11 14 17 51 29.9990000  0  7 25 15  3 23 21  1 31               -0.000415305
 -15097273.304 9 -11250432.08147  22419795.226    22419798.2754   22419803.7664
      3200.547        2493.933
 -11352179.790 9  -8826707.57047  22736980.582    22736982.6634   22736988.8444
      3464.313        2699.465
  10948387.240 9   8528622.30546  23701962.174    23701963.4784   23701970.3644
     -2793.582       -2176.817
   9159580.661 9   7022717.84146  23750226.994    23750225.7384   23750232.0614
     -1997.428       -1556.437
   1292485.782 9   1009042.56048  21059805.016    21059806.2704   21059811.4434
      -897.900        -699.662
  -2127978.200 9  -1639583.93748  20414340.003    20414341.5644   20414346.2854
      -955.268        -744.365
    431015.720 9    344221.13747  23106126.228    23106127.5884   23106133.6934
     -1570.484       -1223.754
 96 11 14 17 51 59.9990000  0  7 25 15  3 23 21  1 31               -0.000419703
 -15193171.508 9 -11325157.93547  22401546.740    22401549.4844   22401554.9274
      3191.979        2487.256
 -11456006.796 9  -8907611.69847  22717222.994    22717225.0304   22717231.2754
      3456.869        2693.664
  11032211.991 9   8593940.18846  23717913.289    23717914.8764   23717921.8014
     -2795.157       -2178.044
   9219549.262 9   7069446.54846  23761638.937    23761637.4654   23761643.8714
     -2000.994       -1559.216
   1319519.504 9   1030107.76548  21064949.415    21064950.6694   21064955.7964
      -905.005        -705.199
  -2099151.033 9  -1617121.22148  20419825.703    20419827.2244   20419831.8894
      -967.143        -753.618
    478304.590 9    381069.51647  23115124.968    23115126.2574   23115132.4334
     -1582.680       -1233.257
 96 11 14 17 52 29.9990000  0  7 25 15  3 23 21  1 31               -0.000424099
 -15288784.997 9 -11399661.92547  22383352.550    22383354.8814   22383360.3174
      3182.443        2479.826
 -11559593.272 9  -8988328.44647  22697511.616    22697513.2114   22697519.4124
      3448.936        2687.483
  11116093.438 9   8659302.22946  23733875.093    23733877.0674   23733884.0514
     -2796.927       -2179.424
   9279643.571 9   7116273.18446  23773075.097    23773073.0734   23773079.5594
     -2005.261       -1562.541
   1346784.756 9   1051353.37948  21070137.843    21070139.0884   21070144.2274
      -912.716        -711.207
  -2069946.576 9  -1594364.51248  20425383.056    20425384.6484   20425389.3204
      -979.788        -763.471
    525978.985 9    418218.35647  23124196.936    23124198.3784   23124204.6074
     -1595.651       -1243.364
 96 11 14 17 52 59.9990000  0  7 25 15  3 23 21  1 31               -0.000428503
 -15384133.420 9 -11473959.37047  22365208.762    22365210.7324   22365216.1204
      3173.868        2473.144
 -11662948.838 9  -9068865.19247  22677844.053    22677845.2374   22677851.5394
      3441.120        2681.392
  11200021.134 9   8724700.31446  23749845.954    23749848.1474   23749855.0534
     -2798.478       -2180.632
   9339855.011 9   7163191.10746  23784533.080    23784531.0194   23784537.4844
     -2009.029       -1565.477
   1374281.055 9   1072779.03148  21075370.279    21075371.5104   21075376.6424
      -920.712        -717.438
  -2040372.112 9  -1571319.49448  20431010.956    20431012.5454   20431017.2034
      -992.079        -773.048
    574026.304 9    455657.76347  23133340.400    23133341.7554   23133347.8144
     -1607.900       -1252.909
 96 11 14 17 53 29.9990000  0  7 25 15  3 23 21  1 31               -0.000432912
 -15479215.434 9 -11548049.22747  22347115.136    22347117.2174   22347122.5814
      3165.366        2466.519
 -11766065.120 9  -9149215.52247  22658221.194    22658222.8804   22658229.0934
      3433.601        2675.533
  11283992.265 9   8790132.25946  23765825.478    23765827.4424   23765834.2904
     -2799.371       -2181.328
   9400185.605 9   7210201.88746  23796013.616    23796011.5844   23796018.0284
     -2012.583       -1568.246
   1402022.706 9   1094395.86348  21080649.471    21080650.6424   21080655.7354
      -928.551        -723.546
  -2010429.438 9  -1547987.56348  20436708.875    20436710.4634   20436715.1244
     -1003.717        -782.117
    622445.387 9    493386.85047  23142554.468    23142555.7444   23142561.8054
     -1619.731       -1262.128
 96 11 14 17 53 59.9990000  0  7 25 15  3 23 21  1 31               -0.000437319
 -15574047.207 9 -11621944.09447  22329069.239    22329071.2854   22329076.6124
      3157.410        2460.319
 -11868944.318 9  -9229381.10347  22638643.551    22638645.4834   22638651.7894
      3425.626        2669.319
  11367999.909 9   8855592.65346  23781811.781    23781813.6674   23781820.6284
     -2800.616       -2182.298
   9460626.787 9   7257298.84846  23807515.064    23807513.2534   23807519.6024
     -2016.067       -1570.961
   1430009.644 9   1116203.83048  21085975.097    21085976.4134   21085981.4814
      -936.585        -729.806
  -1980144.644 9  -1524389.04548  20442471.954    20442473.4414   20442478.1724
     -1014.604        -790.601
    671226.587 9    531398.11847  23151837.167    23151838.5564   23151844.7394
     -1631.757       -1271.499
 96 11 14 17 54 29.9990000  0  7 25 15  3 23 21  1 31               -0.000441715
 -15668641.134 9 -11695653.62447  22311068.105    22311070.5904   22311076.0254
      3149.203        2453.924
 -11971583.451 9  -9309359.61447  22619112.252    22619113.8484   22619120.2864
      3417.281        2662.816
  11452052.660 9   8921088.18346  23797806.290    23797808.2534   23797815.4034
     -2802.516       -2183.779
   9521172.035 9   7304476.89246  23819036.585    23819034.5824   23819041.0144
     -2019.951       -1573.988
   1458238.171 9   1138200.04648  21091346.963    21091348.1084   21091353.1724
      -944.881        -736.271
  -1949536.514 9  -1500538.57948  20448296.651    20448298.0144   20448302.7634
     -1025.662        -799.217
    720362.612 9    569685.86347  23161187.937    23161189.0494   23161195.3064
     -1643.603       -1280.730
 96 11 14 17 54 59.9990000  0  7 25 15  3 23 21  1 31               -0.000446100
 -15762987.781 9 -11769170.47047  22293114.118    22293117.0144   22293122.5084
      3140.400        2447.065
 -12073970.556 9  -9389141.77347  22599628.981    22599630.2804   22599636.5824
      3408.432        2655.921
  11536163.522 9   8986629.00646  23813811.938    23813814.0224   23813821.4304
     -2804.701       -2185.481
   9581828.060 9   7351741.24746  23830579.059    23830577.0934   23830583.6754
     -2023.981       -1577.128
   1486712.806 9   1160388.03948  21096765.476    21096766.6364   21096771.7484
      -953.473        -742.966
  -1918595.848 9  -1476428.99248  20454184.357    20454185.8774   20454190.5734
     -1037.148        -808.167
    769844.184 9    608242.85047  23170604.034    23170605.2214   23170611.4674
     -1655.365       -1289.895
 96 11 14 17 55 29.9990000  0  7 25 15  3 23 21  1 31               -0.000450483
 -15857078.418 9 -11842487.81647  22275209.668    22275212.1074   22275217.6654
      3132.448        2440.869
 -12176108.414 9  -9468729.69347  22580192.934    22580194.1054   22580200.4594
      3400.769        2649.950
  11620317.651 9   9052203.52546  23829826.073    23829827.9254   23829835.5954
     -2805.748       -2186.297
   9642593.274 9   7399090.67346  23842142.182    23842140.2734   23842146.9804
     -2026.962       -1579.451
   1515422.844 9   1182759.45548  21102228.658    21102229.9604   21102235.1384
      -960.497        -748.439
  -1887322.387 9  -1452060.08749  20460135.498    20460137.0344   20460141.7344
     -1047.819        -816.482
    819668.682 9    647067.07647  23180085.252    23180086.5144   23180092.7164
     -1666.381       -1298.479
 96 11 14 17 55 59.9990000  0  7 25 15  3 23 21  1 31               -0.000454869
 -15950922.087 9 -11915612.71847  22257352.117    22257354.1874   22257359.7964
      3124.438        2434.627
 -12277995.526 9  -9548122.24847  22560804.525    22560805.7174   22560812.0174
      3392.578        2643.567
  11704530.714 9   9117823.98246  23845851.168    23845853.2374   23845860.9374
     -2807.646       -2187.776
   9703463.935 9   7446522.25346  23853725.607    23853723.4934   23853730.3974
     -2030.226       -1581.994
   1544357.094 9   1205305.59248  21107734.676    21107736.0104   21107741.1864
      -967.607        -753.979
  -1855701.796 9  -1427420.68849  20466152.650    20466154.2444   20466158.9854
     -1059.447        -825.543
    869837.436 9    686159.53747  23189631.878    23189633.3124   23189639.5314
     -1677.505       -1307.147
 96 11 14 17 56 29.9990000  0  7 25 15  3 23 21  1 31               -0.000459271
 -16044512.220 9 -11988540.06947  22239542.447    22239544.5154   22239550.1484
      3115.435        2427.612
 -12379632.695 9  -9627320.02047  22541463.337    22541464.7514   22541471.1674
      3383.733        2636.675
  11788800.495 9   9183488.64146  23861887.381    23861889.3864   23861897.0064
     -2809.634       -2189.325
   9764442.320 9   7494037.78646  23865328.394    23865327.3484   23865334.3304
     -2034.517       -1585.338
   1573515.296 9   1228026.23148  21113283.374    21113284.6964   21113289.8684
      -975.820        -760.379
  -1823721.771 9  -1402501.20848  20472238.355    20472239.8264   20472244.6054
     -1072.027        -835.346
    920343.471 9    725514.81247  23199242.837    23199244.3814   23199250.4854
     -1689.204       -1316.263
 96 11 14 17 56 59.9990000  0  7 25 15  3 23 21  1 31               -0.000463679
 -16137839.752 9 -12061262.79248  22221783.487    22221784.9034   22221790.5454
      3106.206        2420.420
 -12481010.978 9  -9706316.06747  22522171.631    22522173.0644   22522179.5684
      3374.722        2629.654
  11873115.223 9   9249188.30446  23877932.013    23877934.0774   23877941.7544
     -2811.220       -2190.561
   9825541.544 9   7541647.47546  23876954.732    23876954.1474   23876961.2024
     -2038.926       -1588.774
   1602916.728 9   1250936.39048  21118878.429    21118879.6704   21118884.8314
      -984.427        -767.086
  -1791369.604 9  -1377291.74248  20478394.542    20478396.1764   20478401.0324
     -1084.743        -845.254
    971202.448 9    765145.14247  23208920.822    23208922.5794   23208928.6224
     -1701.648       -1325.959
 96 11 14 17 57 29.9990000  0  7 25 15  3 23 21  1 31               -0.000468097
 -16230899.101 9 -12133776.55247  22204074.274    22204076.2824   22204081.9594
      3097.711        2413.801
 -12582131.616 9  -9785111.38447  22502928.631    22502930.5534   22502936.8214
      3366.567        2623.299
  11957457.721 9   9314909.61646  23893982.041    23893984.0534   23893991.6654
     -2811.778       -2190.996
   9886753.650 9   7589345.11946  23888601.956    23888602.4354   23888609.5984
     -2041.838       -1591.043
   1632565.506 9   1274039.29348  21124520.413    21124521.6904   21124526.8404
      -992.268        -773.196
  -1758657.478 9  -1351801.79349  20484619.558    20484621.0854   20484625.9744
     -1096.029        -854.048
   1022427.775 9    805060.90547  23218668.720    23218670.1934   23218676.4244
     -1713.513       -1335.205
 96 11 14 17 57 59.9990000  0  7 25 15  3 23 21  1 31               -0.000472524
 -16323700.507 9 -12206089.31247  22186414.269    22186416.7424   22186422.4084
      3088.756        2406.823
 -12683001.526 9  -9863711.29347  22483733.414    22483735.6494   22483741.9394
      3357.926        2616.566
  12041814.236 9   9380641.84246  23910034.934    23910036.5914   23910044.3394
     -2812.066       -2191.220
   9948056.798 9   7637113.72446  23900267.551    23900268.1614   23900275.3264
     -2045.200       -1593.662
   1662458.519 9   1297332.50848  21130208.811    21130210.1694   21130215.3314
     -1000.773        -779.823
  -1725605.073 9  -1326046.68449  20490909.249    20490910.7694   20490915.6434
     -1107.492        -862.981
   1074014.338 9    845258.15247  23228485.614    23228486.7924   23228493.1654
     -1725.819       -1344.794
 96 11 14 17 58 29.9990000  0  7 25 15  3 23 21  1 31               -0.000476947
 -16416210.082 9 -12278174.67447  22168810.022    22168812.7234   22168818.3304
      3078.642        2398.942
 -12783596.765 9  -9942097.20847  22464590.595    22464593.1044   22464599.1474
      3348.421        2609.159
  12126186.091 9   9446386.02146  23926090.606    23926092.2114   23926099.9204
     -2812.795       -2191.788
  10009479.239 9   7684975.25246  23911954.749    23911956.4144   23911963.7154
     -2049.503       -1597.015
   1692624.102 9   1320838.11748  21135949.257    21135950.5334   21135955.7014
     -1010.142        -787.124
  -1692200.625 9  -1300017.25349  20497265.945    20497267.4654   20497272.2934
     -1119.554        -872.380
   1125988.776 9    885757.63547  23238376.028    23238377.2294   23238383.5884
     -1739.133       -1355.168
 96 11 14 17 58 59.9990000  0  7 25 15  3 23 21  1 31               -0.000481374
 -16508433.801 9 -12350037.28547  22151260.639    22151263.0764   22151268.6984
      3069.067        2391.481
 -12883925.506 9 -10020275.42247  22445499.551    22445501.1934   22445507.1854
      3339.636        2602.314
  12210565.760 9   9512136.28346  23942148.048    23942149.3044   23942156.8424
     -2813.199       -2192.103
  10070999.872 9   7732913.29246  23923661.227    23923663.4284   23923670.8084
     -2052.463       -1599.322
   1723042.734 9   1344540.91048  21141737.692    21141739.0444   21141744.2174
     -1018.326        -793.501
  -1658452.998 9  -1273720.40749  20503687.977    20503689.4474   20503694.2734
     -1130.786        -881.132
   1178338.569 9    926549.62347  23248337.617    23248339.0394   23248345.4704
     -1751.289       -1364.641
 96 11 14 17 59 29.9990000  0  7 25 15  3 23 21  1 31               -0.000485804
 -16600361.162 9 -12421668.97147  22133767.525    22133769.8044   22133775.4454
      3059.245        2383.827
 -12983978.575 9 -10098238.85247  22426460.365    22426461.7274   22426467.5744
      3330.278        2595.022
  12294979.473 9   9577913.07046  23958211.445    23958212.6664   23958220.3744
     -2814.790       -2193.343
  10132624.161 9   7780932.14546  23935387.053    23935390.3444   23935397.5464
     -2056.080       -1602.140
   1753718.586 9   1368444.13148  21147575.176    21147576.5044   21147581.7064
     -1026.943        -800.215
  -1624360.991 9  -1247155.21449  20510175.498    20510176.9764   20510181.7504
     -1142.272        -890.082
   1231059.290 9    967630.61347  23258370.076    23258371.4434   23258377.7924
     -1763.696       -1374.309
 96 11 14 17 59 59.9990000  0  7 25 15  3 23 21  1 31               -0.000490227
 -16691994.887 9 -12493071.86248  22116329.887    22116332.4114   22116338.1234
      3049.547        2376.270
 -13083751.396 9 -10175983.88647  22407474.370    22407475.4764   22407481.4694
      3321.179        2587.932
  12379447.197 9   9643731.94546  23974285.386    23974286.4894   23974294.1614
     -2816.325       -2194.539
  10194360.635 9   7829038.39246  23947135.139    23947138.5474   23947145.7594
     -2059.761       -1605.009
   1784649.238 9   1392545.89748  21153461.376    21153462.4464   21153467.6504
     -1035.095        -806.567
  -1589922.440 9  -1220319.98849  20516729.053    20516730.4414   20516735.2114
     -1153.625        -898.929
   1284140.411 9   1008992.48347  23268471.182    23268472.5444   23268478.6824
     -1774.995       -1383.113
 96 11 14 18  0 29.9990000  0  7 25 15  3 23 21  1 31               -0.000494644
 -16783321.650 9 -12564235.55548  22098951.256    22098953.5574   22098959.2664
      3039.257        2368.252
 -13183236.594 9 -10253504.82547  22388542.462    22388543.9664   22388550.0804
      3311.378        2580.294
  12463978.864 9   9709600.63546  23990371.280    23990372.4384   23990380.1524
     -2818.788       -2196.458
  10256221.571 9   7877241.62346  23958906.417    23958910.3314   23958917.7294
     -2063.997       -1608.309
   1815837.329 9   1416848.26748  21159396.268    21159397.4054   21159402.5574
     -1043.830        -813.374
  -1555137.197 9  -1193214.60949  20523348.427    20523349.8434   20523354.6574
     -1165.180        -907.932
   1337559.300 9   1050617.50847  23278636.755    23278637.9604   23278644.1764
     -1786.019       -1391.703
 96 11 14 18  0 59.9990000  0  7 25 15  3 23 21  1 31               -0.000499058
 -16874364.666 9 -12635178.14648  22081626.485    22081628.6434   22081634.3764
      3030.163        2361.166
 -13282445.810 9 -10330810.70447  22369663.698    22369665.1464   22369671.2554
      3302.418        2573.313
  12548558.260 9   9775506.52146  24006466.072    24006467.4444   24006475.1324
     -2819.762       -2197.217
  10318196.417 9   7925533.65146  23970700.026    23970703.8324   23970711.2154
     -2067.804       -1611.276
   1847267.977 9   1441339.64748  21165377.340    21165378.4754   21165383.6234
     -1051.687        -819.496
  -1520025.300 9  -1165854.70049  20530030.160    20530031.4304   20530036.2654
     -1175.654        -916.094
   1391281.624 9   1092479.01047  23288859.622    23288861.0804   23288867.3064
     -1795.662       -1399.217
 96 11 14 18  1 29.9990000  0  7 25 15  3 23 21  1 31               -0.000503465
 -16965133.402 9 -12705907.02148  22064353.889    22064355.9384   22064361.6834
      3020.966        2353.999
 -13381380.260 9 -10407902.47647  22350836.697    22350838.4544   22350844.6804
      3293.059        2566.020
  12633157.510 9   9841427.90146  24022564.798    24022566.0884   24022573.8894
     -2820.219       -2197.573
  10380296.767 9   7973923.43246  23982518.845    23982521.2534   23982528.7384
     -2072.270       -1614.756
   1878935.962 9   1466015.96748  21171403.483    21171404.7184   21171409.8634
     -1059.464        -825.556
  -1484593.661 9  -1138245.64148  20536772.308    20536773.7994   20536778.6714
     -1186.518        -924.559
   1445301.550 9   1134572.36447  23299139.223    23299140.8384   23299147.1764
     -1805.740       -1407.070
 96 11 14 18  1 59.9990000  0  7 25 15  3 23 21  1 31               -0.000507872
 -17055625.501 9 -12776420.33348  22047134.131    22047135.8534   22047141.6254
      3011.813        2346.867
 -13480028.409 9 -10484771.13847  22332064.346    22332066.2844   22332072.6164
      3283.381        2558.479
  12717762.023 9   9907353.39646  24038664.716    24038665.9214   24038673.6744
     -2820.072       -2197.459
  10442535.043 9   8022420.70046  23994362.746    23994364.9674   23994372.3154
     -2077.038       -1618.471
   1910836.962 9   1490873.85748  21177474.119    21177475.2994   21177480.4564
     -1067.425        -831.760
  -1448832.927 9  -1110380.15149  20543577.258    20543578.8424   20543583.7154
     -1197.628        -933.217
   1499611.892 9   1176892.05847  23309474.335    23309475.8174   23309482.2464
     -1815.074       -1414.343
 96 11 14 18  2 29.9990000  0  7 25 15  3 23 21  1 31               -0.000512273
 -17145845.360 9 -12846721.51348  22029965.773    22029967.5954   22029973.3474
      3003.205        2340.160
 -13578382.446 9 -10561410.61247  22313348.354    22313350.0574   22313356.4334
      3273.936        2551.119
  12802358.776 9   9973272.80146  24054762.330    24054764.2374   24054772.0944
     -2819.227       -2196.800
  10504916.287 9   8071029.36546  24006234.199    24006235.7404   24006243.1304
     -2081.223       -1621.732
   1942980.238 9   1515920.53248  21183590.716    21183592.0024   21183597.1824
     -1074.937        -837.613
  -1412739.069 9  -1082255.08849  20550445.851    20550447.3024   20550452.1584
     -1208.280        -941.517
   1554214.079 9   1219439.14847  23319864.840    23319866.2434   23319872.6944
     -1824.851       -1421.962
 96 11 14 18  2 59.9990000  0  7 25 15  3 23 21  1 31               -0.000516682
 -17235796.028 9 -12916812.93948  22012849.065    22012850.5514   22012856.2844
      2993.298        2332.440
 -13676448.260 9 -10637825.53647  22294687.122    22294688.8964   22294694.9994
      3263.762        2543.191
  12886928.805 9  10039171.40246  24070855.529    24070857.5894   24070865.5534
     -2818.740       -2196.421
  10567422.780 9   8119735.63546  24018128.747    24018130.2814   24018137.6134
     -2085.708       -1625.227
   1975351.161 9   1541144.59748  21189750.710    21189752.0554   21189757.2534
     -1083.085        -843.962
  -1376315.719 9  -1053873.27849  20557376.997    20557378.4634   20557383.2564
     -1219.860        -950.540
   1609120.957 9   1262223.65846  23330313.283    23330314.5444   23330321.0634
     -1835.689       -1430.407
 96 11 14 18  3 29.9990000  0  7 25 15  3 23 21  1 31               -0.000521098
 -17325454.834 9 -12986676.93548  21995787.343    21995789.0334   21995794.7634
      2983.685        2324.949
 -13774222.630 9 -10714013.31747  22276081.661    22276083.1034   22276089.2214
      3254.239        2535.771
  12971476.885 9  10105052.88846  24086944.386    24086946.6504   24086954.7384
     -2818.143       -2195.956
  10630037.590 9   8168526.30846  24030045.089    24030045.6074   24030052.8984
     -2088.857       -1627.681
   2007952.325 9   1566548.07548  21195954.414    21195955.8724   21195961.1174
     -1090.648        -849.856
  -1339566.539 9  -1025237.58049  20564370.138    20564371.5994   20564376.3734
     -1230.289        -958.667
   1664337.775 9   1305249.67347  23340820.870    23340822.1114   23340828.4474
     -1845.684       -1438.195
 96 11 14 18  3 59.9990000  0  7 25 15  3 23 21  1 31               -0.000525526
 -17414813.150 9 -13056306.79548  21978782.730    21978784.7224   21978790.4274
      2973.175        2316.760
 -13871703.735 9 -10789972.59147  22257531.532    22257533.0384   22257539.1594
      3244.232        2527.973
  13056013.684 9  10170925.57546  24103031.399    24103033.6004   24103041.7644
     -2817.918       -2195.780
  10692748.041 9   8217391.49246  24041979.183    24041979.1184   24041986.5084
     -2092.218       -1630.300
   2040800.162 9   1592143.76348  21202205.391    21202206.6414   21202211.9024
     -1099.497        -856.751
  -1302503.310 9   -996357.17248  20571422.874    20571424.4554   20571429.2634
     -1240.851        -966.897
   1719855.773 9   1348510.40047  23351385.457    23351386.9764   23351393.3094
     -1856.000       -1446.234
 96 11 14 18  4 29.9990000  0  7 25 15  3 23 21  1 31               -0.000529961
 -17503844.551 9 -13125681.90948  21961840.560    21961842.5784   21961848.2584
      2961.984        2308.039
 -13968886.613 9 -10865699.48547  22239037.967    22239039.7734   22239045.7974
      3234.368        2520.287
  13140536.500 9  10236787.39746  24119116.018    24119117.8694   24119125.9604
     -2817.213       -2195.231
  10755556.145 9   8266332.77646  24053931.252    24053931.2404   24053938.4434
     -2095.336       -1632.729
   2073910.675 9   1617944.13348  21208506.161    21208507.4284   21208512.6364
     -1108.076        -863.436
  -1265127.021 9   -967232.82449  20578535.345    20578536.9194   20578541.7364
     -1251.076        -974.864
   1775694.954 9   1392021.39747  23362011.503    23362012.8594   23362019.1614
     -1866.858       -1454.695
 96 11 14 18  4 59.9990000  0  7 25 15  3 23 21  1 31               -0.000534397
 -17592529.268 9 -13194786.89348  21944964.502    21944966.4144   21944972.0724
      2950.384        2299.001
 -14065761.460 9 -10941186.38347  22220603.345    22220605.1324   22220611.0264
      3224.038        2512.237
  13225052.555 9  10302643.94946  24135198.671    24135200.8744   24135208.8664
     -2817.078       -2195.126
  10818470.023 8   8315356.45346  24065903.490    24065903.4544   24065910.6374
     -2098.975       -1635.565
   2107293.043 9   1643956.33648  21214858.587    21214859.9264   21214865.1364
     -1117.411        -870.710
  -1227434.848 9   -937862.33849  20585708.046    20585709.5574   20585714.3234
     -1261.569        -983.041
   1831856.169 9   1435783.30747  23372699.035    23372700.1754   23372706.3584
     -1877.156       -1462.719
 96 11 14 18  5 29.9990000  0  7 25 15  3 23 21  1 31               -0.000538835
 -17680875.693 9 -13263628.27348  21928152.722    21928154.6764   21928160.3224
      2939.234        2290.312
 -14162329.914 9 -11016434.52047  22202227.106    22202228.7024   22202234.6824
      3213.500        2504.026
  13309561.126 9  10368494.64646  24151280.515    24151282.4654   24151290.4984
     -2817.127       -2195.164
  10881495.411 9   8364467.00746  24077895.256    24077896.8064   24077904.1634
     -2103.114       -1638.790
   2140950.807 9   1670183.13848  21221263.267    21221264.8044   21221270.0304
     -1126.757        -877.992
  -1189434.754 9   -908251.91149  20592939.023    20592940.7744   20592945.5394
     -1272.134        -991.273
   1888319.342 9   1479780.51647  23383443.542    23383444.7344   23383451.1504
     -1887.477       -1470.761
 96 11 14 18  5 59.9990000  0  7 25 15  3 23 21  1 31               -0.000543262
 -17768892.687 9 -13332212.95948  21911403.667    21911405.6104   21911411.2594
      2929.265        2282.544
 -14258579.964 9 -11091434.54747  22183911.296    22183912.9194   22183918.9924
      3203.783        2496.454
  13394063.184 9  10434340.23746  24167360.956    24167362.8124   24167370.8974
     -2815.798       -2194.128
  10944648.915 9   8413677.42746  24089911.784    24089914.6144   24089922.1394
     -2106.445       -1641.386
   2174885.740 9   1696625.91448  21227720.998    21227722.4134   21227727.6594
     -1134.784        -884.247
  -1151118.329 9   -878394.99649  20600230.531    20600232.2004   20600236.9634
     -1281.663        -998.698
   1945094.455 9   1524020.78647  23394247.640    23394248.7964   23394255.0934
     -1897.104       -1478.263
 96 11 14 18  6 29.9990000  0  7 25 15  3 23 21  1 31               -0.000547689
 -17856612.115 9 -13400565.76648  21894711.666    21894713.1404   21894718.8404
      2918.761        2274.359
 -14354534.445 9 -11166204.26447  22165651.615    22165653.3264   22165659.3134
      3193.152        2488.170
  13478540.390 9  10500166.52446  24183436.773    24183438.4934   24183446.4914
     -2816.034       -2194.312
  11007903.555 9   8462966.61846  24101948.948    24101951.7164   24101959.4264
     -2110.410       -1644.475
   2209055.428 9   1723251.60948  21234223.249    21234224.6854   21234229.9994
     -1143.182        -890.791
  -1112512.369 9   -848312.45849  20607576.893    20607578.6954   20607583.4354
     -1292.043       -1006.787
   2002172.549 9   1568497.14647  23405109.397    23405110.5594   23405116.9284
     -1908.029       -1486.776
 96 11 14 18  6 59.9990000  0  7 25 15  3 23 21  1 31               -0.000552107
 -17944024.211 9 -13468679.09748  21878077.841    21878079.2174   21878084.8684
      2908.856        2266.641
 -14450167.091 9 -11240723.19847  22147453.351    22147455.0454   22147461.0444
      3182.685        2480.014
  13563030.675 9  10566002.98546  24199514.896    24199516.4304   24199524.5124
     -2816.329       -2194.542
  11071273.330 9   8512345.55846  24114008.206    24114010.6614   24114018.5034
     -2113.977       -1647.255
   2243477.428 9   1750073.90848  21240773.554    21240774.9664   21240780.3684
     -1151.280        -897.101
  -1073591.731 9   -817984.72149  20614983.411    20614985.0544   20614989.7694
     -1302.399       -1014.856
   2059568.322 9   1613221.02947  23416031.669    23416032.8214   23416039.0734
     -1918.193       -1494.696
 96 11 14 18  7 29.9990000  0  7 25 15  3 23 21  1 31               -0.000556519
 -18031132.965 9 -13536556.03748  21861501.744    21861502.9384   21861508.5654
      2898.627        2258.670
 -14545478.856 9 -11314992.11647  22129316.678    22129317.9734   22129323.7954
      3171.576        2471.358
  13647526.048 9  10631843.40446  24215593.597    24215595.4024   24215603.4864
     -2816.633       -2194.779
  11134759.271 8   8561815.02546  24126088.665    24126091.7454   24126099.4174
     -2118.315       -1650.635
   2278141.146 9   1777084.57048  21247369.920    21247371.2804   21247376.7244
     -1159.684        -903.650
  -1034356.524 9   -787411.85749  20622449.647    20622451.3084   20622455.9994
     -1313.119       -1023.210
   2117280.939 9   1658191.81047  23427013.645    23427015.0374   23427021.4604
     -1929.252       -1503.313
 96 11 14 18  7 59.9990000  0  7 25 15  3 23 21  1 31               -0.000560920
 -18117954.565 9 -13604209.22848  21844980.414    21844981.2734   21844986.9644
      2889.166        2251.298
 -14640476.515 9 -11389016.27247  22111238.873    22111240.3644   22111246.2074
      3161.380        2463.413
  13732014.242 9  10697678.22746  24231671.585    24231673.1434   24231681.2194
     -2816.099       -2194.363
  11198357.787 8   8611372.18846  24138191.931    24138194.2174   24138201.6574
     -2121.841       -1653.383
   2313048.081 9   1804284.74848  21254012.613    21254013.8974   21254019.3434
     -1167.675        -909.877
   -994817.432 9   -756602.19848  20629973.860    20629975.3794   20629980.0624
     -1323.074       -1030.967
   2175307.272 9   1703407.06747  23438055.434    23438056.9994   23438063.6154
     -1939.379       -1511.204
 96 11 14 18  8 29.9990000  0  7 25 15  3 23 21  1 31               -0.000565314
 -18204477.244 9 -13671629.48948  21828514.857    21828516.5344   21828522.3094
      2878.759        2243.189
 -14735157.899 9 -11462793.95447  22093221.854    22093223.0814   22093229.1734
      3150.531        2454.959
  13816489.396 8  10763502.87946  24247746.791    24247748.2284   24247756.3744
     -2815.438       -2193.848
  11262075.080 9   8661021.94046  24150316.901    24150319.3594   24150326.5684
     -2126.224       -1656.798
   2348212.841 9   1831685.83048  21260704.301    21260705.5554   21260711.0154
     -1176.818        -917.001
   -954964.090 9   -725547.66448  20637557.770    20637559.2044   20637563.9274
     -1334.016       -1039.493
   2233633.106 9   1748855.67547  23449154.661    23449155.9904   23449162.8334
     -1948.998       -1518.700
 96 11 14 18  8 59.9990000  0  7 25 15  3 23 21  1 31               -0.000569706
 -18290680.891 9 -13738801.15148  21812110.840    21812112.5644   21812118.3414
      2867.561        2234.463
 -14829510.281 9 -11536315.30647  22075267.604    22075268.4654   22075274.4084
      3139.097        2446.050
  13900923.521 8  10829295.57746  24263813.765    24263815.4044   24263823.6964
     -2814.002       -2192.729
  11325930.336 8   8710779.17446  24162468.590    24162470.8054   24162477.9534
     -2131.464       -1660.881
   2383654.308 9   1859302.52448  21267448.662    21267449.8594   21267455.3534
     -1186.476        -924.527
   -914776.500 9   -694232.67149  20645205.246    20645206.6564   20645211.4004
     -1345.609       -1048.526
   2292232.413 9   1794517.41747  23460305.907    23460307.0594   23460313.9334
     -1958.319       -1525.963
 96 11 14 18  9 29.9990000  0  7 25 15  3 23 21  1 31               -0.000574092
 -18376559.813 9 -13805719.77048  21795768.376    21795770.3704   21795776.1244
      2857.746        2226.815
 -14923528.671 9 -11609576.36747  22057376.499    22057377.3524   22057383.3774
      3128.819        2438.041
  13985295.083 9  10895039.52846  24279869.332    24279870.8394   24279879.1244
     -2810.867       -2190.286
  11389934.115 8   8760652.14146  24174648.284    24174650.4374   24174657.4434
     -2135.343       -1663.904
   2419376.970 9   1887138.33648  21274246.417    21274247.6734   21274253.1854
     -1195.055        -931.212
   -874259.573 9   -662661.04949  20652915.297    20652916.7564   20652921.5614
     -1355.359       -1056.124
   2351109.746 9   1840395.78147  23471510.010    23471511.2104   23471518.0394
     -1966.873       -1532.628
 96 11 14 18  9 59.9990000  0  7 25 15  3 23 21  1 31               -0.000578477
 -18462117.341 9 -13872387.95548  21779486.784    21779489.3514   21779495.0524
      2846.058        2217.707
 -15017215.093 9 -11682578.78247  22039547.803    22039549.4164   22039555.3714
      3117.033        2428.857
  14069591.432 9  10960724.87546  24295910.229    24295912.1154   24295920.2614
     -2808.754       -2188.639
  11454065.925 8   8810624.83346  24186852.171    24186854.4524   24186861.4204
     -2140.013       -1667.543
   2455375.385 9   1915189.01548  21281096.752    21281097.9554   21281103.4804
     -1204.568        -938.624
   -833432.074 9   -630847.41949  20660684.436    20660686.0014   20660690.8344
     -1366.321       -1064.666
   2410258.962 9   1886485.99847  23482765.619    23482766.9674   23482773.9334
     -1976.390       -1540.044
 96 11 14 18 10 29.9990000  0  7 25 15  3 23 21  1 31               -0.000582871
 -18547336.909 9 -13938792.79048  21763270.396    21763272.6054   21763278.2594
      2835.562        2209.529
 -15110566.464 9 -11755320.09947  22021783.954    22021785.3074   22021791.2664
      3106.684        2420.793
  14153799.830 8  11026341.66746  24311934.779    24311936.6064   24311944.7834
     -2804.929       -2185.659
  11518318.125 8   8860691.36046  24199078.718    24199081.3594   24199088.2004
     -2143.129       -1669.971
   2491630.930 9   1943440.05548  21287995.814    21287997.1694   21288002.7004
     -1212.047        -944.452
   -792301.043 9   -598797.26549  20668511.366    20668512.9684   20668517.8304
     -1375.329       -1071.685
   2469673.227 9   1932782.76647  23494072.035    23494073.2294   23494080.1034
     -1984.431       -1546.310
 96 11 14 18 10 59.9990000  0  8 25 15  3 23 21  1 31 29            -0.000587274
 -18632224.817 9 -14004939.18348  21747116.984    21747118.9704   21747124.5804
      2823.976        2200.501
 -15203592.405 9 -11827807.84247  22004082.037    22004083.0734   22004089.0784
      3095.283        2411.909
  14237920.912 8  11091890.39445  24327942.417    24327944.4444   24327952.5534
     -2803.168       -2184.287
  11582677.982 9   8910841.76646  24211326.189    24211328.7624   24211335.5004
     -2147.222       -1673.160
   2528113.376 9   1971867.89648  21294938.085    21294939.5664   21294945.1054
     -1219.899        -950.571
   -750895.424 9   -566533.14949  20676390.846    20676392.2264   20676397.0894
     -1384.659       -1078.955
   2529355.672 9   1979288.47447  23505429.259    23505430.5674   23505437.3644
     -1994.263       -1553.971
   -221553.32619   -154143.19556  24557377.004           0.0005   24557384.7685
      3170.495        2470.515
 96 11 14 18 11 29.9990000  0  8 25 15  3 23 21  1 31 29            -0.000591666
 -18716767.771 9 -14070816.78448  21731029.160    21731030.9604   21731036.5484
      2812.341        2191.435
 -15296278.523 9 -11900030.77547  21986444.197    21986445.3834   21986451.4464
      3083.923        2403.057
  14322001.807 8  11157407.90845  24343942.600    24343944.5644   24343952.5904
     -2802.084       -2183.442
  11647155.598 9   8961083.95746  24223597.466    24223598.6834   24223605.2954
     -2151.137       -1676.211
   2564828.495 9   2000477.04948  21301924.830    21301926.2544   21301931.7864
     -1227.649        -956.610
   -709219.860 9   -534058.68849  20684321.439    20684322.8334   20684327.7334
     -1393.553       -1085.885
   2589336.835 9   2026026.97847  23516843.169    23516844.7314   23516851.4254
     -2004.220       -1561.730
   -316574.576 8   -228185.69846  24539294.309    24539295.2775   24539302.9144
      3164.471        2465.822
 96 11 14 18 11 59.9990000  0  8 25 15  3 23 21  1 31 29            -0.000596056
 -18800959.275 9 -14136420.52748  21715008.359    21715009.8764   21715015.4574
      2800.001        2181.819
 -15388627.483 9 -11971991.00047  21968870.488    21968871.8664   21968878.0164
      3072.325        2394.019
  14406054.636 8  11222903.44946  24359937.236    24359939.2334   24359947.3774
     -2801.738       -2183.172
  11711752.849 9   9011419.36646  24235889.793    24235891.1644   24235898.0814
     -2155.763       -1679.815
   2601772.374 9   2029264.45648  21308955.256    21308956.4624   21308962.0174
     -1235.604        -962.808
   -667278.101 9   -501376.80849  20692302.855    20692304.1464   20692309.0154
     -1402.957       -1093.213
   2649598.241 9   2072983.84747  23528310.474    23528312.0544   23528318.9014
     -2013.419       -1568.898
   -411422.461 8   -302093.12155  24521244.017    24521246.4385   24521253.5065
      3158.362        2461.061
 96 11 14 18 12 29.9990000  0  8 25 15  3 23 21  1 31 29            -0.000600437
 -18884780.486 9 -14201735.73148  21699057.525    21699059.2084   21699064.8294
      2787.829        2172.334
 -15480634.851 9 -12043685.02747  21951361.913    21951363.4014   21951369.7444
      3061.200        2385.351
  14490088.655 8  11288384.32345  24375928.330    24375930.3314   24375938.7914
     -2800.776       -2182.423
  11776490.614 8   9061864.25846  24248209.375    24248210.4804   24248217.3714
     -2160.277       -1683.333
   2638952.360 9   2058235.84248  21316030.195    21316031.5924   21316037.2114
     -1243.437        -968.912
   -625064.237 9   -468482.90249  20700335.888    20700337.2344   20700342.0824
     -1411.618       -1099.962
   2710123.493 9   2120146.28847  23539828.397    23539829.7624   23539836.5004
     -2021.811       -1575.437
   -506092.561 8   -375862.06645  24503227.765    24503231.0674   24503238.6584
      3152.655        2456.614
 96 11 14 18 12 59.9990000  0  8 25 15  3 23 21  1 31 29            -0.000604806
 -18968223.262 9 -14266756.05648  21683178.762    21683180.5494   21683186.1994
      2775.421        2162.666
 -15572292.443 9 -12115106.52147  21933920.508    21933921.6474   21933927.8344
      3049.678        2376.372
  14574107.755 8  11353853.62145  24391916.824    24391918.6704   24391927.2774
     -2799.958       -2181.785
  11841368.303 9   9112418.16846  24260555.692    24260556.3304   24260563.4904
     -2164.427       -1686.566
   2676388.133 9   2087406.55648  21323153.849    21323155.3684   21323161.0324
     -1252.006        -975.589
   -582572.956 9   -435372.83549  20708421.812    20708423.1024   20708427.9454
     -1420.777       -1107.099
   2770904.572 9   2167508.09847  23551394.471    23551395.9364   23551402.7804
     -2029.777       -1581.644
   -600579.919 8   -449488.54846  24485247.481    24485250.8164   24485258.4794
      3146.892        2452.124
 96 11 14 18 13 29.9990000  0  8 25 15  3 23 21  1 31 29            -0.000609173
 -19051287.932 9 -14331481.74548  21667372.423    21667373.8564   21667379.4954
      2762.596        2152.672
 -15663598.458 9 -12186254.05447  21916545.788    21916546.6694   21916552.8564
      3037.746        2367.075
  14658095.961 8  11419298.84145  24407899.092    24407901.3424   24407909.5644
     -2798.642       -2180.760
  11906369.381 8   9163068.24746  24272925.163    24272925.6134   24272932.8914
     -2168.566       -1689.792
   2714089.902 9   2116784.53048  21330328.336    21330329.8194   21330335.4294
     -1261.037        -982.626
   -539801.119 9   -402044.14549  20716560.817    20716562.2984   20716567.1634
     -1430.268       -1114.495
   2831920.592 9   2215052.94747  23563005.060    23563006.8294   23563013.9084
     -2037.645       -1587.775
   -694897.044 9   -522982.37846  24467299.757    24467303.0464   24467310.6124
      3141.229        2447.711
 96 11 14 18 13 59.9990000  0  8 25 15  3 23 21  1 31 29            -0.000613546
 -19133966.367 9 -14395906.48448  21651639.040    21651640.6784   21651646.2434
      2749.242        2142.266
 -15754546.623 9 -12257122.74447  21899238.598    21899239.8344   21899246.0164
      3025.252        2357.339
  14742038.168 8  11484708.17046  24423872.714    24423875.1144   24423883.3964
     -2797.588       -2179.939
  11971491.201 8   9213812.39046  24285317.191    24285317.9894   24285325.3484
     -2172.921       -1693.185
   2752061.814 9   2146373.00848  21337554.275    21337555.6514   21337561.2144
     -1270.597        -990.076
   -496748.118 9   -368496.37949  20724753.529    20724755.0014   20724759.8984
     -1440.111       -1122.164
   2893163.013 9   2262774.23446  23574659.013    23574660.9084   23574668.0254
     -2045.488       -1593.887
   -789047.513 9   -596346.42646  24449383.785    24449386.8384   24449394.4174
      3135.240        2443.044
 96 11 14 18 14 29.9990000  0  8 25 15  3 23 21  1 31 29            -0.000617928
 -19216264.466 9 -14460034.86348  21635978.050    21635979.8994   21635985.3904
      2737.831        2133.375
 -15845130.024 9 -12327707.20347  21882000.842    21882002.4114   21882008.5734
      3013.998        2348.570
  14825921.049 8  11550071.34646  24439835.342    24439837.4384   24439845.9864
     -2794.352       -2177.417
  12036719.360 8   9264639.40446  24297729.265    24297730.5214   24297738.1194
     -2175.238       -1694.991
   2790308.389 9   2176175.50348  21344832.495    21344833.7674   21344839.2524
     -1278.816        -996.480
   -453414.429 9   -334729.89849  20732999.781    20733001.1494   20733006.0604
     -1448.464       -1128.673
   2954636.471 9   2310675.52247  23586357.134    23586358.9164   23586366.0674
     -2052.497       -1599.348
   -883037.054 9   -669584.99046  24431498.147    24431500.9924   24431508.8964
      3131.125        2439.838
 96 11 14 18 14 59.9990000  0  8 25 15  3 23 21  1 31 29            -0.000622362
 -19298231.648 9 -14523905.38448  21620380.229    21620382.0774   21620387.5424
      2726.818        2124.793
 -15935374.066 9 -12398027.23847  21864827.918    21864829.5544   21864835.6604
      3002.403        2339.535
  14909715.250 8  11615365.35746  24455781.199    24455783.3084   24455791.7984
     -2791.860       -2175.475
  12102010.895 8   9315515.81546  24310153.464    24310155.1734   24310162.9534
     -2177.527       -1696.774
   2828798.507 9   2206167.78248  21352156.819    21352158.2544   21352163.6684
     -1286.933       -1002.805
   -409826.427 9   -300765.25449  20741294.202    20741295.7194   20741300.5904
     -1457.224       -1135.499
   3016326.507 9   2358745.58947  23598096.626    23598098.3754   23598105.2774
     -2060.223       -1605.369
   -976906.400 9   -742729.95846  24413635.441    24413638.3324   24413646.0774
      3126.971        2436.601
 96 11 14 18 15 29.9990000  0  8 25 15  3 23 21  1 31 29            -0.000626780
 -19379857.908 9 -14587510.25348  21604847.265    21604849.0824   21604854.5884
      2715.056        2115.628
 -16025260.846 9 -12468068.86248  21847723.219    21847724.6634   21847730.7814
      2990.085        2329.936
  14993442.592 8  11680607.34845  24471713.655    24471715.9894   24471724.7314
     -2789.869       -2173.924
  12167389.722 8   9366460.24446  24322594.320    24322596.3224   24322604.1144
     -2181.242       -1699.669
   2867535.399 9   2236352.35648  21359528.158    21359529.6164   21359535.0934
     -1295.409       -1009.410
   -365971.324 9   -266592.47949  20749639.603    20749641.0774   20749645.9394
     -1466.422       -1142.666
   3078268.491 9   2407011.98447  23609884.292    23609885.8444   23609892.5654
     -2069.241       -1612.396
  -1070639.790 9   -815768.92946  24395798.453    24395801.5234   24395809.1164
      3121.813        2432.582
 96 11 14 18 15 59.9990000  0  8 25 15  3 23 21  1 31 29            -0.000631193
 -19461133.633 9 -14650841.98548  21589380.870    21589382.8014   21589388.3214
      2703.526        2106.644
 -16114779.387 9 -12537823.58147  21830688.790    21830689.9914   21830695.8434
      2978.020        2320.535
  15077106.103 8  11745799.50846  24487634.492    24487636.7244   24487645.5444
     -2787.415       -2172.012
  12232884.808 8   9417495.26446  24335057.588    24335059.6994   24335067.5724
     -2184.822       -1702.459
   2906527.952 9   2266736.13948  21366947.951    21366949.6434   21366955.2004
     -1303.886       -1016.015
   -321836.188 9   -232201.48849  20758038.000    20758039.6794   20758044.6004
     -1475.820       -1149.990
   3140478.717 9   2455487.39347  23621722.811    23621724.1944   23621730.9144
     -2077.997       -1619.218
  -1164219.316 9   -888687.99246  24377990.965    24377993.9924   24378001.5164
      3117.081        2428.894
 96 11 14 18 16 29.9990000  0  8 25 15  3 23 21  1 31 29            -0.000635607
 -19542061.017 9 -14713902.28448  21573980.625    21573982.7994   21573988.3154
      2691.819        2097.521
 -16203930.086 9 -12607291.62647  21813723.624    21813725.0774   21813731.0954
      2965.671        2310.912
  15160700.064 8  11810937.57846  24503542.161    24503544.1794   24503553.2334
     -2785.159       -2170.254
  12298485.995 8   9468612.94146  24347541.581    24347543.5754   24347551.1464
     -2188.356       -1705.212
   2945779.691 9   2297321.87548  21374417.469    21374419.0274   21374424.6324
     -1312.444       -1022.684
   -277410.639 9   -197584.20948  20766492.020    20766493.6154   20766498.5204
     -1485.599       -1157.610
   3202965.425 9   2504178.29146  23633613.653    23633614.9754   23633621.7654
     -2087.525       -1626.643
  -1257655.610 9   -961495.52146  24360210.967    24360213.7364   24360221.1134
      3112.176        2425.072
 96 11 14 18 16 59.9990000  0  8 25 15  3 23 21  1 31 29            -0.000640027
 -19622636.692 9 -14776688.52248  21558647.763    21558649.7774   21558655.2464
      2679.866        2088.207
 -16292715.535 9 -12676475.08047  21796828.339    21796829.7414   21796835.7604
      2953.377        2301.333
  15244219.067 8  11876017.18246  24519435.277    24519437.5164   24519446.6234
     -2782.567       -2168.234
  12364192.482 8   9519812.70346  24360046.563    24360047.1924   24360054.8324
     -2191.980       -1708.036
   2985273.746 9   2328096.43648  21381933.611    21381934.5384   21381940.1534
     -1320.453       -1028.924
   -232693.695 9   -162739.85648  20775001.429    20775002.9634   20775007.8684
     -1495.397       -1165.244
   3265730.706 9   2553086.18246  23645558.015    23645558.9314   23645565.6194
     -2096.613       -1633.724
  -1350942.241 9  -1034186.40446  24342459.337    24342461.9544   24342469.2424
      3107.005        2421.043
 96 11 14 18 17 29.9990000  0  8 25 15  3 23 21  1 31 29            -0.000644454
 -19702845.534 9 -14839188.91348  21543384.708    21543386.5304   21543392.0494
      2667.357        2078.460
 -16381132.426 9 -12745371.35647  21780003.034    21780004.5134   21780010.5424
      2940.976        2291.670
  15327644.808 8  11941024.06945  24535311.106    24535312.9424   24535322.0354
     -2779.216       -2165.623
  12430013.758 8   9571101.87046  24372571.539    24372572.6724   24372580.2974
     -2196.209       -1711.332
   3025015.309 9   2359063.85848  21389496.270    21389497.1384   21389502.7324
     -1329.085       -1035.651
   -187689.489 9   -127671.66448  20783565.360    20783566.9434   20783571.9024
     -1504.916       -1172.662
   3328757.382 9   2602197.80547  23657552.118    23657552.7694   23657559.3124
     -2105.097       -1640.335
  -1444065.699 9  -1106750.11246  24324738.790    24324741.1414   24324748.4624
      3101.292        2416.591
 96 11 14 18 17 59.9990000  0  8 25 15  3 23 21  1 31 29            -0.000648856
 -19782678.955 9 -14901396.77248  21528192.760    21528194.7004   21528200.2534
      2655.071        2068.886
 -16469171.209 9 -12813973.00247  21763249.841    21763251.2244   21763257.3444
      2928.448        2281.908
  15410965.850 8  12005949.44746  24551166.559    24551168.3114   24551177.3754
     -2775.368       -2162.624
  12495960.539 9   9622488.85446  24385121.420    24385122.1604   24385129.5314
     -2199.933       -1714.234
   3065015.575 9   2390232.87048  21397108.059    21397108.9804   21397114.5504
     -1337.524       -1042.226
   -142395.859 9    -92377.94648  20792184.366    20792186.0204   20792191.0524
     -1514.358       -1180.019
   3392030.402 9   2651501.35746  23669592.159    23669593.1514   23669599.7014
     -2112.882       -1646.402
  -1537020.484 9  -1179182.37746  24307049.896    24307052.4964   24307059.7244
      3095.914        2412.401
 96 11 14 18 18 29.9990000  0  8 25 15  3 23 21  1 31 29            -0.000653305
 -19862152.255 9 -14963324.00948  21513069.272    21513071.4184   21513076.9874
      2643.207        2059.642
 -16556837.227 9 -12882284.18347  21746567.434    21746568.9304   21746575.0484
      2916.022        2272.225
  15494171.381 8  12070784.78646  24567000.231    24567001.9284   24567011.0574
     -2771.472       -2159.589
  12562014.021 8   9673958.94246  24397691.482    24397691.8394   24397699.3284
     -2203.719       -1717.184
   3105262.749 9   2421594.27148  21404766.519    21404767.7794   21404773.3364
     -1345.551       -1048.481
    -96835.354 9    -56876.26948  20800854.307    20800855.8944   20800860.9524
     -1522.952       -1186.716
   3455521.589 9   2700974.95446  23681673.468    23681675.2754   23681681.7444
     -2119.650       -1651.675
  -1629814.269 9  -1251489.19746  24289391.411    24289394.2784   24289401.6774
      3090.337        2408.055
 96 11 14 18 18 59.9990000  0  8 25 15  3 23 21  1 31 29            -0.000657747
 -19941256.680 9 -15024963.81248  21498016.263    21498018.3364   21498023.8934
      2630.879        2050.035
 -16644115.667 9 -12950293.36347  21729958.671    21729960.4134   21729966.4464
      2903.019        2262.093
  15577274.103 8  12135539.97046  24582814.287    24582815.9924   24582825.1724
     -2768.220       -2157.055
  12628208.386 8   9725538.87346  24410286.888    24410288.1244   24410295.7564
     -2208.815       -1721.155
   3145770.868 9   2453159.00348  21412474.797    21412476.2504   21412481.8154
     -1354.666       -1055.584
    -51001.158 9    -21161.33248  20809576.259    20809577.8554   20809582.9334
     -1532.079       -1193.828
   3519217.391 9   2750607.92246  23693794.302    23693796.1034   23693802.7244
     -2126.012       -1656.633
  -1722427.613 9  -1323655.42746  24271767.280    24271770.4134   24271777.8534
      3084.503        2403.509
 96 11 14 18 19 29.9990000  0  8 25 15  3 23 21  1 31 29            -0.000662161
 -20019984.378 9 -15086310.05748  21483034.496    21483036.9214   21483042.4964
      2617.775        2039.825
 -16731001.586 9 -13017996.67148  21713424.782    21713426.5794   21713432.6044
      2889.472        2251.537
  15660283.365 8  12200222.38646  24598610.877    24598612.3604   24598621.3244
     -2765.652       -2155.053
  12694562.484 9   9777243.22746  24422913.023    24422914.8724   24422922.7834
     -2214.553       -1725.626
   3186561.541 9   2484943.89848  21420237.207    21420238.4964   21420244.0714
     -1364.515       -1063.258
     -4898.118 9     14763.09548  20818349.428    20818351.0034   20818356.0604
     -1541.368       -1201.066
   3583102.527 9   2800388.44446  23705951.370    23705953.0014   23705959.7554
     -2132.963       -1662.049
  -1814869.204 9  -1395687.85646  24254176.542    24254179.3264   24254186.6014
      3078.487        2398.821
 96 11 14 18 19 59.9990000  0  8 25 15  3 23 21  1 31 29            -0.000666573
 -20098335.159 9 -15147362.60748  21468125.069    21468127.3044   21468132.7884
      2605.347        2030.141
 -16817497.502 9 -13085396.07848  21696965.197    21696966.9494   21696973.0254
      2876.754        2241.626
  15743204.293 8  12264835.98646  24614390.320    24614391.6094   24614400.6454
     -2762.714       -2152.764
  12761062.062 8   9829060.97746  24435567.983    24435569.6194   24435577.2184
     -2218.737       -1728.886
   3227622.629 9   2516939.50348  21428050.945    21428052.2164   21428057.8124
     -1373.289       -1070.095
     41470.495 9     50894.46349  20827173.167    20827174.6814   20827179.7034
     -1550.000       -1207.792
   3647174.508 9   2850314.58746  23718144.312    23718145.6544   23718152.4204
     -2138.827       -1666.618
  -1907152.709 8  -1467597.07346  24236615.827    24236618.4214   24236625.4074
      3073.494        2394.930
 96 11 14 18 20 29.9990000  0  8 25 15  3 23 21  1 31 29            -0.000670978
 -20176301.878 9 -15208115.88348  21453288.597    21453290.7494   21453296.1624
      2592.155        2019.861
 -16903605.361 9 -13152493.11148  21680579.523    21680581.0944   21680587.1844
      2863.599        2231.376
  15826050.669 8  12329391.50446  24630155.366    24630156.7344   24630165.9464
     -2760.461       -2151.008
  12827690.508 8   9880979.08446  24448247.089    24448248.6124   24448256.3484
     -2223.400       -1732.519
   3268961.087 9   2549151.23748  21435917.510    21435918.7064   21435924.3544
     -1382.737       -1077.457
     88102.060 9     87230.72749  20836046.932    20836048.4204   20836053.4304
     -1558.999       -1214.804
   3711427.259 9   2900381.58746  23730371.369    23730372.5194   23730379.3404
     -2145.114       -1671.517
  -1999277.777 9  -1539382.82246  24219085.135    24219087.4244   24219094.8314
      3068.049        2390.688
 96 11 14 18 20 59.9990000  0  8 25 15  3 23 21  1 31 29            -0.000675384
 -20253870.964 9 -15268559.31148  21438527.561    21438529.8194   21438535.2054
      2579.147        2009.725
 -16989324.076 9 -13219286.92148  21664267.557    21664269.3924   21664275.4294
      2851.018        2221.572
  15908816.268 8  12393884.04546  24645905.049    24645906.5834   24645915.9264
     -2757.109       -2148.397
  12894455.989 8   9933004.03245  24460953.234    24460953.7304   24460961.3514
     -2227.426       -1735.657
   3310576.900 9   2581579.09548  21443836.727    21443837.9224   21443843.6244
     -1391.508       -1084.292
    134997.078 9    123772.28348  20844970.744    20844972.2754   20844977.3024
     -1567.120       -1221.132
   3775873.357 9   2950599.22246  23742634.908    23742636.2294   23742643.1764
     -2151.311       -1676.346
  -2091250.758 9  -1611050.06246  24201583.192    24201585.5314   24201593.1344
      3063.444        2387.099
 96 11 14 18 21 29.9990000  0  8 25 15  3 23 21  1 31 29            -0.000679801
 -20331026.927 9 -15328680.82048  21423845.368    21423847.4434   21423852.8714
      2564.812        1998.555
 -17074650.543 9 -13285775.06448  21648030.436    21648032.2834   21648038.3624
      2837.456        2211.005
  15991484.737 8  12458300.88946  24661636.688    24661637.9964   24661647.2824
     -2753.987       -2145.964
  12961340.042 8   9985121.34446  24473681.552    24473681.3424   24473689.1844
     -2231.334       -1738.702
   3352460.393 9   2614215.54348  21451806.808    21451808.0774   21451813.8034
     -1400.533       -1091.324
    182143.092 9    160509.41649  20853942.363    20853943.8974   20853948.8984
     -1575.816       -1227.909
   3840524.632 9   3000976.72546  23754937.867    23754939.1244   23754946.0014
     -2158.655       -1682.069
  -2183061.075 9  -1682590.56746  24184111.994    24184114.6484   24184122.3034
      3057.240        2382.265
 96 11 14 18 21 59.9990000  0  8 25 15  3 23 21  1 31 29            -0.000684225
 -20407776.748 9 -15388485.84948  21409240.093    21409242.3974   21409247.8684
      2551.492        1988.176
 -17159587.579 9 -13351959.76848  21631867.869    21631869.3674   21631875.3714
      2824.513        2200.919
  16074034.776 9  12522625.46646  24677345.243    24677347.0454   24677356.2324
     -2749.875       -2142.760
  13028318.997 8  10037312.58946  24486426.726    24486427.1264   24486435.2444
     -2234.501       -1741.170
   3394603.204 9   2647054.05248  21459826.163    21459827.5964   21459833.3404
     -1409.430       -1098.257
    229529.104 9    197433.56249  20862959.744    20862961.2234   20862966.1834
     -1583.683       -1234.039
   3905377.639 9   3051511.45446  23767279.183    23767280.4614   23767287.2664
     -2165.406       -1687.329
  -2274702.295 9  -1753999.29246  24166673.510    24166675.9204   24166683.6614
      3051.589        2377.861
 96 11 14 18 22 29.9990000  0  8 25 15  3 23 21  1 31 29            -0.000688630
 -20484115.824 9 -15447970.80948  21394713.286    21394715.4984   21394721.0574
      2538.022        1977.679
 -17244117.712 9 -13417827.40048  21615782.474    21615783.9084   21615789.8344
      2810.990        2190.382
  16156471.139 8  12586861.46446  24693032.694    24693034.4214   24693043.4524
     -2745.570       -2139.405
  13095414.562 8  10089594.72746  24499193.416    24499195.0294   24499203.0924
     -2238.559       -1744.332
   3437025.090 9   2680110.03648  21467898.723    21467900.2404   21467905.9934
     -1418.401       -1105.247
    277162.838 9    234550.73949  20872024.202    20872025.6514   20872030.6254
     -1591.759       -1240.332
   3970454.193 9   3102220.30546  23779662.760    23779664.0414   23779671.0004
     -2172.986       -1693.236
  -2366158.908 9  -1825264.18446  24149270.206    24149272.3084   24149280.0284
      3045.681        2373.258
 96 11 14 18 22 59.9990000  0  8 25 15  3 23 21  1 31 29            -0.000693020
 -20560053.047 9 -15507142.64248  21380262.632    21380265.0674   21380270.6704
      2524.842        1967.409
 -17328239.494 9 -13483376.82848  21599774.656    21599776.0304   21599781.8924
      2797.520        2179.886
  16238776.713 8  12650995.55345  24708695.329    24708696.6834   24708705.7514
     -2741.133       -2135.948
  13162633.967 8  10141973.35245  24511984.655    24511986.4524   24511994.6374
     -2242.155       -1747.134
   3479709.302 9   2713370.41948  21476021.393    21476022.8054   21476028.5744
     -1426.776       -1111.774
    325038.519 9    271856.44949  20881134.627    20881136.0854   20881141.0874
     -1599.519       -1246.378
   4035762.856 9   3153110.07847  23792090.327    23792091.8974   23792098.9804
     -2180.390       -1699.005
  -2457434.436 9  -1896387.91946  24131901.273    24131903.1854   24131910.7854
      3039.784        2368.663
 96 11 14 18 23 29.9990000  0  8 25 15  3 23 21  1 31 29            -0.000697411
 -20635602.728 9 -15566012.49748  21365886.390    21365888.4364   21365894.0154
      2512.425        1957.734
 -17411962.464 9 -13548615.49748  21583842.709    21583844.0584   21583849.9574
      2784.436        2169.690
  16320949.228 8  12715025.92746  24724332.392    24724333.6994   24724342.8644
     -2736.768       -2132.546
  13229944.618 9  10194423.05946  24524793.055    24524795.3864   24524803.5044
     -2244.892       -1749.266
   3522639.614 9   2746822.56748  21484191.206    21484192.1884   21484197.9824
     -1434.944       -1118.138
    373141.080 9    309338.95448  20890288.190    20890289.6894   20890294.6924
     -1606.844       -1252.086
   4101283.458 9   3204164.98246  23804558.841    23804560.2904   23804567.2424
     -2187.309       -1704.397
  -2548541.203 9  -1967380.16446  24114564.046    24114566.1024   24114573.8844
      3034.587        2364.613
 96 11 14 18 23 59.9990000  0  8 25 15  3 23 21  1 31 29            -0.000701786
 -20710770.156 9 -15624584.48748  21351583.343    21351584.5484   21351590.1154
      2499.356        1947.550
 -17495273.911 9 -13613533.49748  21567988.926    21567990.4004   21567996.3264
      2770.288        2158.666
  16403018.138 8  12778975.61046  24739949.533    24739950.7604   24739960.3304
     -2733.878       -2130.294
  13297368.214 9  10246960.75446  24537623.688    24537626.0654   24537633.8524
     -2249.402       -1752.781
   3565830.593 9   2780477.82348  21492410.249    21492411.2144   21492417.0254
     -1443.664       -1124.933
    421483.188 9    347008.11348  20899487.368    20899488.8824   20899493.8924
     -1615.300       -1258.675
   4167032.359 9   3255397.75246  23817070.810    23817071.9574   23817079.0844
     -2195.336       -1710.651
  -2639485.004 9  -2038245.39446  24097257.969    24097260.0974   24097267.7924
      3028.884        2360.169
 96 11 14 18 24 29.9990000  0  8 25 15  3 23 21  1 31 29            -0.000706191
 -20785552.983 9 -15682856.79548  21337352.213    21337353.8384   21337359.4004
      2486.226        1937.319
 -17578171.793 9 -13678129.24248  21552213.881    21552215.4614   21552221.3844
      2756.353        2147.807
  16484985.986 8  12842846.51346  24755547.730    24755549.0314   24755558.4754
     -2730.520       -2127.678
  13364911.489 9  10299591.75046  24550477.789    24550479.2504   24550486.9044
     -2253.332       -1755.843
   3609260.055 9   2814318.91948  21500674.728    21500675.6404   21500681.3994
     -1451.552       -1131.079
    470066.340 9    384865.09648  20908732.355    20908733.9674   20908738.9974
     -1623.420       -1265.003
   4233006.598 9   3306806.19846  23829625.449    23829626.6404   23829633.3944
     -2202.718       -1716.404
  -2730267.563 9  -2108985.02746  24079982.378    24079984.6794   24079992.3794
      3023.492        2355.968
 96 11 14 18 24 59.9990000  0  8 25 15  3 23 21  1 31 29            -0.000710591
 -20859941.608 9 -15740821.93348  21323196.353    21323198.1304   21323203.6624
      2472.872        1926.913
 -17660655.998 9 -13742402.64648  21536517.532    21536519.2434   21536525.1564
      2742.487        2137.003
  16566854.651 8  12906640.15746  24771126.866    24771128.0224   24771137.6664
     -2727.406       -2125.251
  13432559.086 8  10352304.02345  24563350.700    24563352.1064   24563360.0404
     -2256.556       -1758.355
   3652925.719 9   2848344.07348  21508983.821    21508985.0104   21508990.7134
     -1459.691       -1137.422
    518887.422 9    422907.48248  20918022.701    20918024.2974   20918029.3334
     -1631.447       -1271.257
   4299189.701 9   3358377.34647  23842219.674    23842220.9624   23842227.6874
     -2209.376       -1721.592
  -2820894.030 9  -2179603.01746  24062737.041    24062739.0134   24062746.7084
      3018.312        2351.931
 96 11 14 18 25 29.9990000  0  8 25 15  3 23 21  1 31 29            -0.000715001
 -20933934.696 9 -15798478.85648  21309115.544    21309117.6694   21309123.1944
      2460.384        1917.182
 -17742725.272 9 -13806352.72148  21520900.554    21520902.0284   21520907.9644
      2729.065        2126.544
  16648623.332 8  12970355.85945  24786687.283    24786688.2604   24786697.8904
     -2723.378       -2122.113
  13500306.224 8  10405093.88246  24576242.175    24576244.0244   24576251.9444
     -2259.815       -1760.895
   3696842.715 9   2882565.08948  21517340.910    21517342.1614   21517347.8544
     -1467.922       -1143.835
    567949.199 9    461137.42748  20927358.723    20927360.4124   20927365.5084
     -1639.097       -1277.218
   4365565.134 9   3410098.38347  23854850.760    23854851.9074   23854858.5964
     -2215.389       -1726.277
  -2911373.913 9  -2250106.84446  24045519.571    24045521.3204   24045528.7314
      3013.832        2348.441
 96 11 14 18 25 59.9990000  0  8 25 15  3 23 21  1 31 29            -0.000719409
 -21007541.088 9 -15855834.45948  21295108.627    21295110.8214   21295116.2954
      2447.379        1907.049
 -17824378.434 9 -13869978.54548  21505362.520    21505363.9374   21505369.8934
      2715.249        2115.778
  16730273.953 8  13033979.56546  24802224.914    24802225.7884   24802235.5344
     -2719.054       -2118.743
  13568173.907 8  10457977.66245  24589156.993    24589158.8964   24589166.6744
     -2263.660       -1763.891
   3741018.865 9   2916988.02748  21525747.221    21525748.6034   21525754.3304
     -1476.413       -1150.452
    617255.912 9    499558.22648  20936741.751    20936743.1624   20936748.3054
     -1647.232       -1283.557
   4432123.669 9   3461962.05046  23867516.459    23867517.7294   23867524.5354
     -2220.966       -1730.623
  -3001695.533 9  -2320487.24346  24028331.509    24028333.5344   24028341.1274
      3008.297        2344.128
 96 11 14 18 26 29.9990000  0  8 25 15  3 23 21  1 31 29            -0.000723806
 -21080747.751 9 -15912878.59248  21281178.106    21281180.0354   21281185.5054
      2433.206        1896.005
 -17905607.650 9 -13933274.03848  21489905.158    21489906.5884   21489912.4724
      2700.243        2104.085
  16811798.901 8  13097505.35746  24817738.939    24817739.8734   24817749.3664
     -2715.744       -2116.164
  13636156.488 8  10510950.96345  24602093.637    24602095.5534   24602103.4844
     -2268.326       -1767.527
   3785465.873 9   2951622.02148  21534204.926    21534206.5454   21534212.3394
     -1486.664       -1158.439
    666809.020 9    538171.02548  20946171.238    20946172.8044   20946177.9674
     -1656.089       -1290.459
   4498845.277 9   3513952.81046  23880213.098    23880214.3554   23880221.4744
     -2227.055       -1735.368
  -3091835.981 9  -2390726.54347  24011178.260    24011180.4314   24011188.0834
      3001.345        2338.710
 96 11 14 18 26 59.9990000  0  8 25 15  3 23 21  1 31 29            -0.000728160
 -21153544.367 9 -15969603.21348  21267325.465    21267327.2824   21267332.7324
      2420.314        1885.959
 -17986402.383 9 -13996230.96548  21474530.372    21474531.8974   21474537.8364
      2686.538        2093.406
  16893210.486 8  13160942.79046  24833231.223    24833232.2854   24833241.7224
     -2711.150       -2112.584
  13704273.402 8  10564028.96645  24615055.125    24615057.6744   24615065.8784
     -2272.343       -1770.657
   3830213.630 9   2986490.35348  21542720.168    21542721.7854   21542727.6284
     -1495.903       -1165.639
    716615.877 9    576981.53848  20955649.338    20955650.7844   20955655.9084
     -1663.866       -1296.519
   4565732.471 9   3566072.58746  23892941.014    23892942.6114   23892949.8434
     -2231.679       -1738.971
  -3181780.241 9  -2460812.95046  23994062.451    23994064.6134   23994072.1954
      2995.295        2333.996
 96 11 14 18 27 29.9990000  0  8 25 15  3 23 21  1 31 29            -0.000732489
 -21225949.543 9 -16026022.81648  21253547.353    21253549.0434   21253554.4614
      2406.583        1875.259
 -18066781.417 9 -14058863.96548  21459234.635    21459236.2024   21459242.1914
      2672.022        2082.095
  16974485.045 8  13224273.45246  24848697.383    24848698.4314   24848707.8934
     -2707.060       -2109.397
  13772519.292 8  10617207.47745  24628041.413    24628044.5514   24628053.0034
     -2277.399       -1774.597
   3875233.746 9   3021570.91448  21551287.530    21551288.8754   21551294.7424
     -1505.272       -1172.939
    766658.373 9    615975.67448  20965172.192    20965173.6204   20965178.7134
     -1672.315       -1303.102
   4632759.894 9   3618301.62746  23905695.812    23905697.5014   23905704.8274
     -2236.858       -1743.006
  -3271531.845 9  -2530749.25146  23976983.449    23976985.3704   23976992.7334
      2988.082        2328.376
 96 11 14 18 27 59.9990000  0  8 25 15  3 23 21  1 31 29            -0.000736815
 -21297937.725 9 -16082117.49548  21239848.347    21239850.1884   21239855.5454
      2392.922        1864.615
 -18146728.935 9 -14121160.73148  21444020.962    21444022.7134   21444028.6244
      2658.220        2071.340
  17055635.465 8  13287507.38246  24864140.173    24864140.9624   24864150.3004
     -2702.417       -2105.779
  13840907.245 8  10670496.66145  24641054.709    24641058.3924   24641066.9534
     -2281.140       -1777.512
   3920517.621 9   3056857.00348  21559905.161    21559906.1684   21559912.0124
     -1513.173       -1179.096
    816944.443 9    655159.60848  20974741.374    20974742.7794   20974747.8544
     -1679.533       -1308.727
   4699930.532 9   3670642.27546  23918477.874    23918479.5894   23918486.9904
     -2240.864       -1746.128
  -3361070.419 9  -2600519.55346  23959944.820    23959946.8344   23959954.1294
      2981.752        2323.443
 96 11 14 18 28 29.9990000  0  8 25 15  3 23 21  1 31 29            -0.000741176
 -21369499.190 9 -16137879.66848  21226230.555    21226232.5144   21226237.8344
      2377.868        1852.884
 -18226252.576 9 -14183127.19348  21428888.365    21428889.8844   21428895.8094
      2643.469        2059.846
  17136656.240 8  13350640.31346  24879557.826    24879558.7144   24879568.1344
     -2698.733       -2102.909
  13909409.433 8  10723874.90945  24654090.699    24654094.1084   24654102.6034
     -2285.631       -1781.011
   3966043.224 9   3092331.45848  21568568.454    21568569.4804   21568575.2744
     -1521.811       -1185.827
    867449.085 9    694513.86048  20984352.124    20984353.5524   20984358.5854
     -1687.351       -1314.819
   4767234.173 9   3723086.56446  23931285.822    23931287.1754   23931294.5624
     -2246.140       -1750.239
  -3450423.101 9  -2670144.96446  23942941.509    23942943.6014   23942950.8094
      2975.366        2318.467
 96 11 14 18 28 59.9990000  0  8 25 15  3 23 21  1 31 29            -0.000745573
 -21440600.368 9 -16193283.18348  21212700.369    21212702.3834   21212707.6974
      2362.804        1841.146
 -18305330.446 9 -14244746.29748  21413840.514    21413841.8954   21413847.8354
      2628.923        2048.511
  17217560.263 8  13413682.27546  24894953.427    24894954.3464   24894963.9714
     -2694.219       -2099.391
  13978045.429 8  10777357.35345  24667151.590    24667155.2324   24667163.9434
     -2289.466       -1783.999
   4011828.881 9   3128008.55648  21577281.371    21577282.2414   21577288.0634
     -1529.886       -1192.119
    918197.017 9    734057.68448  20994009.123    20994010.5504   20994015.6254
     -1695.166       -1320.909
   4834697.079 9   3775654.98646  23944123.789    23944124.9524   23944132.3424
     -2250.961       -1753.995
  -3539592.303 9  -2739627.42546  23925973.357    23925975.2634   23925982.4264
      2969.911        2314.216
 96 11 14 18 29 29.9990000  0  8 25 15  3 23 21  1 31 29            -0.000750035
 -21511247.542 9 -16248332.93248  21199256.732    21199258.6944   21199263.9624
      2346.824        1828.694
 -18383971.764 9 -14306025.23648  21398875.355    21398876.8684   21398882.8224
      2613.536        2036.522
  17298313.054 8  13476606.39546  24910320.437    24910321.2334   24910330.8184
     -2689.462       -2095.685
  14046793.586 8  10830927.24645  24680235.685    24680237.8784   24680246.3584
     -2294.045       -1787.568
   4057853.103 9   3163871.55148  21586039.105    21586040.3674   21586046.2694
     -1538.831       -1199.089
    969167.643 9    773775.03948  21003708.659    21003709.9794   21003715.0334
     -1703.093       -1327.085
   4902308.866 9   3828339.36546  23956989.600    23956991.0304   23956998.5964
     -2256.765       -1758.518
  -3628609.087 9  -2808991.09046  23909034.364    23909035.9154   23909043.1074
      2964.376        2309.903
 96 11 14 18 29 59.9990000  0  8 25 15  3 23 21  1 31 29            -0.000754529
 -21581426.876 9 -16303018.12648  21185901.834    21185903.9854   21185909.2824
      2331.387        1816.665
 -18462160.577 9 -14366951.57548  21383996.537    21383997.9744   21384003.9054
      2598.507        2024.811
  17378908.462 8  13539407.84346  24925657.172    24925658.0944   24925667.7324
     -2684.025       -2091.448
  14115669.125 8  10884596.39745  24693343.202    24693344.5164   24693352.9204
     -2298.090       -1790.719
   4104145.661 9   3199943.63848  21594848.011    21594849.5344   21594855.5134
     -1548.008       -1206.240
   1020357.914 9    813663.55248  21013449.857    21013451.2004   21013456.2484
     -1710.046       -1332.503
   4970090.149 9   3881155.79846  23969888.154    23969889.5644   23969897.1584
     -2262.590       -1763.057
  -3717472.428 9  -2878235.19046  23892124.291    23892125.7724   23892133.0044
      2959.285        2305.936
 96 11 14 18 30 29.9990000  0  8 25 15  3 23 21  1 31 29            -0.000759042
 -21651159.567 9 -16357355.29448  21172632.029    21172634.2894   21172639.6034
      2316.952        1805.417
 -18539913.326 9 -14427538.12348  21369200.552    21369202.0764   21369208.0394
      2584.358        2013.785
  17459320.892 8  13602066.71746  24940959.046    24940960.2114   24940969.9794
     -2677.494       -2086.359
  14184655.744 8  10938352.10045  24706471.517    24706472.3804   24706480.8174
     -2301.742       -1793.565
   4150709.598 9   3236227.19248  21603708.755    21603710.3944   21603716.3464
     -1556.953       -1213.210
   1071743.241 9    853704.04648  21023227.962    21023229.4874   21023234.5594
     -1716.417       -1337.468
   5038032.815 9   3934098.01346  23982817.642    23982818.8214   23982826.4184
     -2267.573       -1766.940
  -3806203.549 9  -2947376.32046  23875238.870    23875240.6784   23875248.0564
      2955.370        2302.886
 96 11 14 18 30 59.9990000  0  7 25 15 23 21  1 31 29               -0.000763542
 -21720457.396 9 -16411353.60348  21159445.137    21159447.3744   21159452.6744
      2303.290        1794.771
 -18617223.517 9 -14487779.82148  21354488.809    21354490.4784   21354496.4394
      2569.950        2002.558
  14253773.355 8  10992209.90145  24719621.804    24719625.0144   24719633.7634
     -2305.928       -1796.827
   4197563.203 9   3272736.45348  21612624.490    21612626.3384   21612632.3084
     -1566.171       -1220.393
   1123341.681 9    893910.60548  21033046.946    21033048.3474   21033053.4394
     -1723.069       -1342.651
   5106143.663 9   3987171.30646  23995778.532    23995779.8454   23995787.4934
     -2272.855       -1771.056
  -3894790.376 9  -3016404.94246  23858381.236    23858383.2234   23858390.4354
      2950.731        2299.271
 96 11 14 18 31 29.9990000  0  7 25 15 23 21  1 31 29               -0.000768012
 -21789338.521 9 -16465027.20748  21146337.429    21146339.6904   21146345.0194
      2289.499        1784.025
 -18694088.986 9 -14547674.97848  21339861.651    21339863.4184   21339869.4314
      2555.227        1991.086
  14323029.184 8  11046175.36545  24732801.650    24732804.1384   24732812.9044
     -2310.271       -1800.211
   4244705.005 9   3309470.30148  21621595.048    21621597.1174   21621603.1054
     -1575.855       -1227.939
   1175145.009 9    934276.81648  21042904.677    21042906.1934   21042911.2874
     -1729.729       -1347.841
   5174419.476 9   4040373.13246  24008770.714    24008772.3414   24008779.9734
     -2278.038       -1775.095
  -3983221.825 9  -3085312.48346  23841553.105    23841555.1884   23841562.3464
      2945.401        2295.118
 96 11 14 18 31 59.9990000  0  7 25 15 23 21  1 31 29               -0.000772445
 -21857809.466 9 -16518381.19348  21133307.839    21133310.1124   21133315.4414
      2275.339        1772.991
 -18770512.348 9 -14607225.65748  21325318.646    21325320.4924   21325326.6134
      2539.805        1979.069
  14392404.082 8  11100233.59645  24746004.100    24746005.8884   24746014.5884
     -2314.456       -1803.472
   4292135.969 9   3346429.45848  21630620.780    21630622.9654   21630628.9544
     -1585.911       -1235.775
   1227157.727 9    974806.18748  21052802.298    21052803.8814   21052808.9804
     -1737.621       -1353.990
   5242845.471 9   4093691.97646  24021791.867    24021793.4314   24021801.0784
     -2283.589       -1779.420
  -4071488.867 9  -3154091.93946  23824756.403    23824758.5524   23824765.4914
      2939.230        2290.309
 96 11 14 18 32 29.9990000  0  7 25 15 23 21  1 31 29               -0.000776843
 -21925864.263 9 -16571410.90048  21120357.494    21120359.7824   21120365.1164
      2261.981        1762.582
 -18846480.626 9 -14666421.71648  21310862.120    21310864.0954   21310870.3224
      2525.109        1967.617
  14461896.021 8  11154383.07845  24759227.459    24759229.9624   24759238.4424
     -2318.008       -1806.240
   4339853.439 9   3383611.86948  21639701.199    21639703.2974   21639709.3294
     -1594.733       -1242.649
   1279407.846 9   1015520.54748  21062745.223    21062746.7684   21062751.8494
     -1745.269       -1359.950
   5311428.673 9   4147133.31446  24034842.999    24034844.4494   24034852.1254
     -2288.296       -1783.088
  -4159580.297 9  -3222734.53346  23807993.052    23807995.1834   23808002.2004
      2933.856        2286.122
 96 11 14 18 32 59.9990000  0  7 25 15 23 21  1 31 29               -0.000781213
 -21993505.851 9 -16624118.63248  21107485.452    21107488.0524   21107493.3554
      2247.600        1751.377
 -18921991.584 9 -14725261.43248  21296492.967    21296494.9154   21296501.0364
      2509.245        1955.256
  14531498.783 8  11208618.93145  24772471.710    24772474.8224   24772483.5854
     -2321.945       -1809.308
   4387840.431 9   3421004.30348  21648833.095    21648834.9234   21648840.9804
     -1604.055       -1249.913
   1331894.394 9   1056419.14348  21072733.115    21072734.5964   21072739.6914
     -1753.340       -1366.239
   5380163.868 9   4200693.08146  24047923.267    24047924.4044   24047931.9244
     -2293.766       -1787.350
  -4247487.856 9  -3291233.85947  23791264.659    23791266.8134   23791273.9454
      2927.036        2280.807
 96 11 14 18 33 29.9990000  0  7 25 15 23 21  1 31 29               -0.000785580
 -22060722.956 9 -16676495.58848  21094694.987    21094697.0824   21094702.3294
      2233.570        1740.444
 -18997047.750 9 -14783746.74248  21282210.492    21282212.2044   21282218.2634
      2494.599        1943.843
  14601194.793 8  11262927.43645  24785734.213    24785737.4334   24785746.4434
     -2324.372       -1811.199
   4436085.505 9   3458597.82248  21658014.454    21658015.7444   21658021.7654
     -1612.220       -1256.275
   1384596.697 9   1097485.85348  21082761.869    21082763.4414   21082768.5994
     -1760.017       -1371.442
   5449039.381 9   4254362.21946  24061029.396    24061031.1594   24061038.6714
     -2297.911       -1790.580
  -4335208.625 9  -3359587.69547  23774571.986    23774574.0394   23774581.2024
      2921.132        2276.207
 96 11 14 18 33 59.9990000  0  7 25 15 23 21  1 31 29               -0.000789946
 -22127504.107 9 -16728532.83848  21081987.295    21081989.0794   21081994.2944
      2218.458        1728.668
 -19071650.603 9 -14841878.83148  21268014.321    21268015.8454   21268021.7824
      2478.808        1931.539
  14670980.114 8  11317305.53845  24799013.559    24799017.3154   24799026.0364
     -2328.220       -1814.197
   4484584.503 9   3496389.21148  21667244.126    21667244.9174   21667250.8284
     -1621.044       -1263.151
   1437514.655 9   1138720.60948  21092831.960    21092833.4214   21092838.5724
     -1767.900       -1377.584
   5518054.581 9   4308140.28046  24074162.436    24074164.4044   24074171.7364
     -2303.167       -1794.676
  -4422742.644 9  -3427795.92746  23757914.819    23757916.9784   23757924.0474
      2914.335        2270.910
 96 11 14 18 34 29.9990000  0  7 25 15 23 21  1 31 29               -0.000794320
 -22193846.028 9 -16780227.82548  21069362.790    21069364.6054   21069369.8384
      2203.924        1717.343
 -19145794.269 9 -14899653.10748  21253905.247    21253906.7254   21253912.6434
      2463.673        1919.745
  14740877.795 8  11371771.17545  24812313.662    24812318.4874   24812327.1134
     -2332.120       -1817.236
   4533330.707 9   3534373.23648  21676520.251    21676521.0154   21676526.9754
     -1629.153       -1269.470
   1490648.413 9   1180123.51948  21102943.035    21102944.4864   21102949.6084
     -1774.723       -1382.901
   5587207.691 9   4362025.66946  24087321.883    24087323.7174   24087331.3904
     -2307.378       -1797.957
  -4510084.533 9  -3495854.46246  23741293.803    23741296.1324   23741303.4424
      2908.060        2266.021
 96 11 14 18 34 59.9990000  0  7 25 15 23 21  1 31 29               -0.000798691
 -22259737.007 9 -16831571.42948  21056824.134    21056825.9604   21056831.1504
      2188.703        1705.483
 -19219466.929 9 -14957060.37148  21239885.789    21239887.2904   21239893.2434
      2447.738        1907.328
  14810904.788 8  11426337.57045  24825639.138    24825644.2514   24825652.6874
     -2336.566       -1820.701
   4582337.640 9   3572560.43148  21685846.080    21685846.7394   21685852.7174
     -1638.182       -1276.505
   1543997.941 9   1221694.56148  21113095.050    21113096.5974   21113101.7084
     -1782.042       -1388.604
   5656493.108 9   4416014.18346  24100506.751    24100508.4324   24100516.0584
     -2311.732       -1801.350
  -4597219.681 9  -3563751.90846  23724712.564    23724714.9204   23724722.1244
      2900.970        2260.496
 96 11 14 18 35 29.9990000  0  6 25 15 21  1 31 29                  -0.000803059
 -22325172.576 9 -16882560.16148  21044372.213    21044373.9444   21044379.1504
      2173.750        1693.831
 -19292665.383 9 -15014098.12248  21225956.572    21225958.1434   21225964.0964
      2432.111        1895.151
   4631611.918 9   3610955.93948  21695223.084    21695223.3734   21695229.3544
     -1646.725       -1283.162
   1597567.341 9   1263436.94048  21123289.033    21123290.5494   21123295.6234
     -1789.329       -1394.282
   5725899.385 9   4470096.85546  24113714.509    24113716.0914   24113723.5074
     -2315.418       -1804.222
  -4684147.243 9  -3631487.61046  23708171.199    23708173.0384   23708180.2424
      2894.218        2255.235
 96 11 14 18 35 59.9990000  0  6 25 15 21  1 31 29                  -0.000807434
 -22390158.760 9 -16933198.71948  21032005.765    21032007.4774   21032012.6984
      2158.922        1682.277
 -19365385.433 9 -15070763.08548  21212118.649    21212119.9024   21212125.8894
      2416.060        1882.644
   4681143.507 9   3649551.94548  21704648.380    21704648.9694   21704654.9214
     -1655.188       -1289.757
   1651359.308 9   1305352.74248  21133525.264    21133526.8234   21133531.9164
     -1796.557       -1399.915
   5795416.073 9   4524265.60446  24126943.454    24126944.8504   24126952.2244
     -2318.773       -1806.836
  -4770870.958 9  -3699064.48246  23691668.066    23691670.0084   23691677.0014
      2887.472        2249.978
 96 11 14 18 36 29.9990000  0  6 25 15 21  1 31 29                  -0.000811815
 -22454704.012 9 -16983493.69248  21019723.023    21019724.8924   21019730.1144
      2144.070        1670.704
 -19437624.549 9 -15127053.28748  21198371.851    21198373.2564   21198379.2184
      2399.950        1870.091
   4730927.147 9   3688344.35748  21714121.832    21714122.5484   21714128.4654
     -1663.878       -1296.528
   1705362.308 9   1347432.98748  21143801.702    21143803.2604   21143808.3624
     -1803.438       -1405.276
   5865022.999 9   4578504.63246  24140189.329    24140190.6704   24140198.3474
     -2321.681       -1809.102
  -4857390.594 9  -3766482.33046  23675203.774    23675205.7944   23675212.9254
      2880.631        2244.648
 96 11 14 18 36 59.9990000  0  6 25 15 21  1 31 29                  -0.000816202
 -22518806.196 9 -17033443.41348  21007524.264    21007526.6374   21007531.8314
      2129.200        1659.117
 -19509388.567 9 -15182973.29448  21184715.486    21184717.0314   21184722.9384
      2384.209        1857.825
   4780974.129 9   3727341.97348  21723645.219    21723646.1494   21723652.1394
     -1672.584       -1303.312
   1759554.529 9   1389660.68048  21154114.039    21154115.7064   21154120.8154
     -1809.536       -1410.028
   5934709.695 9   4632805.82446  24153449.888    24153451.7274   24153459.3094
     -2324.247       -1811.101
  -4943718.107 9  -3833750.46246  23658775.927    23658778.1074   23658785.3124
      2874.403        2239.794
 96 11 14 18 37 29.9990000  0  6 25 15 21  1 31 29                  -0.000820608
 -22582448.574 9 -17083034.83948  20995413.612    20995415.8884   20995421.0724
      2113.334        1646.754
 -19580672.821 9 -15238519.44748  21171150.457    21171152.0524   21171158.0014
      2367.791        1845.032
   4831282.088 9   3766542.95448  21733218.063    21733219.3544   21733225.4824
     -1681.623       -1310.356
   1813936.478 9   1432036.21048  21164462.701    21164464.2704   21164469.3694
     -1816.165       -1415.194
   6004484.008 9   4687175.33146  24166727.617    24166729.4634   24166737.1934
     -2327.667       -1813.766
  -5029861.664 9  -3900875.24047  23642382.948    23642385.6004   23642392.7514
      2868.189        2234.952
 96 11 14 18 37 59.9990000  0  6 25 15 21  1 31 29                  -0.000825036
 -22645620.500 9 -17132259.68548  20983392.644    20983394.6634   20983399.7904
      2098.284        1635.026
 -19651473.333 9 -15293688.66648  21157677.453    21157679.0994   21157685.1904
      2352.380        1833.023
   4881859.391 9   3805953.80748  21742842.125    21742843.8594   21742850.0994
     -1690.092       -1316.955
   1868501.826 9   1474554.65048  21174846.116    21174847.6994   21174852.8624
     -1821.406       -1419.277
   6074346.747 9   4741613.64646  24180022.324    24180023.9634   24180031.9474
     -2329.858       -1815.474
  -5115834.687 9  -3967867.10147  23626022.924    23626025.4654   23626032.6234
      2863.430        2231.244
 96 11 14 18 38 29.9990000  0  7 25 15 21  1 30 31 29               -0.000829482
 -22708320.370 9 -17181116.69748  20971461.437    20971463.2424   20971468.2794
      2082.015        1622.349
 -19721797.692 9 -15348486.85448  21144294.935    21144296.7224   21144302.8974
      2336.208        1820.422
   4932708.486 9   3845576.45648  21752518.203    21752520.0904   21752526.3924
     -1699.558       -1324.331
   1923243.178 9   1517210.23548  21185263.080    21185264.6614   21185269.8324
     -1827.696       -1424.179
  -2815201.29718  -2181780.93355  24944198.416    24944197.8495   24944205.8205
      1913.268        1490.858
   6144302.732 9   4796124.66946  24193334.308    24193336.2604   24193344.3284
     -2333.675       -1818.448
  -5201649.877 9  -4034736.00147  23609693.133    23609695.3924   23609702.5244
      2857.890        2226.927
 96 11 14 18 38 59.9990000  0  7 25 15 21  1 30 31 29               -0.000833934
 -22770535.783 9 -17229596.20948  20959622.096    20959624.0844   20959629.0224
      2066.068        1609.923
 -19791635.582 9 -15402905.99348  21131005.364    21131007.0234   21131013.2034
      2319.928        1807.736
   4983834.630 9   3885414.95348  21762247.499    21762249.1224   21762255.3944
     -1708.326       -1331.163
   1978168.663 9   1560009.29748  21195715.210    21195716.6574   21195721.8344
     -1833.808       -1428.941
  -2872449.518 8  -2226389.92445  24933303.998    24933303.7874   24933311.6164
      1903.625        1483.344
   6214381.808 9   4850731.59946  24206670.084    24206672.1594   24206680.0224
     -2338.019       -1821.833
  -5287295.339 9  -4101472.67147  23593395.265    23593397.5864   23593404.6054
      2852.103        2222.418
 96 11 14 18 39 29.9990000  0  7 25 15 21  1 30 31 29               -0.000838395
 -22832277.916 9 -17277706.93348  20947872.921    20947874.9644   20947879.8834
      2050.171        1597.536
 -19860982.720 9 -15456942.71548  21117809.309    21117810.6664   21117816.8634
      2303.169        1794.677
   5035215.551 9   3925452.00048  21772025.338    21772026.6254   21772032.8494
     -1717.304       -1338.159
   2033284.440 9   1602956.64148  21206203.276    21206204.8694   21206210.0474
     -1840.497       -1434.154
  -2929397.558 8  -2270764.92545  24922467.699    24922466.8154   24922474.3264
      1892.964        1475.037
   6284595.548 9   4905443.48646  24220031.449    24220033.6254   24220041.3694
     -2342.766       -1825.532
  -5372766.999 9  -4168073.88846  23577130.786    23577132.9544   23577139.7694
      2845.927        2217.605
 96 11 14 18 39 59.9990000  0  7 25 15 21  1 30 31 29               -0.000842842
 -22893552.358 9 -17325453.22148  20936213.237    20936214.7834   20936219.7254
      2034.889        1585.628
 -19929831.014 9 -15510590.73948  21104707.766    21104709.2524   21104715.4744
      2286.669        1781.820
   5086874.757 9   3965705.88147  21781855.343    21781857.0764   21781863.2664
     -1726.568       -1345.378
   2088589.775 9   1646051.68848  21216727.674    21216729.1394   21216734.3174
     -1846.654       -1438.951
  -2986028.536 8  -2314892.93846  24911689.937    24911690.1804   24911697.5764
      1882.559        1466.929
   6354945.367 9   4960261.42046  24233418.979    24233420.7884   24233428.6074
     -2347.264       -1829.037
  -5458045.253 9  -4234524.40446  23560902.360    23560904.6904   23560911.8664
      2839.234        2212.390
 96 11 14 18 40 29.9990000  0  7 25 15 21  1 30 31 29               -0.000847258
 -22954376.172 9 -17372848.36948  20924638.729    20924640.3424   20924645.2964
      2019.606        1573.719
 -19998185.905 9 -15563854.28048  21091700.241    21091701.7664   21091708.0554
      2269.891        1768.746
   5138802.198 9   4006168.78647  21791736.418    21791738.6344   21791744.7544
     -1735.763       -1352.543
   2144085.050 9   1689294.74148  21227288.020    21227289.5564   21227294.6974
     -1853.438       -1444.237
  -3042354.776 8  -2358783.38246  24900970.358    24900971.7564   24900979.1724
      1872.249        1458.895
   6425425.863 9   5015181.13646  24246831.187    24246832.7944   24246840.7754
     -2351.799       -1832.571
  -5543120.362 9  -4300816.61147  23544712.202    23544715.1584   23544722.6254
      2832.207        2206.915
 96 11 14 18 40 59.9990000  0  7 25 15 21  1 30 31 29               -0.000851650
 -23014751.417 9 -17419893.98448  20913149.974    20913151.2624   20913156.2414
      2005.255        1562.536
 -20066047.261 9 -15616733.26148  21078786.904    21078788.2354   21078794.3694
      2254.241        1756.551
   5191000.387 9   4046842.67247  21801669.296    21801671.6304   21801677.7124
     -1744.158       -1359.084
   2199769.299 9   1732685.04848  21237884.390    21237885.9484   21237891.0664
     -1858.909       -1448.501
  -3098390.553 8  -2402447.53046  24890306.678    24890308.4744   24890315.8764
      1863.497        1452.076
   6496013.827 9   5070184.61346  24260264.135    24260265.2404   24260273.3624
     -2353.977       -1834.268
  -5628001.540 9  -4366957.74247  23528560.128    23528562.8364   23528570.2844
      2826.790        2202.694
 96 11 14 18 41 29.9990000  0  7 25 15 21  1 30 31 29               -0.000856035
 -23074668.911 9 -17466582.91748  20901747.947    20901749.3324   20901754.2964
      1989.219        1550.041
 -20133422.419 9 -15669233.36848  21065965.502    21065967.0964   21065973.3704
      2237.474        1743.486
   5243473.765 9   4087730.97547  21811654.416    21811657.0494   21811663.0534
     -1754.227       -1366.930
   2255641.081 9   1776221.48748  21248516.471    21248518.0304   21248523.1624
     -1865.747       -1453.829
  -3154142.694 8  -2445890.63946  24879695.307    24879699.1264   24879706.7664
      1853.415        1444.219
   6566676.485 9   5125246.29646  24273710.767    24273711.9094   24273720.0924
     -2356.675       -1836.370
  -5712713.631 9  -4432967.07447  23512440.473    23512442.7374   23512450.1014
      2820.632        2197.895
 96 11 14 18 41 59.9990000  0  7 25 15 21  1 30 31 29               -0.000860403
 -23134101.536 9 -17512894.02948  20890438.225    20890439.6914   20890444.6324
      1972.655        1537.134
 -20200293.699 9 -15721340.85948  21053240.157    21053241.8944   21053248.1004
      2220.215        1730.038
   5296250.146 9   4128855.36247  21821698.188    21821700.1664   21821706.0924
     -1764.311       -1374.788
   2311718.549 9   1819918.19448  21259187.690    21259189.2224   21259194.3854
     -1873.155       -1459.601
  -3209595.875 8  -2489100.83446  24869143.001    24869146.5564   24869154.4304
      1843.211        1436.268
   6637414.254 9   5180366.48546  24287171.936    24287172.8764   24287181.1964
     -2359.629       -1838.672
  -5797239.378 9  -4498831.20047  23496355.830    23496357.9414   23496365.3824
      2814.144        2192.839
 96 11 14 18 42 29.9990000  0  7 25 15 21  1 30 31 29               -0.000864776
 -23193041.269 9 -17558821.07348  20879222.297    20879223.8184   20879228.7934
      1956.603        1524.626
 -20266650.575 9 -15773047.51148  21040613.117    21040614.6904   21040620.7584
      2203.550        1717.052
   5349308.466 9   4170199.45047  21831794.650    21831796.8554   21831802.8174
     -1772.916       -1381.493
   2368017.115 9   1863787.18548  21269900.875    21269902.4414   21269907.5964
     -1879.901       -1464.858
  -3264745.499 8  -2532074.45346  24858648.369    24858651.9584   24858659.8664
      1833.360        1428.592
   6708232.771 9   5235549.65346  24300648.929    24300649.4544   24300657.6604
     -2361.699       -1840.285
  -5881580.036 9  -4564551.11247  23480306.092    23480308.4984   23480315.7504
      2808.683        2188.584
 96 11 14 18 42 59.9990000  0  7 25 15 21  1 30 31 29               -0.000869170
 -23251508.181 9 -17604379.68848  20868095.875    20868097.9194   20868102.9484
      1941.454        1512.821
 -20332512.871 9 -15824368.77448  21028079.923    21028081.5064   21028087.5924
      2187.444        1704.502
   5402619.345 9   4211740.35447  21841939.165    21841941.5414   21841947.6084
     -1780.827       -1387.657
   2424501.931 9   1907801.31148  21280649.444    21280651.1094   21280656.2844
     -1885.531       -1469.245
  -3319600.947 8  -2574818.86546  24848210.289    24848213.3074   24848221.4254
      1823.845        1421.178
   6779110.723 9   5290779.04346  24314136.614    24314137.2664   24314145.3564
     -2363.389       -1841.602
  -5965764.923 9  -4630149.63947  23464286.560    23464288.7354   23464295.7404
      2803.582        2184.609
 96 11 14 18 43 29.9990000  0  7 25 15 21  1 30 31 29               -0.000873561
 -23309501.443 9 -17649569.22548  20857060.262    20857062.1744   20857067.1764
      1925.534        1500.416
 -20397859.736 9 -15875288.39748  21015644.747    21015646.3134   21015652.4824
      2169.654        1690.639
   5456189.897 9   4253483.59147  21852133.401    21852135.7034   21852141.8384
     -1789.877       -1394.709
   2481181.251 9   1951967.00148  21291435.229    21291436.8334   21291441.9924
     -1892.350       -1474.558
  -3374138.357 8  -2617315.42446  24837832.350    24837835.0704   24837843.3104
      1812.714        1412.504
   6850077.821 9   5346077.96046  24327641.513    24327641.8264   24327650.0334
     -2367.184       -1844.559
  -6049758.721 9  -4695599.27547  23448303.125    23448305.0484   23448312.1414
      2796.512        2179.100
 96 11 14 18 43 59.9990000  0  7 25 15 21  1 30 31 29               -0.000877945
 -23367048.681 9 -17694411.21248  20846109.169    20846111.2294   20846116.2704
      1910.662        1488.828
 -20462695.503 9 -15925809.78148  21003307.014    21003308.4454   21003314.5724
      2152.513        1677.283
   5510001.140 9   4295414.37447  21862373.417    21862375.7694   21862381.8044
     -1797.757       -1400.850
   2538035.298 9   1996268.83348  21302254.356    21302255.8354   21302260.9884
     -1898.085       -1479.027
  -3428366.830 9  -2659571.32245  24827513.063    24827515.6584   24827523.5474
      1802.274        1404.369
   6921132.010 9   5401444.69646  24341162.568    24341163.0094   24341171.3814
     -2370.067       -1846.805
  -6133562.867 9  -4760901.12747  23432355.186    23432357.4614   23432364.7474
      2790.347        2174.296
 96 11 14 18 44 29.9990000  0  7 25 15 21  1 30 31 29               -0.000882332
 -23424149.739 9 -17738905.53248  20835243.374    20835245.2484   20835250.3054
      1895.448        1476.972
 -20527022.891 9 -15975935.00148  20991065.858    20991067.2594   20991073.5924
      2135.409        1663.955
   5564046.179 9   4337527.35647  21872658.103    21872660.3324   21872666.2894
     -1806.095       -1407.347
   2595049.400 9   2040695.38448  21313103.748    21313105.2204   21313110.4514
     -1903.254       -1483.055
  -3482281.709 9  -2701582.85746  24817254.458    24817256.0454   24817263.4214
      1791.359        1395.864
   6992267.704 9   5456874.99746  24354698.942    24354699.7404   24354708.1724
     -2372.818       -1848.949
  -6217192.436 9  -4826066.95447  23416441.109    23416443.3584   23416450.3304
      2784.293        2169.579
 96 11 14 18 44 59.9990000  0  7 25 15 21  1 30 31 29               -0.000886703
 -23480778.777 9 -17783032.04748  20824467.185    20824469.0914   20824474.1634
      1880.022        1464.952
 -20590825.405 9 -16025651.25848  20978924.749    20978926.1704   20978932.3874
      2118.414        1650.712
   5618368.957 9   4379856.75947  21882995.702    21882997.6494   21883003.6084
     -1815.118       -1414.378
   2652222.098 9   2085245.51548  21323983.397    21323984.8154   21323990.0614
     -1907.940       -1486.706
  -3535853.601 8  -2743327.16046  24807059.966    24807061.5774   24807068.9564
      1780.447        1387.361
   7063487.786 9   5512371.01846  24368251.926    24368252.6324   24368261.0214
     -2374.757       -1850.460
  -6300622.242 9  -4891077.10547  23400565.459    23400567.0764   23400574.1854
      2778.058        2164.720
 96 11 14 18 45 29.9990000  0  7 25 15 21  1 30 31 29               -0.000891078
 -23536933.078 9 -17826788.63348  20813781.280    20813783.3024   20813788.3484
      1863.269        1451.898
 -20654112.810 9 -16074966.10248  20966881.252    20966882.8604   20966889.2264
      2100.475        1636.734
   5672966.247 9   4422400.04747  21893385.027    21893387.1624   21893393.1874
     -1824.989       -1422.069
   2709537.487 9   2129906.83648  21334890.210    21334891.5594   21334896.8374
     -1913.348       -1490.921
  -3589093.891 8  -2784813.06845  24796928.723    24796930.0444   24796937.5224
      1768.649        1378.168
   7134757.724 9   5567905.86646  24381814.447    24381814.9854   24381823.2944
     -2376.770       -1852.029
  -6383867.384 9  -4955943.36247  23384724.359    23384725.9234   23384733.1504
      2771.489        2159.602
 96 11 14 18 45 59.9990000  0  7 25 15 21  1 30 31 29               -0.000895475
 -23592596.464 9 -17870162.68548  20803189.093    20803190.9584   20803195.9814
      1846.775        1439.045
 -20716887.047 9 -16123881.10048  20954935.760    20954937.4144   20954943.6404
      2083.688        1623.653
   5727845.041 9   4465162.69647  21903828.176    21903830.2034   21903836.3344
     -1834.401       -1429.403
   2766994.237 9   2174678.31048  21345823.705    21345825.2304   21345830.5364
     -1917.895       -1494.464
  -3642001.210 8  -2826039.49146  24786860.264    24786862.0354   24786869.6794
      1757.756        1369.680
   7206055.601 9   5623462.56746  24395381.874    24395382.6934   24395390.9674
     -2377.260       -1852.410
  -6466942.123 9  -5020676.85147  23368915.612    23368917.4924   23368924.4964
      2765.969        2155.301
 96 11 14 18 46 29.9990000  0  7 25 15 21  1 30 31 29               -0.000899878
 -23647737.376 9 -17913129.61248  20792696.468    20792697.9974   20792703.0244
      1829.253        1425.392
 -20779131.702 9 -16172383.42848  20943090.955    20943092.6384   20943098.9014
      2065.847        1609.751
   5783035.812 9   4508168.42147  21914330.788    21914332.7134   21914338.8634
     -1845.139       -1437.771
   2824607.428 9   2219571.68348  21356787.291    21356788.7034   21356793.9694
     -1923.182       -1498.583
  -3694559.808 8  -2866994.25346  24776859.128    24776860.6614   24776868.2304
      1746.084        1360.585
   7277387.416 9   5679045.62746  24408955.612    24408956.7164   24408965.0684
     -2378.446       -1853.335
  -6549820.136 9  -5085257.05547  23353144.636    23353146.4034   23353153.2294
      2759.023        2149.888
 96 11 14 18 46 59.9990000  0  7 25 15 21  1 30 31 29               -0.000904285
 -23702373.867 9 -17955703.48648  20782299.309    20782301.0374   20782306.0294
      1812.882        1412.635
 -20840856.567 9 -16220480.72848  20931345.171    20931346.8634   20931353.0854
      2048.806        1596.472
   5838529.686 9   4551410.33247  21924891.251    21924892.9054   21924899.0994
     -1854.545       -1445.100
   2882370.038 9   2264581.48248  21367779.082    21367780.5554   21367785.8354
     -1928.145       -1502.451
  -3746787.999 8  -2907691.52445  24766921.035    24766921.6804   24766929.3934
      1735.569        1352.391
   7348736.162 9   5734641.89246  24422532.630    24422533.9714   24422542.4214
     -2378.488       -1853.367
  -6632504.128 9  -5149686.05947  23337410.052    23337412.0294   23337418.7954
      2753.107        2145.278
 96 11 14 18 47 29.9990000  0  7 25 15 21  1 30 31 29               -0.000908700
 -23756506.716 9 -17997884.91548  20771998.050    20771999.8914   20772004.8464
      1796.633        1399.974
 -20902053.552 9 -16268166.68848  20919699.692    20919701.4604   20919707.6484
      2031.554        1583.029
   5894308.862 9   4594874.56847  21935505.821    21935507.3894   21935513.6124
     -1863.442       -1452.033
   2940305.384 9   2309725.88448  21378803.832    21378805.2894   21378810.6224
     -1933.697       -1506.777
  -3798686.155 8  -2948131.63346  24757044.720    24757045.6704   24757053.4664
      1724.881        1344.063
   7420108.828 9   5790256.85845  24436114.632    24436115.8564   24436124.1564
     -2379.337       -1854.029
  -6714997.209 9  -5213966.32847  23321711.945    23321713.9214   23321720.7794
      2746.945        2140.477
 96 11 14 18 47 59.9990000  0  7 25 15 21  1 30 31 29               -0.000913114
 -23810156.957 9 -18039690.29148  20761788.867    20761790.5664   20761795.5244
      1780.045        1387.048
 -20962733.811 9 -16315450.00948  20908152.986    20908154.4674   20908160.5934
      2013.701        1569.118
   5950351.816 9   4638544.34547  21946170.494    21946172.0404   21946178.2924
     -1872.638       -1459.198
   2998410.692 9   2355002.72948  21389860.868    21389862.3894   21389867.7204
     -1940.067       -1511.741
  -3850259.930 9  -2988318.99346  24747231.119    24747231.5984   24747239.2254
      1713.281        1335.024
   7491512.918 9   5845896.31545  24449702.782    24449703.7774   24449711.9844
     -2381.085       -1855.391
  -6797296.521 9  -5278095.59247  23306050.797    23306052.9054   23306059.6104
      2739.603        2134.756
 96 11 14 18 48 29.9990000  0  8 25 15 14 21  1 30 31 29            -0.000917511
 -23863317.804 9 -18081114.32148  20751672.523    20751674.3754   20751679.3164
      1764.334        1374.806
 -21022878.240 9 -16362315.79448  20896707.852    20896709.2634   20896715.4864
      1996.182        1555.466
   -285977.33919   -192438.33756  24087744.492           0.0005   24087752.9135
      3079.098        2399.297
   6006653.766 9   4682415.94347  21956885.021    21956885.9614   21956892.2484
     -1880.612       -1465.412
   3056708.860 9   2400429.85248  21400954.751    21400956.2144   21400961.5054
     -1946.206       -1516.524
  -3901482.608 9  -3028232.72646  24737483.882    24737484.4944   24737491.9464
      1701.781        1326.063
   7562976.378 9   5901581.97146  24463301.822    24463303.0394   24463311.1284
     -2382.905       -1856.809
  -6879381.998 9  -5342058.25247  23290430.661    23290432.6514   23290439.0094
      2733.129        2129.711
 96 11 14 18 48 59.9990000  0  8 25 15 14 21  1 30 31 29            -0.000921886
 -23916002.220 9 -18122167.10648  20741647.452    20741648.8494   20741653.7614
      1748.127        1362.177
 -21082490.103 9 -16408766.59848  20885363.992    20885365.4704   20885371.6534
      1978.239        1541.485
   -378363.212 9   -264427.29956  24070169.595    24070164.7055   24070172.5735
      3080.197        2400.153
   6063194.770 9   4726473.81347  21967644.149    21967645.3724   21967651.6344
     -1888.538       -1471.588
   3115199.799 9   2446007.18748  21412085.279    21412086.6904   21412091.9774
     -1952.806       -1521.667
  -3952344.890 9  -3067865.61046  24727805.283    24727805.6944   24727813.2324
      1689.369        1316.391
   7634496.696 9   5957311.95646  24476911.661    24476912.9044   24476921.0974
     -2384.765       -1858.258
  -6961271.124 9  -5405867.88747  23274847.702    23274849.5984   23274856.0404
      2726.552        2124.586
 96 11 14 18 49 29.9990000  0  8 25 15 14 21  1 30 31 29            -0.000926276
 -23968204.170 9 -18162843.94648  20731713.763    20731715.1364   20731720.0444
      1732.449        1349.960
 -21141571.084 9 -16454803.72148  20874120.968    20874122.7014   20874128.9164
      1960.938        1528.004
   -470780.684 9   -336440.86946  24052580.053    24052578.3885   24052586.2624
      3081.211        2400.944
   6119970.113 9   4770714.28747  21978447.968    21978449.3964   21978455.6124
     -1896.045       -1477.438
   3173869.766 9   2491724.02748  21423249.743    21423251.1904   21423256.5024
     -1957.960       -1525.683
  -4002846.385 9  -3107217.37646  24718194.702    24718195.6264   24718203.0704
      1677.817        1307.390
   7706074.781 9   6013086.96946  24490532.544    24490533.8334   24490542.0964
     -2386.637       -1859.717
  -7042972.194 9  -5469530.98647  23259300.353    23259302.2034   23259308.9104
      2720.554        2119.912
 96 11 14 18 49 59.9990000  0  8 25 15 14 21  1 30 31 29            -0.000930672
 -24019915.167 9 -18203138.22148  20721873.491    20721874.8534   20721879.7714
      1715.079        1336.425
 -21200113.646 9 -16500421.30248  20862980.934    20862982.4774   20862988.6084
      1942.071        1513.302
   -563198.443 9   -408454.64646  24034992.253    24034991.8784   24034999.7244
      3080.113        2400.088
   6176993.546 9   4815148.07147  21989299.655    21989300.6614   21989306.8534
     -1905.303       -1484.652
   3232704.800 9   2537569.49448  21434445.680    21434447.1544   21434452.4244
     -1964.159       -1530.514
  -4052983.684 9  -3146285.37746  24708653.313    24708654.8924   24708662.2034
      1664.955        1297.368
   7777716.005 8   6068911.17345  24504165.480    24504166.9144   24504175.1614
     -2389.180       -1861.699
  -7124477.738 9  -5533041.74647  23243789.935    23243791.9844   23243798.9934
      2713.446        2114.374
 96 11 14 18 50 29.9990000  0  8 25 15 14 21  1 30 31 29            -0.000935073
 -24071124.623 9 -18243041.68648  20712128.676    20712130.0484   20712134.9494
      1698.482        1323.492
 -21258112.892 9 -16545615.51548  20851944.061    20851945.6294   20851951.7544
      1924.267        1499.429
   -655607.226 9   -480461.42546  24017406.915    24017407.0364   24017414.9154
      3080.267        2400.208
   6234274.804 9   4859782.75547  22000200.262    22000200.9624   22000207.1824
     -1913.982       -1491.415
   3291701.296 9   2583540.77548  21445672.326    21445673.8194   21445679.1174
     -1969.187       -1534.431
  -4102762.257 9  -3185073.87446  24699180.499    24699182.5164   24699189.5964
      1653.380        1288.348
   7849405.522 8   6124772.97945  24517807.727    24517808.6044   24517817.1844
     -2390.383       -1862.636
  -7205799.099 9  -5596408.97347  23228314.860    23228316.9404   23228323.9324
      2707.718        2109.910
 96 11 14 18 50 59.9990000  0  8 25 15 14 21  1 30 31 29            -0.000939479
 -24121834.645 9 -18282555.98248  20702478.637    20702480.2534   20702485.1714
      1681.966        1310.623
 -21315582.326 9 -16590396.88948  20841007.881    20841009.4974   20841015.6354
      1906.766        1485.792
   -748031.850 9   -552480.54746  23999818.535    23999819.2614   23999827.0664
      3081.305        2401.017
   6291819.598 9   4904622.80447  22011150.935    22011151.4894   22011157.6864
     -1922.552       -1498.092
   3350837.490 9   2629620.91148  21456925.609    21456927.1264   21456932.4054
     -1973.462       -1537.763
  -4152201.783 8  -3223598.15046  24689771.905    24689774.3094   24689781.4294
      1642.442        1279.825
   7921120.595 8   6180654.71245  24531455.107    24531455.8244   24531464.1754
     -2390.994       -1863.112
  -7286947.564 9  -5659641.47847  23212872.771    23212874.8004   23212881.6214
      2701.979        2105.438
 96 11 14 18 51 29.9990000  0  8 25 15 14 21  1 30 31 29            -0.000943886
 -24172027.737 9 -18321667.46948  20692927.241    20692928.7894   20692933.7734
      1664.806        1297.251
 -21372503.722 9 -16634751.22948  20830176.258    20830177.6904   20830183.8004
      1888.461        1471.528
   -840473.972 9   -624513.27046  23982227.134    23982227.9914   23982235.8454
      3082.033        2401.584
   6349642.391 9   4949679.46347  22022153.993    22022154.9094   22022161.1124
     -1931.712       -1505.230
   3410124.433 9   2675818.51448  21468207.653    21468209.1154   21468214.3944
     -1978.613       -1541.776
  -4201295.955 9  -3261853.29346  24680428.740    24680431.7424   24680438.9044
      1630.946        1270.867
   7992877.692 8   6236569.20855  24545110.215    24545114.3904          0.0005
     -2392.420       -1864.223
  -7367905.423 9  -5722725.46647  23197466.594    23197468.9434   23197475.7144
      2695.540        2100.421
 96 11 14 18 51 59.9990000  0  8 25 15 14 21  1 30 31 29            -0.000948300
 -24221721.174 9 -18360389.62048  20683470.607    20683472.4134   20683477.4474
      1647.332        1283.635
 -21428886.337 9 -16678685.73248  20819447.072    20819448.4254   20819454.5144
      1869.552        1456.794
   -932959.880 9   -696580.12746  23964627.166    23964628.3844   23964636.2274
      3082.836        2402.210
   6407729.301 9   4994941.93647  22033207.220    22033208.4834   22033214.7424
     -1941.633       -1512.961
   3469560.057 9   2722131.97048  21479517.859    21479519.3304   21479524.6524
     -1984.608       -1546.448
  -4250056.358 9  -3299848.38746  24671149.512    24671153.1724   24671160.2004
      1618.907        1261.486
   8064661.595 7   6292504.56854  24558769.709    24558770.2304          0.0005
     -2394.059       -1865.501
  -7448680.985 9  -5785667.40047  23182095.757    23182097.8684   23182104.5644
      2688.653        2095.054
 96 11 14 18 52 29.9990000  0  8 25 15 14 21  1 30 31 29            -0.000952713
 -24270900.027 9 -18398710.79548  20674112.111    20674113.9874   20674119.0004
      1630.652        1270.638
 -21484709.637 9 -16722184.39948  20808823.983    20808825.6224   20808831.7794
      1851.327        1442.592
  -1025478.532 9   -768672.54946  23947021.256    23947022.6574   23947030.3714
      3084.337        2403.379
   6466106.707 9   5040430.76447  22044316.507    22044317.3294   22044323.5924
     -1950.866       -1520.155
   3529166.308 9   2768578.38548  21490860.594    21490862.0404   21490867.3794
     -1989.590       -1550.330
  -4298457.054 9  -3337563.20546  24661938.919    24661942.7764   24661949.8834
      1607.099        1252.285
   8136498.33317   6348481.18154  24572439.628    24572442.4555          0.0005
     -2395.757       -1866.824
  -7529258.397 9  -5848454.95247  23166762.215    23166764.4754   23166771.3544
      2682.516        2090.272
 96 11 14 18 52 59.9990000  0  7 25 15 14 21  1 30 29               -0.000957131
 -24319582.101 9 -18436644.87448  20664848.267    20664850.1234   20664855.1264
      1614.965        1258.414
 -21539980.494 9 -16765252.59048  20798306.481    20798307.9744   20798314.1784
      1833.412        1428.633
  -1118031.174 9   -840791.45546  23929408.871    23929410.5734   23929418.0984
      3085.836        2404.548
   6524755.984 9   5086131.44747  22055477.218    22055477.9814   22055484.1784
     -1958.910       -1526.423
   3588913.262 9   2815134.43848  21502230.169    21502231.5544   21502236.8524
     -1993.478       -1553.359
  -4346501.505 8  -3375000.44746  24652796.576    24652800.1634   24652807.2874
      1595.902        1243.560
  -7609642.707 9  -5911092.03147  23151465.837    23151467.9684   23151474.8104
      2676.594        2085.658
 96 11 14 18 53 29.9990000  0  7 25 15 14 21  1 30 29               -0.000961559
 -24367791.319 9 -18474210.49448  20655674.213    20655676.2074   20655681.1804
      1599.504        1246.367
 -21594709.348 9 -16807898.45848  20787891.780    20787893.4564   20787899.6184
      1815.679        1414.815
  -1210617.609 9   -912936.70346  23911790.063    23911791.9074   23911799.4464
      3087.166        2405.584
   6583651.414 9   5132023.93947  22066683.792    22066685.4864   22066691.6714
     -1967.012       -1532.737
   3648780.181 9   2861783.97448  21513622.355    21513623.8714   21513629.1704
     -1997.078       -1556.165
  -4394206.203 9  -3412172.86246  24643718.550    24643721.9734   24643729.5404
      1584.932        1235.012
  -7689846.488 9  -5973588.44747  23136203.666    23136205.6134   23136212.3844
      2670.784        2081.130
 96 11 14 18 53 59.9990000  0  7 25 15 14 21  1 30 29               -0.000965976
 -24415520.617 9 -18511402.14648  20646591.547    20646593.6404   20646598.5684
      1582.378        1233.022
 -21648886.789 9 -16850114.64448  20777582.258    20777583.8024   20777589.9824
      1796.138        1399.588
  -1303224.157 9   -985097.60446  23894167.773    23894169.4914   23894177.0524
      3086.533        2405.091
   6642815.141 9   5178125.49147  22077942.237    22077944.0384   22077950.2174
     -1977.202       -1540.677
   3708766.748 9   2908526.73548  21525037.649    21525038.9724   21525044.2784
     -2002.010       -1560.008
  -4441556.092 9  -3449068.82946  24634707.792    24634711.7404   24634719.3174
      1571.656        1224.667
  -7769852.127 9  -6035930.43047  23120978.749    23120981.0294   23120987.6334
      2663.086        2075.132
 96 11 14 18 54 29.9990000  0  7 25 15 14 21  1 30 29               -0.000970383
 -24462750.317 9 -18548204.49748  20637604.276    20637606.1194   20637611.0874
      1565.782        1220.090
 -21702501.990 9 -16891892.73048  20767379.732    20767381.1744   20767387.2964
      1777.756        1385.264
  -1395834.186 9  -1057261.21846  23876544.542    23876546.3704   23876553.8364
      3087.013        2405.465
   6702251.021 9   5224439.11347  22089252.412    22089254.3844   22089260.5834
     -1985.642       -1547.254
   3768875.072 9   2955364.36848  21536475.939    21536477.2174   21536482.5404
     -2005.678       -1562.866
  -4488526.620 9  -3485669.21346  24625770.363    24625773.7744   24625781.0254
      1559.316        1215.051
  -7849656.655 9  -6098115.70347  23105792.521    23105794.7464   23105801.4014
      2656.764        2070.206
 96 11 14 18 54 59.9990000  0  7 25 15 14 21  1 30 29               -0.000974793
 -24509471.538 9 -18584610.63748  20628713.381    20628715.3344   20628720.3674
      1548.539        1206.654
 -21755560.176 9 -16933236.75848  20757282.967    20757284.5124   20757290.6534
      1759.079        1370.711
  -1488460.078 9  -1129437.20546  23858918.298    23858920.2924   23858927.5604
      3087.657        2405.966
   6761944.801 9   5270953.69447  22100611.810    22100613.7604   22100620.0084
     -1994.303       -1554.002
   3829104.733 9   3002296.55648  21547937.054    21547938.5064   21547943.8834
     -2010.199       -1566.389
  -4535124.802 9  -3521979.38746  24616903.825    24616906.3874   24616913.5544
      1546.836        1205.327
  -7929265.495 9  -6160148.52147  23090643.553    23090645.6704   23090652.2954
      2650.114        2065.024
 96 11 14 18 55 29.9990000  0  7 25 15 14 21  1 30 29               -0.000979200
 -24555662.292 9 -18620603.41448  20619923.444    20619925.4684   20619930.5184
      1530.429        1192.542
 -21808055.674 9 -16974142.33848  20747293.415    20747295.0044   20747301.0524
      1740.211        1356.009
  -1581108.716 9  -1201630.94846  23841287.943    23841289.8144   23841296.9854
      3088.443        2406.579
   6821916.134 9   5317684.54347  22112024.597    22112026.0064   22112032.2644
     -2004.160       -1561.683
   3889478.066 9   3049340.69148  21559425.848    21559427.1864   21559432.5584
     -2015.077       -1570.190
  -4581339.345 9  -3557990.67446  24608108.418    24608111.8894   24608118.9464
      1533.689        1195.082
  -8008670.079 9  -6222022.19747  23075533.572    23075535.5464   23075542.0434
      2643.146        2059.594
 96 11 14 18 55 59.9990000  0  7 25 15 14 21  1 30 29               -0.000983603
 -24601305.060 9 -18656169.19248  20611237.995    20611239.9284   20611244.9344
      1512.820        1178.821
 -21859981.917 9 -17014604.33748  20737412.277    20737413.8114   20737419.7824
      1721.860        1341.709
  -1673772.987 9  -1273836.85146  23823654.830    23823656.4224   23823663.5294
      3089.571        2407.458
   6882182.304 9   5364645.12947  22123493.250    22123494.3854   22123500.5634
     -2013.131       -1568.674
   3949999.062 9   3096499.89148  21570942.539    21570943.9554   21570949.3334
     -2019.320       -1573.496
  -4627154.542 9  -3593690.77546  24599390.512    24599393.6264   24599400.4744
      1520.967        1185.169
  -8087870.961 9  -6283737.10247  23060461.984    23060463.9814   23060470.4904
      2637.376        2055.098
 96 11 14 18 56 29.9990000  0  7 25 15 14 21  1 30 29               -0.000988020
 -24646411.106 9 -18691316.73848  20602654.653    20602656.5564   20602661.4874
      1493.969        1164.132
 -21911349.143 9 -17054630.74048  20727637.408    20727638.9864   20727644.9084
      1702.131        1326.336
  -1766462.754 9  -1346062.58946  23806016.382    23806018.2254   23806025.2314
      3089.264        2407.219
   6942720.645 9   5411817.81047  22135013.112    22135014.5174   22135020.7424
     -2023.248       -1576.557
   4010658.650 9   3143767.07848  21582485.568    21582487.0734   21582492.4634
     -2025.031       -1577.946
  -4672580.211 9  -3629087.33146  24590746.491    24590749.3704   24590756.1124
      1506.995        1174.282
  -8166891.115 9  -6345311.19547  23045424.917    23045426.8644   23045433.4334
      2630.070        2049.405
 96 11 14 18 56 59.9990000  0  7 25 15 14 21  1 30 29               -0.000992428
 -24690993.961 9 -18726056.61148  20594170.743    20594172.7214   20594177.6424
      1477.614        1151.388
 -21962152.326 9 -17094217.62848  20717970.023    20717971.5594   20717977.3534
      1684.060        1312.255
  -1859169.062 9  -1418301.20246  23788374.947    23788376.6204   23788383.8654
      3090.475        2408.162
   7003539.296 9   5459208.91147  22146586.453    22146587.9844   22146594.2664
     -2031.858       -1583.266
   4071458.729 9   3191143.74348  21594055.447    21594056.9244   21594062.3444
     -2028.997       -1581.037
  -4717620.680 8  -3664183.71646  24582175.026    24582178.3244   24582185.1854
      1495.028        1164.957
  -8245712.917 9  -6406730.74147  23030425.778    23030427.5514   23030434.0354
      2624.157        2044.798
 96 11 14 18 57 29.9990000  0  7 25 15 14 21  1 30 29               -0.000996832
 -24735073.306 9 -18760404.13048  20585783.048    20585784.7234   20585789.6014
      1460.855        1138.329
 -22012399.109 9 -17133370.96048  20708408.448    20708409.9614   20708415.6764
      1665.437        1297.743
  -1951894.735 9  -1490554.91546  23770729.622    23770731.4864   23770738.7664
      3090.991        2408.564
   7064629.311 9   5506811.46347  22158211.509    22158213.1114   22158219.3884
     -2040.900       -1590.312
   4132387.738 9   3238620.87148  21605649.770    21605651.3094   21605656.7714
     -2033.276       -1584.371
  -4762279.779 9  -3698982.93646  24573676.029    24573679.9704   24573686.9874
      1482.148        1154.920
  -8324349.029 9  -6468005.60047  23015462.044    23015463.7264   23015469.8354
      2618.153        2040.119
 96 11 14 18 57 59.9990000  0  7 25 15 14 21  1 30 29               -0.001001229
 -24778640.490 9 -18794352.55848  20577492.397    20577494.1854   20577499.0304
      1443.689        1124.952
 -22062069.661 9 -17172075.27848  20698956.420    20698957.9774   20698963.6844
      1645.997        1282.595
  -2044620.139 9  -1562808.43446  23753084.802    23753086.5004   23753093.5844
      3090.971        2408.549
   7125993.750 9   5554627.84447  22169889.537    22169890.4364   22169896.7014
     -2049.903       -1597.327
   4193469.341 9   3286216.90448  21617273.411    21617274.8184   21617280.2174
     -2038.767       -1588.650
  -4806543.900 8  -3733474.39446  24565253.250    24565256.6684   24565263.9104
      1468.776        1144.501
  -8402798.386 9  -6529134.88047  23000533.231    23000535.1584   23000541.4864
      2611.874        2035.226
 96 11 14 18 58 29.9980000  0  7 25 15 14 21  1 30 29               -0.001005631
 -24821699.957 9 -18827905.36048  20569298.461    20569300.2624   20569305.1104
      1427.128        1112.048
 -22111164.780 9 -17210331.21848  20689613.875    20689615.4744   20689621.1554
      1627.279        1268.010
  -2137359.893 9  -1635073.12346  23735437.057    23735438.7044   23735445.6904
      3091.994        2409.346
   7187614.827 9   5602644.19947  22181615.881    22181616.6064   22181622.8144
     -2058.144       -1603.749
   4254705.986 9   3333933.74948  21628926.267    21628927.8004   21628933.2174
     -2043.532       -1592.363
  -4850412.603 9  -3767657.73846  24556905.604    24556908.7134   24556915.9714
      1456.083        1134.610
  -8481057.215 9  -6590115.71647  22985641.211    22985642.9894   22985649.3964
      2605.591        2030.331
 96 11 14 18 58 59.9980000  0  7 25 15 14 21  1 30 29               -0.001010032
 -24864235.712 9 -18861050.07848  20561203.989    20561206.0034   20561210.8164
      1409.132        1098.025
 -22159679.633 9 -17248134.99448  20680381.842    20680383.3954   20680389.0904
      1607.784        1252.819
  -2230114.889 9  -1707349.70046  23717786.159    23717787.9254   23717795.0024
      3092.368        2409.637
   7249504.965 9   5650870.22947  22193393.425    22193393.9504   22193400.2004
     -2067.136       -1610.755
   4316104.311 9   3381776.58148  21640610.112    21640611.5534   21640616.9894
     -2048.974       -1596.603
  -4893884.783 9  -3801532.13846  24548632.749    24548636.3534   24548643.3164
      1442.793        1124.254
  -8559113.058 9  -6650938.38847  22970787.802    22970789.5184   22970795.8344
      2598.879        2025.101
 96 11 14 18 59 29.9980000  0  7 25 15 14 21  1 30 29               -0.001014452
 -24906240.770 9 -18893781.26348  20553210.632    20553212.7054   20553217.5204
      1391.526        1084.306
 -22207627.589 9 -17285497.04048  20671257.835    20671259.2384   20671264.9924
      1588.973        1238.161
  -2322899.084 9  -1779649.01746  23700130.028    23700131.5604   23700138.7554
      3093.460        2410.488
   7311645.055 9   5699291.00647  22205218.306    22205218.8704   22205225.1744
     -2075.372       -1617.173
   4377644.202 9   3429729.72548  21652320.891    21652322.2274   21652327.6674
     -2053.419       -1600.067
  -4936978.160 8  -3835111.38246  24540431.902    24540435.6884   24540442.7204
      1430.397        1114.595
  -8636984.013 9  -6711616.98447  22955969.283    22955971.0594   22955977.4144
      2592.761        2020.333
 96 11 14 18 59 59.9980000  0  7 25 15 14 21  1 30 29               -0.001018885
 -24947713.374 9 -18926097.54848  20545318.646    20545320.6854   20545325.4914
      1373.570        1070.314
 -22255000.691 9 -17322411.14448  20662243.050    20662244.3984   20662250.2194
      1569.550        1223.026
  -2415704.435 9  -1851964.80546  23682469.264    23682471.0714   23682478.4664
      3093.779        2410.737
   7374038.634 9   5747909.31947  22217091.143    22217092.0254   22217098.4074
     -2084.004       -1623.899
   4439319.185 9   3477788.13748  21664057.323    21664058.5934   21664064.0254
     -2057.778       -1603.463
  -4979692.883 9  -3868395.55846  24532303.818    24532307.1504   24532314.0644
      1417.582        1104.609
  -8714654.979 9  -6772139.76647  22941188.451    22941190.6454   22941197.0154
      2585.526        2014.696
